<?xml version='1.0' encoding='UTF-8'?><gpx version="1.1" creator="JPX - https://github.com/jenetics/jpx" xmlns="http://www.topografix.com/GPX/1/1"><trk><trkseg><trkpt lat="42.37872556970239" lon="-7.999828078995884"><ele>179.0</ele><time>2026-03-28T14:06:28.999Z</time></trkpt><trkpt lat="42.378818479930715" lon="-7.9998337587579735"><ele>179.0</ele><time>2026-03-28T14:06:29.999Z</time></trkpt><trkpt lat="42.378925723077884" lon="-7.999822879260644"><ele>179.0</ele><time>2026-03-28T14:06:30.999Z</time></trkpt><trkpt lat="42.379031805803045" lon="-7.999819424399046"><ele>179.0</ele><time>2026-03-28T14:06:31.999Z</time></trkpt><trkpt lat="42.379133882259374" lon="-7.9998146324632575"><ele>179.0</ele><time>2026-03-28T14:06:32.999Z</time></trkpt><trkpt lat="42.3792401440256" lon="-7.999791150824949"><ele>178.25</ele><time>2026-03-28T14:06:33.999Z</time></trkpt><trkpt lat="42.379355927736974" lon="-7.999764462805569"><ele>177.5</ele><time>2026-03-28T14:06:34.999Z</time></trkpt><trkpt lat="42.37947552143873" lon="-7.999730529496078"><ele>176.75</ele><time>2026-03-28T14:06:35.999Z</time></trkpt><trkpt lat="42.3795925092657" lon="-7.99968946074125"><ele>176.0</ele><time>2026-03-28T14:06:36.999Z</time></trkpt><trkpt lat="42.379714022627496" lon="-7.999634626237329"><ele>179.25</ele><time>2026-03-28T14:06:37.999Z</time></trkpt><trkpt lat="42.379832478004666" lon="-7.999571963128006"><ele>182.5</ele><time>2026-03-28T14:06:38.999Z</time></trkpt><trkpt lat="42.37994487216212" lon="-7.999503504185962"><ele>185.75</ele><time>2026-03-28T14:06:39.999Z</time></trkpt><trkpt lat="42.380049156445175" lon="-7.999407148617392"><ele>189.0</ele><time>2026-03-28T14:06:40.999Z</time></trkpt><trkpt lat="42.380163811243406" lon="-7.99932711908884"><ele>189.0</ele><time>2026-03-28T14:06:41.999Z</time></trkpt><trkpt lat="42.38028262748317" lon="-7.999274654277143"><ele>189.0</ele><time>2026-03-28T14:06:42.999Z</time></trkpt><trkpt lat="42.38039795694266" lon="-7.99918626328067"><ele>189.0</ele><time>2026-03-28T14:06:43.999Z</time></trkpt><trkpt lat="42.38051601132625" lon="-7.9991214798919685"><ele>189.0</ele><time>2026-03-28T14:06:44.999Z</time></trkpt><trkpt lat="42.38063825094581" lon="-7.999062976343458"><ele>189.25</ele><time>2026-03-28T14:06:45.999Z</time></trkpt><trkpt lat="42.380763972735274" lon="-7.999008542713965"><ele>189.5</ele><time>2026-03-28T14:06:46.999Z</time></trkpt><trkpt lat="42.380897790460125" lon="-7.998950944996654"><ele>189.75</ele><time>2026-03-28T14:06:47.999Z</time></trkpt><trkpt lat="42.38102113937724" lon="-7.998914246712921"><ele>190.0</ele><time>2026-03-28T14:06:48.999Z</time></trkpt><trkpt lat="42.38117011512065" lon="-7.998894446442652"><ele>190.0</ele><time>2026-03-28T14:06:49.999Z</time></trkpt><trkpt lat="42.38129543312211" lon="-7.998877171203863"><ele>190.0</ele><time>2026-03-28T14:06:50.999Z</time></trkpt><trkpt lat="42.38144439867733" lon="-7.998845247610971"><ele>190.0</ele><time>2026-03-28T14:06:51.999Z</time></trkpt><trkpt lat="42.38159108801958" lon="-7.9988185647508985"><ele>190.0</ele><time>2026-03-28T14:06:52.999Z</time></trkpt><trkpt lat="42.381726863118104" lon="-7.998795564568223"><ele>192.0</ele><time>2026-03-28T14:06:53.999Z</time></trkpt><trkpt lat="42.38188096678397" lon="-7.998779342186381"><ele>194.0</ele><time>2026-03-28T14:06:54.999Z</time></trkpt><trkpt lat="42.38203195775929" lon="-7.998764651278151"><ele>196.0</ele><time>2026-03-28T14:06:55.999Z</time></trkpt><trkpt lat="42.38218855322689" lon="-7.998753577909741"><ele>197.66666666666666</ele><time>2026-03-28T14:06:56.999Z</time></trkpt><trkpt lat="42.382341778060706" lon="-7.998747832721152"><ele>199.33333333333331</ele><time>2026-03-28T14:06:57.999Z</time></trkpt><trkpt lat="42.382491397291815" lon="-7.998740640829363"><ele>201.0</ele><time>2026-03-28T14:06:58.999Z</time></trkpt><trkpt lat="42.38264480757886" lon="-7.998731760561082"><ele>201.0</ele><time>2026-03-28T14:06:59.999Z</time></trkpt><trkpt lat="42.382800129660694" lon="-7.99873434986311"><ele>201.0</ele><time>2026-03-28T14:07:00.999Z</time></trkpt><trkpt lat="42.38296172761301" lon="-7.998730785363551"><ele>201.0</ele><time>2026-03-28T14:07:01.999Z</time></trkpt><trkpt lat="42.38312161638313" lon="-7.9987053724040695"><ele>203.33333333333331</ele><time>2026-03-28T14:07:02.999Z</time></trkpt><trkpt lat="42.38327659653921" lon="-7.99866234420496"><ele>205.66666666666666</ele><time>2026-03-28T14:07:03.999Z</time></trkpt><trkpt lat="42.383431563625834" lon="-7.998607789069627"><ele>208.0</ele><time>2026-03-28T14:07:04.999Z</time></trkpt><trkpt lat="42.383562444773496" lon="-7.99853950713341"><ele>208.0</ele><time>2026-03-28T14:07:05.999Z</time></trkpt><trkpt lat="42.383677505375566" lon="-7.998470939389403"><ele>208.0</ele><time>2026-03-28T14:07:07Z</time></trkpt><trkpt lat="42.383784067490005" lon="-7.998393824864751"><ele>208.0</ele><time>2026-03-28T14:07:08Z</time></trkpt><trkpt lat="42.38386955375418" lon="-7.998292850642034"><ele>208.0</ele><time>2026-03-28T14:07:09Z</time></trkpt><trkpt lat="42.38393424695962" lon="-7.998195521535139"><ele>210.0</ele><time>2026-03-28T14:07:10Z</time></trkpt><trkpt lat="42.38395439967879" lon="-7.998015743117401"><ele>212.0</ele><time>2026-03-28T14:07:11Z</time></trkpt><trkpt lat="42.38398176590107" lon="-7.997855759052205"><ele>214.0</ele><time>2026-03-28T14:07:12Z</time></trkpt><trkpt lat="42.38401837375772" lon="-7.997709066273229"><ele>216.0</ele><time>2026-03-28T14:07:13Z</time></trkpt><trkpt lat="42.38406882074017" lon="-7.997568353595637"><ele>214.20000000000002</ele><time>2026-03-28T14:07:14Z</time></trkpt><trkpt lat="42.384125160446416" lon="-7.997433539847859"><ele>212.40000000000003</ele><time>2026-03-28T14:07:15Z</time></trkpt><trkpt lat="42.38418130047119" lon="-7.997308582666811"><ele>210.6</ele><time>2026-03-28T14:07:16Z</time></trkpt><trkpt lat="42.38425137013962" lon="-7.997192350149626"><ele>208.8</ele><time>2026-03-28T14:07:17Z</time></trkpt><trkpt lat="42.38433438842257" lon="-7.997094282123938"><ele>207.0</ele><time>2026-03-28T14:07:18Z</time></trkpt><trkpt lat="42.38444389393534" lon="-7.997022727345964"><ele>207.0</ele><time>2026-03-28T14:07:19Z</time></trkpt><trkpt lat="42.38458071602393" lon="-7.996987610617825"><ele>207.0</ele><time>2026-03-28T14:07:20Z</time></trkpt><trkpt lat="42.38469067370529" lon="-7.996983130545845"><ele>207.0</ele><time>2026-03-28T14:07:21Z</time></trkpt><trkpt lat="42.38479996467404" lon="-7.99705354705765"><ele>207.0</ele><time>2026-03-28T14:07:22Z</time></trkpt><trkpt lat="42.3849043068787" lon="-7.997144657650282"><ele>210.0</ele><time>2026-03-28T14:07:23Z</time></trkpt><trkpt lat="42.38501802589977" lon="-7.997243393851959"><ele>213.0</ele><time>2026-03-28T14:07:24Z</time></trkpt><trkpt lat="42.385121238700584" lon="-7.997370871723448"><ele>216.0</ele><time>2026-03-28T14:07:25Z</time></trkpt><trkpt lat="42.385213261012346" lon="-7.997491165538124"><ele>219.0</ele><time>2026-03-28T14:07:26Z</time></trkpt><trkpt lat="42.38530565355284" lon="-7.997596222983204"><ele>221.6</ele><time>2026-03-28T14:07:27Z</time></trkpt><trkpt lat="42.385400093659406" lon="-7.99768099350792"><ele>224.2</ele><time>2026-03-28T14:07:28Z</time></trkpt><trkpt lat="42.38546394547784" lon="-7.997777308048434"><ele>226.79999999999998</ele><time>2026-03-28T14:07:29Z</time></trkpt><trkpt lat="42.38558636852633" lon="-7.997732766890418"><ele>229.39999999999998</ele><time>2026-03-28T14:07:30Z</time></trkpt><trkpt lat="42.38568655419188" lon="-7.997710346617642"><ele>232.0</ele><time>2026-03-28T14:07:31Z</time></trkpt><trkpt lat="42.3857929650989" lon="-7.997693528177153"><ele>234.5</ele><time>2026-03-28T14:07:32Z</time></trkpt><trkpt lat="42.385904765952695" lon="-7.99766641677163"><ele>237.0</ele><time>2026-03-28T14:07:33Z</time></trkpt><trkpt lat="42.38602197100432" lon="-7.997648015129848"><ele>239.5</ele><time>2026-03-28T14:07:34Z</time></trkpt><trkpt lat="42.38614353439841" lon="-7.997631028641256"><ele>242.0</ele><time>2026-03-28T14:07:35Z</time></trkpt><trkpt lat="42.38626175984605" lon="-7.997642176689662"><ele>243.25</ele><time>2026-03-28T14:07:36Z</time></trkpt><trkpt lat="42.38639748819275" lon="-7.997609522838839"><ele>244.5</ele><time>2026-03-28T14:07:37Z</time></trkpt><trkpt lat="42.38652696770631" lon="-7.997582172695293"><ele>245.75</ele><time>2026-03-28T14:07:38Z</time></trkpt><trkpt lat="42.386664608410186" lon="-7.997581222337948"><ele>247.0</ele><time>2026-03-28T14:07:39Z</time></trkpt><trkpt lat="42.38680403110309" lon="-7.997568702800213"><ele>247.0</ele><time>2026-03-28T14:07:40Z</time></trkpt><trkpt lat="42.38693693796987" lon="-7.997571553317954"><ele>247.0</ele><time>2026-03-28T14:07:41Z</time></trkpt><trkpt lat="42.38709228509336" lon="-7.997608019474811"><ele>247.0</ele><time>2026-03-28T14:07:42Z</time></trkpt><trkpt lat="42.38722114058826" lon="-7.997673664245579"><ele>247.0</ele><time>2026-03-28T14:07:43Z</time></trkpt><trkpt lat="42.38736694461961" lon="-7.997769514742824"><ele>246.5</ele><time>2026-03-28T14:07:44Z</time></trkpt><trkpt lat="42.38748219931269" lon="-7.997876340665234"><ele>246.0</ele><time>2026-03-28T14:07:45Z</time></trkpt><trkpt lat="42.38758746796621" lon="-7.998007042523219"><ele>245.5</ele><time>2026-03-28T14:07:46Z</time></trkpt><trkpt lat="42.38768098326358" lon="-7.998165320089039"><ele>245.0</ele><time>2026-03-28T14:07:47Z</time></trkpt><trkpt lat="42.38776491999061" lon="-7.998318999685774"><ele>244.5</ele><time>2026-03-28T14:07:48Z</time></trkpt><trkpt lat="42.38784692184597" lon="-7.998472056052095"><ele>244.0</ele><time>2026-03-28T14:07:49Z</time></trkpt><trkpt lat="42.38792703356519" lon="-7.9986459262337775"><ele>243.5</ele><time>2026-03-28T14:07:50Z</time></trkpt><trkpt lat="42.388018380864025" lon="-7.9988005724140985"><ele>243.0</ele><time>2026-03-28T14:07:50.999Z</time></trkpt><trkpt lat="42.38811707973756" lon="-7.998945567785106"><ele>243.0</ele><time>2026-03-28T14:07:51.999Z</time></trkpt><trkpt lat="42.38821571078219" lon="-7.999073840981266"><ele>243.0</ele><time>2026-03-28T14:07:52.999Z</time></trkpt><trkpt lat="42.38833918524825" lon="-7.999201038803095"><ele>243.0</ele><time>2026-03-28T14:07:53.999Z</time></trkpt><trkpt lat="42.388470010210796" lon="-7.999295362459028"><ele>243.0</ele><time>2026-03-28T14:07:54.999Z</time></trkpt><trkpt lat="42.38861820437061" lon="-7.99936023998476"><ele>245.0</ele><time>2026-03-28T14:07:55.999Z</time></trkpt><trkpt lat="42.3887554018814" lon="-7.999391992416685"><ele>247.0</ele><time>2026-03-28T14:07:56.999Z</time></trkpt><trkpt lat="42.38889747602163" lon="-7.999400707531762"><ele>249.0</ele><time>2026-03-28T14:07:57.999Z</time></trkpt><trkpt lat="42.38904378313826" lon="-7.999382447174442"><ele>251.0</ele><time>2026-03-28T14:07:58.999Z</time></trkpt><trkpt lat="42.3891871368503" lon="-7.999336090961938"><ele>251.0</ele><time>2026-03-28T14:07:59.999Z</time></trkpt><trkpt lat="42.38932586112515" lon="-7.999258788417299"><ele>251.0</ele><time>2026-03-28T14:08:00.999Z</time></trkpt><trkpt lat="42.38945477006599" lon="-7.999161113950013"><ele>251.0</ele><time>2026-03-28T14:08:01.999Z</time></trkpt><trkpt lat="42.389574594042294" lon="-7.99906540938774"><ele>251.0</ele><time>2026-03-28T14:08:02.999Z</time></trkpt><trkpt lat="42.3897085404718" lon="-7.998973585697549"><ele>253.25</ele><time>2026-03-28T14:08:03.999Z</time></trkpt><trkpt lat="42.38984422236307" lon="-7.998887155881955"><ele>255.5</ele><time>2026-03-28T14:08:04.999Z</time></trkpt><trkpt lat="42.38997719836704" lon="-7.998812472364223"><ele>257.75</ele><time>2026-03-28T14:08:05.999Z</time></trkpt><trkpt lat="42.390118057361626" lon="-7.998740819205507"><ele>260.0</ele><time>2026-03-28T14:08:06.999Z</time></trkpt><trkpt lat="42.39025950765076" lon="-7.998691101567263"><ele>260.0</ele><time>2026-03-28T14:08:07.999Z</time></trkpt><trkpt lat="42.390404445888294" lon="-7.998669347013809"><ele>260.0</ele><time>2026-03-28T14:08:08.999Z</time></trkpt><trkpt lat="42.390544316470894" lon="-7.998665932634443"><ele>260.0</ele><time>2026-03-28T14:08:09.999Z</time></trkpt><trkpt lat="42.39069774720419" lon="-7.998702483321334"><ele>260.0</ele><time>2026-03-28T14:08:10.999Z</time></trkpt><trkpt lat="42.390849514508076" lon="-7.998754692957367"><ele>262.0</ele><time>2026-03-28T14:08:11.999Z</time></trkpt><trkpt lat="42.390987443816485" lon="-7.998829203538976"><ele>264.0</ele><time>2026-03-28T14:08:12.999Z</time></trkpt><trkpt lat="42.39112352686606" lon="-7.9989121005629364"><ele>266.0</ele><time>2026-03-28T14:08:13.999Z</time></trkpt><trkpt lat="42.391256119813505" lon="-7.999029250381782"><ele>267.0</ele><time>2026-03-28T14:08:14.999Z</time></trkpt><trkpt lat="42.391387442432276" lon="-7.999151104645938"><ele>268.0</ele><time>2026-03-28T14:08:15.999Z</time></trkpt><trkpt lat="42.391513322470985" lon="-7.999281645251813"><ele>269.0</ele><time>2026-03-28T14:08:16.999Z</time></trkpt><trkpt lat="42.39164342176217" lon="-7.99940002594288"><ele>269.0</ele><time>2026-03-28T14:08:17.999Z</time></trkpt><trkpt lat="42.391773339556266" lon="-7.999526406428264"><ele>269.0</ele><time>2026-03-28T14:08:18.999Z</time></trkpt><trkpt lat="42.3918999449799" lon="-7.999662148210241"><ele>269.0</ele><time>2026-03-28T14:08:19.999Z</time></trkpt><trkpt lat="42.392023094716805" lon="-7.999797094941386"><ele>269.0</ele><time>2026-03-28T14:08:20.999Z</time></trkpt><trkpt lat="42.392155055124874" lon="-7.999931061086194"><ele>269.0</ele><time>2026-03-28T14:08:21.999Z</time></trkpt><trkpt lat="42.392283019211526" lon="-8.000056451328245"><ele>269.0</ele><time>2026-03-28T14:08:22.999Z</time></trkpt><trkpt lat="42.39240854199601" lon="-8.00021215250392"><ele>268.6666666666667</ele><time>2026-03-28T14:08:23.999Z</time></trkpt><trkpt lat="42.39253947079882" lon="-8.000352864597637"><ele>268.3333333333333</ele><time>2026-03-28T14:08:24.999Z</time></trkpt><trkpt lat="42.39266218289736" lon="-8.00049477836804"><ele>268.0</ele><time>2026-03-28T14:08:25.999Z</time></trkpt><trkpt lat="42.3927832026002" lon="-8.000661329636587"><ele>268.0</ele><time>2026-03-28T14:08:26.999Z</time></trkpt><trkpt lat="42.392910093438765" lon="-8.000807426963119"><ele>268.0</ele><time>2026-03-28T14:08:27.999Z</time></trkpt><trkpt lat="42.39303977522426" lon="-8.00096562210929"><ele>268.0</ele><time>2026-03-28T14:08:28.999Z</time></trkpt><trkpt lat="42.39316128077703" lon="-8.001117440373784"><ele>268.3333333333333</ele><time>2026-03-28T14:08:29.999Z</time></trkpt><trkpt lat="42.39328519658331" lon="-8.001283799453486"><ele>268.6666666666667</ele><time>2026-03-28T14:08:30.999Z</time></trkpt><trkpt lat="42.39341814818875" lon="-8.001445703155152"><ele>269.0</ele><time>2026-03-28T14:08:31.999Z</time></trkpt><trkpt lat="42.39354834338175" lon="-8.00159725808183"><ele>271.0</ele><time>2026-03-28T14:08:32.999Z</time></trkpt><trkpt lat="42.393673647499284" lon="-8.001757579389793"><ele>273.0</ele><time>2026-03-28T14:08:33.999Z</time></trkpt><trkpt lat="42.393808495334405" lon="-8.001906626592405"><ele>275.0</ele><time>2026-03-28T14:08:34.999Z</time></trkpt><trkpt lat="42.393947766403585" lon="-8.002042259134711"><ele>275.0</ele><time>2026-03-28T14:08:35.999Z</time></trkpt><trkpt lat="42.3940837404543" lon="-8.00217258634993"><ele>275.0</ele><time>2026-03-28T14:08:36.999Z</time></trkpt><trkpt lat="42.39422711437546" lon="-8.002314515729585"><ele>275.0</ele><time>2026-03-28T14:08:37.999Z</time></trkpt><trkpt lat="42.39437397490751" lon="-8.002438645447816"><ele>277.0</ele><time>2026-03-28T14:08:38.999Z</time></trkpt><trkpt lat="42.39452110831437" lon="-8.002540562236241"><ele>279.0</ele><time>2026-03-28T14:08:39.999Z</time></trkpt><trkpt lat="42.39466715954667" lon="-8.002648240546405"><ele>281.0</ele><time>2026-03-28T14:08:40.999Z</time></trkpt><trkpt lat="42.394819864007474" lon="-8.002746780781612"><ele>281.0</ele><time>2026-03-28T14:08:41.999Z</time></trkpt><trkpt lat="42.394971927931344" lon="-8.00283849863891"><ele>281.0</ele><time>2026-03-28T14:08:42.999Z</time></trkpt><trkpt lat="42.395125153645175" lon="-8.002922469961323"><ele>281.0</ele><time>2026-03-28T14:08:43.999Z</time></trkpt><trkpt lat="42.39528051875794" lon="-8.003000763265199"><ele>281.0</ele><time>2026-03-28T14:08:44.999Z</time></trkpt><trkpt lat="42.39543662822256" lon="-8.00307837406545"><ele>281.0</ele><time>2026-03-28T14:08:45.999Z</time></trkpt><trkpt lat="42.395589160522015" lon="-8.003149044953526"><ele>281.0</ele><time>2026-03-28T14:08:46.999Z</time></trkpt><trkpt lat="42.395737362633945" lon="-8.003222480174877"><ele>279.6666666666667</ele><time>2026-03-28T14:08:47.999Z</time></trkpt><trkpt lat="42.39587916565107" lon="-8.003305150156622"><ele>278.3333333333333</ele><time>2026-03-28T14:08:48.999Z</time></trkpt><trkpt lat="42.39602866716284" lon="-8.003384323858409"><ele>277.0</ele><time>2026-03-28T14:08:49.999Z</time></trkpt><trkpt lat="42.3961722796414" lon="-8.00347976798352"><ele>279.3333333333333</ele><time>2026-03-28T14:08:50.999Z</time></trkpt><trkpt lat="42.39631268616803" lon="-8.003576246824082"><ele>281.6666666666667</ele><time>2026-03-28T14:08:51.999Z</time></trkpt><trkpt lat="42.39644258984312" lon="-8.003681383643453"><ele>284.0</ele><time>2026-03-28T14:08:52.999Z</time></trkpt><trkpt lat="42.39656486392159" lon="-8.003809060716112"><ele>284.0</ele><time>2026-03-28T14:08:53.999Z</time></trkpt><trkpt lat="42.39668458966247" lon="-8.003942421123527"><ele>284.0</ele><time>2026-03-28T14:08:54.999Z</time></trkpt><trkpt lat="42.39682297509389" lon="-8.004079521547512"><ele>284.0</ele><time>2026-03-28T14:08:55.999Z</time></trkpt><trkpt lat="42.39690254584834" lon="-8.004240406735413"><ele>286.6666666666667</ele><time>2026-03-28T14:08:56.999Z</time></trkpt><trkpt lat="42.39699644671514" lon="-8.004402235224951"><ele>289.3333333333333</ele><time>2026-03-28T14:08:57.999Z</time></trkpt><trkpt lat="42.397089114870354" lon="-8.004569027878034"><ele>292.0</ele><time>2026-03-28T14:08:58.999Z</time></trkpt><trkpt lat="42.39719052216754" lon="-8.00471248831645"><ele>292.0</ele><time>2026-03-28T14:08:59.999Z</time></trkpt><trkpt lat="42.39730582617006" lon="-8.00485164266604"><ele>292.0</ele><time>2026-03-28T14:09:00.999Z</time></trkpt><trkpt lat="42.39738079733732" lon="-8.004998855350188"><ele>292.0</ele><time>2026-03-28T14:09:01.999Z</time></trkpt><trkpt lat="42.39748262165837" lon="-8.005146104976621"><ele>292.0</ele><time>2026-03-28T14:09:02.999Z</time></trkpt><trkpt lat="42.397604962647726" lon="-8.005241502308422"><ele>294.25</ele><time>2026-03-28T14:09:03.999Z</time></trkpt><trkpt lat="42.397741910713705" lon="-8.005317701340127"><ele>296.5</ele><time>2026-03-28T14:09:04.999Z</time></trkpt><trkpt lat="42.3978820173782" lon="-8.00537164041432"><ele>298.75</ele><time>2026-03-28T14:09:05.999Z</time></trkpt><trkpt lat="42.398027962175426" lon="-8.005383898298918"><ele>301.0</ele><time>2026-03-28T14:09:06.999Z</time></trkpt><trkpt lat="42.39817536392615" lon="-8.00539775641711"><ele>301.5</ele><time>2026-03-28T14:09:07.999Z</time></trkpt><trkpt lat="42.398317798291906" lon="-8.005422572940109"><ele>302.0</ele><time>2026-03-28T14:09:08.999Z</time></trkpt><trkpt lat="42.39845847218884" lon="-8.005467706337724"><ele>302.5</ele><time>2026-03-28T14:09:09.999Z</time></trkpt><trkpt lat="42.39859315117646" lon="-8.005544883408849"><ele>303.0</ele><time>2026-03-28T14:09:10.999Z</time></trkpt><trkpt lat="42.39871807900874" lon="-8.005654504556292"><ele>305.0</ele><time>2026-03-28T14:09:11.999Z</time></trkpt><trkpt lat="42.39883634635436" lon="-8.005797035736117"><ele>307.0</ele><time>2026-03-28T14:09:12.999Z</time></trkpt><trkpt lat="42.39893294680398" lon="-8.005958093574327"><ele>309.0</ele><time>2026-03-28T14:09:13.999Z</time></trkpt><trkpt lat="42.39901133353662" lon="-8.006137313699968"><ele>309.6666666666667</ele><time>2026-03-28T14:09:14.999Z</time></trkpt><trkpt lat="42.39908251350837" lon="-8.006334097019533"><ele>310.33333333333337</ele><time>2026-03-28T14:09:15.999Z</time></trkpt><trkpt lat="42.39913224398372" lon="-8.006536761326482"><ele>311.0</ele><time>2026-03-28T14:09:16.999Z</time></trkpt><trkpt lat="42.399168708253576" lon="-8.006758785958375"><ele>311.33333333333337</ele><time>2026-03-28T14:09:17.999Z</time></trkpt><trkpt lat="42.39918010533136" lon="-8.006978413099851"><ele>311.6666666666667</ele><time>2026-03-28T14:09:18.999Z</time></trkpt><trkpt lat="42.39917186381942" lon="-8.00720970737963"><ele>312.0</ele><time>2026-03-28T14:09:19.999Z</time></trkpt><trkpt lat="42.399147861554894" lon="-8.00742980155692"><ele>312.0</ele><time>2026-03-28T14:09:20.999Z</time></trkpt><trkpt lat="42.3991262158363" lon="-8.007670814652855"><ele>312.0</ele><time>2026-03-28T14:09:21.999Z</time></trkpt><trkpt lat="42.39912264905757" lon="-8.00790068921323"><ele>312.0</ele><time>2026-03-28T14:09:22.999Z</time></trkpt><trkpt lat="42.39915610298563" lon="-8.008138362512845"><ele>312.6666666666667</ele><time>2026-03-28T14:09:23.999Z</time></trkpt><trkpt lat="42.399185761730635" lon="-8.008374783001038"><ele>313.33333333333337</ele><time>2026-03-28T14:09:24.999Z</time></trkpt><trkpt lat="42.39925138668692" lon="-8.008607834435075"><ele>314.0</ele><time>2026-03-28T14:09:25.999Z</time></trkpt><trkpt lat="42.39933838067336" lon="-8.008832489197474"><ele>314.0</ele><time>2026-03-28T14:09:26.999Z</time></trkpt><trkpt lat="42.399444229806974" lon="-8.00903973749749"><ele>314.0</ele><time>2026-03-28T14:09:27.999Z</time></trkpt><trkpt lat="42.399573797306104" lon="-8.009230861998276"><ele>314.0</ele><time>2026-03-28T14:09:28.999Z</time></trkpt><trkpt lat="42.399713850992356" lon="-8.00939936610197"><ele>314.0</ele><time>2026-03-28T14:09:29.999Z</time></trkpt><trkpt lat="42.39986664199935" lon="-8.009541709186268"><ele>314.0</ele><time>2026-03-28T14:09:30.999Z</time></trkpt><trkpt lat="42.4000420185516" lon="-8.00966837803206"><ele>314.0</ele><time>2026-03-28T14:09:31.999Z</time></trkpt><trkpt lat="42.40022287304962" lon="-8.009786336470201"><ele>314.0</ele><time>2026-03-28T14:09:32.999Z</time></trkpt><trkpt lat="42.40039980373492" lon="-8.009903367548285"><ele>314.0</ele><time>2026-03-28T14:09:33.999Z</time></trkpt><trkpt lat="42.400584550096774" lon="-8.010023908835686"><ele>314.0</ele><time>2026-03-28T14:09:34.999Z</time></trkpt><trkpt lat="42.400763184463855" lon="-8.010141368072405"><ele>313.6666666666667</ele><time>2026-03-28T14:09:35.999Z</time></trkpt><trkpt lat="42.400945706762336" lon="-8.010261308246262"><ele>313.3333333333333</ele><time>2026-03-28T14:09:36.999Z</time></trkpt><trkpt lat="42.40112527374188" lon="-8.010376727600772"><ele>313.0</ele><time>2026-03-28T14:09:37.999Z</time></trkpt><trkpt lat="42.401308317566986" lon="-8.01048834434533"><ele>313.3333333333333</ele><time>2026-03-28T14:09:38.999Z</time></trkpt><trkpt lat="42.40149634978528" lon="-8.010583218703044"><ele>313.6666666666667</ele><time>2026-03-28T14:09:39.999Z</time></trkpt><trkpt lat="42.40169108243377" lon="-8.010678840639228"><ele>314.0</ele><time>2026-03-28T14:09:40.999Z</time></trkpt><trkpt lat="42.401876154702904" lon="-8.01077428274645"><ele>315.0</ele><time>2026-03-28T14:09:41.999Z</time></trkpt><trkpt lat="42.40206753074965" lon="-8.010871770087038"><ele>316.0</ele><time>2026-03-28T14:09:42.999Z</time></trkpt><trkpt lat="42.402262379287805" lon="-8.010957499176042"><ele>317.0</ele><time>2026-03-28T14:09:43.999Z</time></trkpt><trkpt lat="42.40245097954325" lon="-8.011037068835195"><ele>317.33333333333337</ele><time>2026-03-28T14:09:44.999Z</time></trkpt><trkpt lat="42.40264609719923" lon="-8.011125175467907"><ele>317.6666666666667</ele><time>2026-03-28T14:09:45.999Z</time></trkpt><trkpt lat="42.4028423030024" lon="-8.011216105324728"><ele>318.0</ele><time>2026-03-28T14:09:46.999Z</time></trkpt><trkpt lat="42.403029325932074" lon="-8.011284767174532"><ele>318.3333333333333</ele><time>2026-03-28T14:09:47.999Z</time></trkpt><trkpt lat="42.40323141556254" lon="-8.0113708315352"><ele>318.66666666666663</ele><time>2026-03-28T14:09:48.999Z</time></trkpt><trkpt lat="42.40344538984376" lon="-8.011456456612787"><ele>319.0</ele><time>2026-03-28T14:09:49.999Z</time></trkpt><trkpt lat="42.403623979006085" lon="-8.011567939778622"><ele>319.0</ele><time>2026-03-28T14:09:50.999Z</time></trkpt><trkpt lat="42.40379750221831" lon="-8.011708511938869"><ele>319.0</ele><time>2026-03-28T14:09:51.999Z</time></trkpt><trkpt lat="42.40395385140032" lon="-8.011887339842417"><ele>319.0</ele><time>2026-03-28T14:09:52.999Z</time></trkpt><trkpt lat="42.40408751451849" lon="-8.01210115109861"><ele>319.0</ele><time>2026-03-28T14:09:53.999Z</time></trkpt><trkpt lat="42.404192031945776" lon="-8.012348012208188"><ele>319.0</ele><time>2026-03-28T14:09:54.999Z</time></trkpt><trkpt lat="42.40427000882903" lon="-8.01261118711771"><ele>319.0</ele><time>2026-03-28T14:09:55.999Z</time></trkpt><trkpt lat="42.40432280574316" lon="-8.012887725899049"><ele>320.3333333333333</ele><time>2026-03-28T14:09:56.999Z</time></trkpt><trkpt lat="42.40435557185235" lon="-8.013169339947654"><ele>321.6666666666667</ele><time>2026-03-28T14:09:57.999Z</time></trkpt><trkpt lat="42.40436519320947" lon="-8.01345089470181"><ele>323.0</ele><time>2026-03-28T14:09:58.999Z</time></trkpt><trkpt lat="42.40439434580613" lon="-8.013737019326488"><ele>324.33333333333337</ele><time>2026-03-28T14:09:59.999Z</time></trkpt><trkpt lat="42.40443570899792" lon="-8.013991135902828"><ele>325.6666666666667</ele><time>2026-03-28T14:10:00.999Z</time></trkpt><trkpt lat="42.40449834511512" lon="-8.014234871288304"><ele>327.0</ele><time>2026-03-28T14:10:01.999Z</time></trkpt><trkpt lat="42.40460787739641" lon="-8.014442768453012"><ele>324.0</ele><time>2026-03-28T14:10:02.999Z</time></trkpt><trkpt lat="42.40473922693231" lon="-8.014655244874755"><ele>321.0</ele><time>2026-03-28T14:10:03.999Z</time></trkpt><trkpt lat="42.40488803866974" lon="-8.014816933051225"><ele>318.0</ele><time>2026-03-28T14:10:04.999Z</time></trkpt><trkpt lat="42.405051900745505" lon="-8.01494995956159"><ele>319.3333333333333</ele><time>2026-03-28T14:10:05.999Z</time></trkpt><trkpt lat="42.40523631498669" lon="-8.015046267360074"><ele>320.66666666666663</ele><time>2026-03-28T14:10:06.999Z</time></trkpt><trkpt lat="42.40542211734661" lon="-8.0151327629273"><ele>322.0</ele><time>2026-03-28T14:10:07.999Z</time></trkpt><trkpt lat="42.40561712175876" lon="-8.015185014825255"><ele>322.0</ele><time>2026-03-28T14:10:08.999Z</time></trkpt><trkpt lat="42.40581379463283" lon="-8.01523456372711"><ele>322.0</ele><time>2026-03-28T14:10:09.999Z</time></trkpt><trkpt lat="42.40599913717662" lon="-8.01530113273339"><ele>322.0</ele><time>2026-03-28T14:10:10.999Z</time></trkpt><trkpt lat="42.40619559147758" lon="-8.015383453907843"><ele>321.3333333333333</ele><time>2026-03-28T14:10:11.999Z</time></trkpt><trkpt lat="42.40638061280058" lon="-8.015495459692604"><ele>320.6666666666667</ele><time>2026-03-28T14:10:12.999Z</time></trkpt><trkpt lat="42.406548166939594" lon="-8.015608178068414"><ele>320.0</ele><time>2026-03-28T14:10:13.999Z</time></trkpt><trkpt lat="42.40671446593519" lon="-8.01577088058489"><ele>321.33333333333337</ele><time>2026-03-28T14:10:14.999Z</time></trkpt><trkpt lat="42.40687310438894" lon="-8.015939265037405"><ele>322.6666666666667</ele><time>2026-03-28T14:10:15.999Z</time></trkpt><trkpt lat="42.40703828226337" lon="-8.01611401349508"><ele>324.0</ele><time>2026-03-28T14:10:16.999Z</time></trkpt><trkpt lat="42.40721806497735" lon="-8.016262463328115"><ele>324.5</ele><time>2026-03-28T14:10:17.999Z</time></trkpt><trkpt lat="42.40739841318435" lon="-8.01643907341152"><ele>325.0</ele><time>2026-03-28T14:10:18.999Z</time></trkpt><trkpt lat="42.40755370291862" lon="-8.016676262897338"><ele>325.66666666666663</ele><time>2026-03-28T14:10:19.999Z</time></trkpt><trkpt lat="42.40770487601149" lon="-8.016844990824703"><ele>326.3333333333333</ele><time>2026-03-28T14:10:20.999Z</time></trkpt><trkpt lat="42.40787007602031" lon="-8.017018173547182"><ele>327.0</ele><time>2026-03-28T14:10:21.999Z</time></trkpt><trkpt lat="42.408034499215056" lon="-8.01719513806389"><ele>327.3333333333333</ele><time>2026-03-28T14:10:22.999Z</time></trkpt><trkpt lat="42.40820004986633" lon="-8.017371444099185"><ele>327.66666666666663</ele><time>2026-03-28T14:10:23.999Z</time></trkpt><trkpt lat="42.4083698833145" lon="-8.017537698190793"><ele>328.0</ele><time>2026-03-28T14:10:24.999Z</time></trkpt><trkpt lat="42.40853068416328" lon="-8.01769616260213"><ele>328.3333333333333</ele><time>2026-03-28T14:10:25.999Z</time></trkpt><trkpt lat="42.40868605218372" lon="-8.01784005540335"><ele>328.6666666666667</ele><time>2026-03-28T14:10:26.999Z</time></trkpt><trkpt lat="42.408836234362894" lon="-8.017969502867363"><ele>329.0</ele><time>2026-03-28T14:10:27.999Z</time></trkpt><trkpt lat="42.40897643281492" lon="-8.018087562419279"><ele>329.5</ele><time>2026-03-28T14:10:28.999Z</time></trkpt><trkpt lat="42.40910341741829" lon="-8.018187100829511"><ele>330.0</ele><time>2026-03-28T14:10:29.999Z</time></trkpt><trkpt lat="42.40922821363038" lon="-8.018263707234357"><ele>330.5</ele><time>2026-03-28T14:10:30.999Z</time></trkpt><trkpt lat="42.40936027818445" lon="-8.018335178229188"><ele>331.0</ele><time>2026-03-28T14:10:31.999Z</time></trkpt><trkpt lat="42.40947387179561" lon="-8.018393738237922"><ele>331.75</ele><time>2026-03-28T14:10:32.999Z</time></trkpt><trkpt lat="42.40958846226211" lon="-8.018461992703607"><ele>332.5</ele><time>2026-03-28T14:10:33.999Z</time></trkpt><trkpt lat="42.40969293551845" lon="-8.0185400645872"><ele>333.25</ele><time>2026-03-28T14:10:34.999Z</time></trkpt><trkpt lat="42.40979685587343" lon="-8.018639454920129"><ele>334.0</ele><time>2026-03-28T14:10:35.999Z</time></trkpt><trkpt lat="42.40988322686308" lon="-8.018699147607906"><ele>335.0</ele><time>2026-03-28T14:10:36.999Z</time></trkpt><trkpt lat="42.40996585908693" lon="-8.018786010226368"><ele>336.0</ele><time>2026-03-28T14:10:37.999Z</time></trkpt><trkpt lat="42.41001780752906" lon="-8.018897428394844"><ele>337.0</ele><time>2026-03-28T14:10:38.999Z</time></trkpt><trkpt lat="42.41002910981908" lon="-8.019017300704057"><ele>338.0</ele><time>2026-03-28T14:10:39.999Z</time></trkpt><trkpt lat="42.41001740589197" lon="-8.019136275428158"><ele>339.0</ele><time>2026-03-28T14:10:40.999Z</time></trkpt><trkpt lat="42.40997308066042" lon="-8.019245575173441"><ele>339.4</ele><time>2026-03-28T14:10:41.999Z</time></trkpt><trkpt lat="42.40990388830193" lon="-8.019340159030028"><ele>339.79999999999995</ele><time>2026-03-28T14:10:42.999Z</time></trkpt><trkpt lat="42.40985056902212" lon="-8.019418306255096"><ele>340.20000000000005</ele><time>2026-03-28T14:10:43.999Z</time></trkpt><trkpt lat="42.40974170787191" lon="-8.019445050207606"><ele>340.6</ele><time>2026-03-28T14:10:44.999Z</time></trkpt><trkpt lat="42.40964212759003" lon="-8.019496775515746"><ele>341.0</ele><time>2026-03-28T14:10:45.999Z</time></trkpt><trkpt lat="42.40954904762657" lon="-8.019572363010639"><ele>340.0</ele><time>2026-03-28T14:10:46.999Z</time></trkpt><trkpt lat="42.409458740676506" lon="-8.01970135075653"><ele>339.0</ele><time>2026-03-28T14:10:47.999Z</time></trkpt><trkpt lat="42.40936766423871" lon="-8.019765257435838"><ele>338.0</ele><time>2026-03-28T14:10:48.999Z</time></trkpt><trkpt lat="42.40925926320109" lon="-8.019808790323394"><ele>337.0</ele><time>2026-03-28T14:10:49.999Z</time></trkpt><trkpt lat="42.40913517774151" lon="-8.019850868625351"><ele>337.0</ele><time>2026-03-28T14:10:50.999Z</time></trkpt><trkpt lat="42.40899551693926" lon="-8.019859404796462"><ele>337.0</ele><time>2026-03-28T14:10:51.999Z</time></trkpt><trkpt lat="42.408850612411925" lon="-8.01988933481618"><ele>337.0</ele><time>2026-03-28T14:10:52.999Z</time></trkpt><trkpt lat="42.40870429391712" lon="-8.01992872615527"><ele>337.0</ele><time>2026-03-28T14:10:53.999Z</time></trkpt><trkpt lat="42.40854843920736" lon="-8.019993461516055"><ele>335.66666666666663</ele><time>2026-03-28T14:10:54.999Z</time></trkpt><trkpt lat="42.40840618117028" lon="-8.0200931168415"><ele>334.3333333333333</ele><time>2026-03-28T14:10:55.999Z</time></trkpt><trkpt lat="42.40826184013775" lon="-8.020226225592014"><ele>333.0</ele><time>2026-03-28T14:10:56.999Z</time></trkpt><trkpt lat="42.40813587294744" lon="-8.020388682493614"><ele>333.0</ele><time>2026-03-28T14:10:57.999Z</time></trkpt><trkpt lat="42.40802827005594" lon="-8.020597551854587"><ele>333.0</ele><time>2026-03-28T14:10:58.999Z</time></trkpt><trkpt lat="42.40795208318181" lon="-8.020822315686173"><ele>333.0</ele><time>2026-03-28T14:10:59.999Z</time></trkpt><trkpt lat="42.4079067025068" lon="-8.021078434510041"><ele>333.0</ele><time>2026-03-28T14:11:00.999Z</time></trkpt><trkpt lat="42.40788764388187" lon="-8.021344902498495"><ele>333.0</ele><time>2026-03-28T14:11:01.999Z</time></trkpt><trkpt lat="42.40791105980193" lon="-8.021612336554474"><ele>333.0</ele><time>2026-03-28T14:11:02.999Z</time></trkpt><trkpt lat="42.407949919880174" lon="-8.021870063963744"><ele>335.0</ele><time>2026-03-28T14:11:03.999Z</time></trkpt><trkpt lat="42.40801495972568" lon="-8.022117790429139"><ele>337.0</ele><time>2026-03-28T14:11:04.999Z</time></trkpt><trkpt lat="42.408087410801954" lon="-8.022356335539419"><ele>339.0</ele><time>2026-03-28T14:11:05.999Z</time></trkpt><trkpt lat="42.40813456630432" lon="-8.02257765240817"><ele>339.6</ele><time>2026-03-28T14:11:06.999Z</time></trkpt><trkpt lat="42.408171324220596" lon="-8.022749402997187"><ele>340.2</ele><time>2026-03-28T14:11:07.999Z</time></trkpt><trkpt lat="42.40819726686756" lon="-8.022863522840472"><ele>340.8</ele><time>2026-03-28T14:11:08.999Z</time></trkpt><trkpt lat="42.40823371541833" lon="-8.02299672132947"><ele>341.40000000000003</ele><time>2026-03-28T14:11:10.999Z</time></trkpt><trkpt lat="42.40815495940215" lon="-8.02296047906708"><ele>342.0</ele><time>2026-03-28T14:11:13.999Z</time></trkpt><trkpt lat="42.40812804908074" lon="-8.022795571392518"><ele>342.0</ele><time>2026-03-28T14:11:15.999Z</time></trkpt><trkpt lat="42.408201957842806" lon="-8.022709997241007"><ele>342.0</ele><time>2026-03-28T14:11:17.999Z</time></trkpt><trkpt lat="42.408286007036935" lon="-8.022737882796878"><ele>342.0</ele><time>2026-03-28T14:11:19.999Z</time></trkpt><trkpt lat="42.40834356846835" lon="-8.022781372825401"><ele>342.0</ele><time>2026-03-28T14:11:21.999Z</time></trkpt><trkpt lat="42.408431756878315" lon="-8.022876019631163"><ele>342.0</ele><time>2026-03-28T14:11:23.999Z</time></trkpt><trkpt lat="42.408487724093135" lon="-8.02292525211519"><ele>342.0</ele><time>2026-03-28T14:11:24.999Z</time></trkpt><trkpt lat="42.40854107611034" lon="-8.022978594692733"><ele>342.0</ele><time>2026-03-28T14:11:25.999Z</time></trkpt><trkpt lat="42.40862142922511" lon="-8.023063362229552"><ele>342.0</ele><time>2026-03-28T14:11:27.999Z</time></trkpt><trkpt lat="42.40868543449148" lon="-8.023134988583706"><ele>342.0</ele><time>2026-03-28T14:11:29.999Z</time></trkpt><trkpt lat="42.40879717391341" lon="-8.023198182154504"><ele>342.0</ele><time>2026-03-28T14:11:31.999Z</time></trkpt><trkpt lat="42.4089296464375" lon="-8.023196757817317"><ele>342.0</ele><time>2026-03-28T14:11:33.999Z</time></trkpt><trkpt lat="42.409015764226965" lon="-8.023194594850105"><ele>343.40000000000003</ele><time>2026-03-28T14:11:34.999Z</time></trkpt><trkpt lat="42.4091251262463" lon="-8.023187798349714"><ele>344.8</ele><time>2026-03-28T14:11:35.999Z</time></trkpt><trkpt lat="42.40922901109437" lon="-8.02317818064565"><ele>346.2</ele><time>2026-03-28T14:11:36.999Z</time></trkpt><trkpt lat="42.409335845884" lon="-8.02316566237881"><ele>347.6</ele><time>2026-03-28T14:11:37.999Z</time></trkpt><trkpt lat="42.40944856514175" lon="-8.023148917883473"><ele>349.0</ele><time>2026-03-28T14:11:38.999Z</time></trkpt><trkpt lat="42.40954584410005" lon="-8.023128123089112"><ele>349.0</ele><time>2026-03-28T14:11:39.999Z</time></trkpt><trkpt lat="42.40963993511655" lon="-8.023057693965882"><ele>349.0</ele><time>2026-03-28T14:11:40.999Z</time></trkpt><trkpt lat="42.409727290255724" lon="-8.0230287057684"><ele>349.0</ele><time>2026-03-28T14:11:41.999Z</time></trkpt><trkpt lat="42.40981298580617" lon="-8.023005668401908"><ele>349.0</ele><time>2026-03-28T14:11:42.999Z</time></trkpt><trkpt lat="42.40990243909816" lon="-8.022989688220866"><ele>349.0</ele><time>2026-03-28T14:11:43.999Z</time></trkpt><trkpt lat="42.40997979023217" lon="-8.022988848339155"><ele>350.5</ele><time>2026-03-28T14:11:44.999Z</time></trkpt><trkpt lat="42.410056924407655" lon="-8.02301999549937"><ele>352.0</ele><time>2026-03-28T14:11:45.999Z</time></trkpt><trkpt lat="42.41014018309328" lon="-8.02304776410415"><ele>353.5</ele><time>2026-03-28T14:11:46.999Z</time></trkpt><trkpt lat="42.41022401078635" lon="-8.0230802627272"><ele>355.0</ele><time>2026-03-28T14:11:47.999Z</time></trkpt><trkpt lat="42.410321486903754" lon="-8.023111610955226"><ele>356.5</ele><time>2026-03-28T14:11:48.999Z</time></trkpt><trkpt lat="42.41040889862628" lon="-8.023160659265441"><ele>358.0</ele><time>2026-03-28T14:11:49.999Z</time></trkpt><trkpt lat="42.410496665996185" lon="-8.023201771641487"><ele>358.79999999999995</ele><time>2026-03-28T14:11:50.999Z</time></trkpt><trkpt lat="42.41059537862201" lon="-8.023277466056461"><ele>359.6</ele><time>2026-03-28T14:11:51.999Z</time></trkpt><trkpt lat="42.41068542733931" lon="-8.02333555218916"><ele>360.4</ele><time>2026-03-28T14:11:52.999Z</time></trkpt><trkpt lat="42.410771751940665" lon="-8.023395264364348"><ele>361.20000000000005</ele><time>2026-03-28T14:11:53.999Z</time></trkpt><trkpt lat="42.41085321505007" lon="-8.023466181949374"><ele>362.0</ele><time>2026-03-28T14:11:54.999Z</time></trkpt><trkpt lat="42.41092908529505" lon="-8.023511733142232"><ele>362.83333333333337</ele><time>2026-03-28T14:11:55.999Z</time></trkpt><trkpt lat="42.411004742579934" lon="-8.023564522096487"><ele>363.6666666666667</ele><time>2026-03-28T14:11:56.999Z</time></trkpt><trkpt lat="42.411070534965496" lon="-8.023588895250544"><ele>364.5</ele><time>2026-03-28T14:11:57.999Z</time></trkpt><trkpt lat="42.41113695080039" lon="-8.023617896810872"><ele>365.3333333333333</ele><time>2026-03-28T14:11:58.999Z</time></trkpt><trkpt lat="42.41121502631654" lon="-8.023603502944594"><ele>366.16666666666663</ele><time>2026-03-28T14:12:00.999Z</time></trkpt><trkpt lat="42.41129316522233" lon="-8.023572086711685"><ele>367.0</ele><time>2026-03-28T14:12:02.999Z</time></trkpt><trkpt lat="42.41135899273503" lon="-8.02359078519079"><ele>367.0</ele><time>2026-03-28T14:12:04.999Z</time></trkpt><trkpt lat="42.411438876149234" lon="-8.023576992091757"><ele>367.0</ele><time>2026-03-28T14:12:06.999Z</time></trkpt><trkpt lat="42.411508807121145" lon="-8.023551567083908"><ele>367.0</ele><time>2026-03-28T14:12:09.999Z</time></trkpt><trkpt lat="42.411580943150966" lon="-8.02349002249858"><ele>367.0</ele><time>2026-03-28T14:12:11.999Z</time></trkpt><trkpt lat="42.41160600688249" lon="-8.023702174296956"><ele>367.0</ele><time>2026-03-28T14:12:12.999Z</time></trkpt><trkpt lat="42.411615389694624" lon="-8.023816739122074"><ele>367.0</ele><time>2026-03-28T14:12:13.999Z</time></trkpt><trkpt lat="42.411615164524704" lon="-8.023940578721536"><ele>367.0</ele><time>2026-03-28T14:12:14.999Z</time></trkpt><trkpt lat="42.41161724842694" lon="-8.024068730710315"><ele>367.0</ele><time>2026-03-28T14:12:15.999Z</time></trkpt><trkpt lat="42.41162629930814" lon="-8.024216699689605"><ele>367.0</ele><time>2026-03-28T14:12:16.999Z</time></trkpt><trkpt lat="42.41162682406158" lon="-8.02436790918796"><ele>367.0</ele><time>2026-03-28T14:12:17.999Z</time></trkpt><trkpt lat="42.41164442223747" lon="-8.02452046081085"><ele>368.75</ele><time>2026-03-28T14:12:18.999Z</time></trkpt><trkpt lat="42.411662510102296" lon="-8.02468310980237"><ele>370.5</ele><time>2026-03-28T14:12:19.999Z</time></trkpt><trkpt lat="42.411670799768" lon="-8.024863798492593"><ele>372.25</ele><time>2026-03-28T14:12:20.999Z</time></trkpt><trkpt lat="42.41170171491983" lon="-8.025023175105444"><ele>374.0</ele><time>2026-03-28T14:12:21.999Z</time></trkpt><trkpt lat="42.4117452866055" lon="-8.025192848074559"><ele>374.75</ele><time>2026-03-28T14:12:22.999Z</time></trkpt><trkpt lat="42.411806261671245" lon="-8.025358438398587"><ele>375.5</ele><time>2026-03-28T14:12:23.999Z</time></trkpt><trkpt lat="42.41187277368574" lon="-8.025516443799154"><ele>376.25</ele><time>2026-03-28T14:12:24.999Z</time></trkpt><trkpt lat="42.4119352985894" lon="-8.025680678955007"><ele>377.0</ele><time>2026-03-28T14:12:25.999Z</time></trkpt><trkpt lat="42.41199797101782" lon="-8.025841122119209"><ele>378.25</ele><time>2026-03-28T14:12:26.999Z</time></trkpt><trkpt lat="42.41206213437346" lon="-8.026005641307538"><ele>379.5</ele><time>2026-03-28T14:12:27.999Z</time></trkpt><trkpt lat="42.41211994283674" lon="-8.026169903130475"><ele>380.75</ele><time>2026-03-28T14:12:28.999Z</time></trkpt><trkpt lat="42.41217776289216" lon="-8.026341285353963"><ele>382.0</ele><time>2026-03-28T14:12:29.999Z</time></trkpt><trkpt lat="42.41224598810969" lon="-8.026505503481555"><ele>383.5</ele><time>2026-03-28T14:12:30.999Z</time></trkpt><trkpt lat="42.41228776844506" lon="-8.02668839371172"><ele>385.0</ele><time>2026-03-28T14:12:31.999Z</time></trkpt><trkpt lat="42.412343078778186" lon="-8.026863725729923"><ele>386.5</ele><time>2026-03-28T14:12:32.999Z</time></trkpt><trkpt lat="42.41237862753135" lon="-8.02704224291254"><ele>388.0</ele><time>2026-03-28T14:12:33.999Z</time></trkpt><trkpt lat="42.41241785712877" lon="-8.027222018275149"><ele>388.0</ele><time>2026-03-28T14:12:34.999Z</time></trkpt><trkpt lat="42.41243657230687" lon="-8.02738925117464"><ele>388.0</ele><time>2026-03-28T14:12:35.999Z</time></trkpt><trkpt lat="42.412468810926605" lon="-8.027534948861641"><ele>388.0</ele><time>2026-03-28T14:12:36.999Z</time></trkpt><trkpt lat="42.41250285947585" lon="-8.027688318815228"><ele>388.0</ele><time>2026-03-28T14:12:37.999Z</time></trkpt><trkpt lat="42.412505690874916" lon="-8.027854837157287"><ele>389.0</ele><time>2026-03-28T14:12:38.999Z</time></trkpt><trkpt lat="42.412518649749195" lon="-8.028018697276613"><ele>390.0</ele><time>2026-03-28T14:12:39.999Z</time></trkpt><trkpt lat="42.41251998632563" lon="-8.028203421364452"><ele>391.0</ele><time>2026-03-28T14:12:40.999Z</time></trkpt><trkpt lat="42.41252953731135" lon="-8.028392987239496"><ele>392.0</ele><time>2026-03-28T14:12:41.999Z</time></trkpt><trkpt lat="42.412529762462775" lon="-8.02858700959312"><ele>392.75</ele><time>2026-03-28T14:12:42.999Z</time></trkpt><trkpt lat="42.41253319592223" lon="-8.028778461621075"><ele>393.5</ele><time>2026-03-28T14:12:43.999Z</time></trkpt><trkpt lat="42.412523240532956" lon="-8.02897026808413"><ele>394.25</ele><time>2026-03-28T14:12:44.999Z</time></trkpt><trkpt lat="42.41255812735136" lon="-8.029170963759844"><ele>395.0</ele><time>2026-03-28T14:12:45.999Z</time></trkpt><trkpt lat="42.41261955428118" lon="-8.02935881738662"><ele>395.5</ele><time>2026-03-28T14:12:46.999Z</time></trkpt><trkpt lat="42.41267651848455" lon="-8.029542473972791"><ele>396.0</ele><time>2026-03-28T14:12:47.999Z</time></trkpt><trkpt lat="42.41272593472974" lon="-8.02972675969697"><ele>396.5</ele><time>2026-03-28T14:12:48.999Z</time></trkpt><trkpt lat="42.41278419449281" lon="-8.029922251507521"><ele>397.0</ele><time>2026-03-28T14:12:49.999Z</time></trkpt><trkpt lat="42.41282910125141" lon="-8.030104872788554"><ele>398.0</ele><time>2026-03-28T14:12:50.999Z</time></trkpt><trkpt lat="42.41284907564508" lon="-8.030323235415008"><ele>399.0</ele><time>2026-03-28T14:12:51.999Z</time></trkpt><trkpt lat="42.41286797960326" lon="-8.030529411496785"><ele>400.0</ele><time>2026-03-28T14:12:52.999Z</time></trkpt><trkpt lat="42.412885193759436" lon="-8.030738116608317"><ele>401.0</ele><time>2026-03-28T14:12:53.999Z</time></trkpt><trkpt lat="42.4129098733628" lon="-8.030942202437064"><ele>402.0</ele><time>2026-03-28T14:12:54.999Z</time></trkpt><trkpt lat="42.41292963717083" lon="-8.031156330905489"><ele>403.0</ele><time>2026-03-28T14:12:55.999Z</time></trkpt><trkpt lat="42.41297054203009" lon="-8.031366273068784"><ele>404.33333333333337</ele><time>2026-03-28T14:12:56.999Z</time></trkpt><trkpt lat="42.41306052734106" lon="-8.031544716795233"><ele>405.66666666666663</ele><time>2026-03-28T14:12:57.999Z</time></trkpt><trkpt lat="42.41315150826918" lon="-8.03170104522005"><ele>407.0</ele><time>2026-03-28T14:12:58.999Z</time></trkpt><trkpt lat="42.41325992213649" lon="-8.031842225702807"><ele>407.3333333333333</ele><time>2026-03-28T14:12:59.999Z</time></trkpt><trkpt lat="42.4133719581752" lon="-8.031996232415048"><ele>407.66666666666663</ele><time>2026-03-28T14:13:00.999Z</time></trkpt><trkpt lat="42.41348617396837" lon="-8.032156329055745"><ele>408.0</ele><time>2026-03-28T14:13:01.999Z</time></trkpt><trkpt lat="42.413578361540154" lon="-8.032284192465772"><ele>408.0</ele><time>2026-03-28T14:13:02.999Z</time></trkpt><trkpt lat="42.41366033285488" lon="-8.032416481484777"><ele>408.0</ele><time>2026-03-28T14:13:03.999Z</time></trkpt><trkpt lat="42.41373836050731" lon="-8.032533825604022"><ele>408.0</ele><time>2026-03-28T14:13:04.999Z</time></trkpt><trkpt lat="42.41380159128629" lon="-8.03260514754981"><ele>408.0</ele><time>2026-03-28T14:13:05.999Z</time></trkpt><trkpt lat="42.41389301666327" lon="-8.032612689025363"><ele>408.0</ele><time>2026-03-28T14:13:06.999Z</time></trkpt><trkpt lat="42.413969704054665" lon="-8.03258669527402"><ele>410.25</ele><time>2026-03-28T14:13:07.999Z</time></trkpt><trkpt lat="42.41405896830548" lon="-8.032563812617937"><ele>412.5</ele><time>2026-03-28T14:13:09.999Z</time></trkpt><trkpt lat="42.414114887157275" lon="-8.03279140418131"><ele>414.75</ele><time>2026-03-28T14:13:10.999Z</time></trkpt><trkpt lat="42.414139939237465" lon="-8.032933943365196"><ele>417.0</ele><time>2026-03-28T14:13:11.999Z</time></trkpt><trkpt lat="42.41416934371415" lon="-8.033066826406182"><ele>417.0</ele><time>2026-03-28T14:13:12.999Z</time></trkpt><trkpt lat="42.41422364067599" lon="-8.033192788635588"><ele>417.0</ele><time>2026-03-28T14:13:13.999Z</time></trkpt><trkpt lat="42.414301117650545" lon="-8.033321671566656"><ele>417.0</ele><time>2026-03-28T14:13:14.999Z</time></trkpt><trkpt lat="42.4143794500933" lon="-8.03344309712"><ele>417.0</ele><time>2026-03-28T14:13:15.999Z</time></trkpt><trkpt lat="42.41444426378933" lon="-8.033583633261474"><ele>417.5</ele><time>2026-03-28T14:13:16.999Z</time></trkpt><trkpt lat="42.41451064316985" lon="-8.03373005854908"><ele>418.0</ele><time>2026-03-28T14:13:17.999Z</time></trkpt><trkpt lat="42.41458552186117" lon="-8.033876394589372"><ele>418.5</ele><time>2026-03-28T14:13:18.999Z</time></trkpt><trkpt lat="42.414657321078955" lon="-8.034013013345959"><ele>419.0</ele><time>2026-03-28T14:13:19.999Z</time></trkpt><trkpt lat="42.41472555996336" lon="-8.03416144103492"><ele>421.0</ele><time>2026-03-28T14:13:20.999Z</time></trkpt><trkpt lat="42.41480682930656" lon="-8.034297500914217"><ele>423.0</ele><time>2026-03-28T14:13:21.999Z</time></trkpt><trkpt lat="42.414891824362094" lon="-8.034446029481394"><ele>425.0</ele><time>2026-03-28T14:13:22.999Z</time></trkpt><trkpt lat="42.41497009285599" lon="-8.034599890282209"><ele>427.0</ele><time>2026-03-28T14:13:23.999Z</time></trkpt><trkpt lat="42.41504618451974" lon="-8.034751961271246"><ele>427.0</ele><time>2026-03-28T14:13:24.999Z</time></trkpt><trkpt lat="42.41512764281232" lon="-8.03491309054715"><ele>427.0</ele><time>2026-03-28T14:13:25.999Z</time></trkpt><trkpt lat="42.4152104034777" lon="-8.035070338889973"><ele>427.0</ele><time>2026-03-28T14:13:26.999Z</time></trkpt><trkpt lat="42.41528490919611" lon="-8.035237048495926"><ele>427.0</ele><time>2026-03-28T14:13:27.999Z</time></trkpt><trkpt lat="42.415364008304316" lon="-8.035410680271653"><ele>427.75</ele><time>2026-03-28T14:13:29Z</time></trkpt><trkpt lat="42.41543021351676" lon="-8.035582244036542"><ele>428.5</ele><time>2026-03-28T14:13:30Z</time></trkpt><trkpt lat="42.41550240953633" lon="-8.035758992760458"><ele>429.25</ele><time>2026-03-28T14:13:31Z</time></trkpt><trkpt lat="42.415582380484" lon="-8.03593461325696"><ele>430.0</ele><time>2026-03-28T14:13:32Z</time></trkpt><trkpt lat="42.41567861170582" lon="-8.036108807801766"><ele>431.6666666666667</ele><time>2026-03-28T14:13:33Z</time></trkpt><trkpt lat="42.415775000458346" lon="-8.03627666842139"><ele>433.33333333333337</ele><time>2026-03-28T14:13:34Z</time></trkpt><trkpt lat="42.41588258508713" lon="-8.036442118799526"><ele>435.0</ele><time>2026-03-28T14:13:35Z</time></trkpt><trkpt lat="42.41599475004615" lon="-8.036611676068821"><ele>434.66666666666663</ele><time>2026-03-28T14:13:36Z</time></trkpt><trkpt lat="42.41611783291223" lon="-8.036779538073594"><ele>434.3333333333333</ele><time>2026-03-28T14:13:37Z</time></trkpt><trkpt lat="42.416247214296156" lon="-8.036950138692688"><ele>434.0</ele><time>2026-03-28T14:13:38Z</time></trkpt><trkpt lat="42.41637304190797" lon="-8.037125717693973"><ele>434.0</ele><time>2026-03-28T14:13:39Z</time></trkpt><trkpt lat="42.416508056481184" lon="-8.03731183206074"><ele>434.0</ele><time>2026-03-28T14:13:40Z</time></trkpt><trkpt lat="42.41665000241549" lon="-8.037502740791789"><ele>434.0</ele><time>2026-03-28T14:13:41Z</time></trkpt><trkpt lat="42.4167926198232" lon="-8.037703122863254"><ele>432.66666666666663</ele><time>2026-03-28T14:13:42Z</time></trkpt><trkpt lat="42.41692367978106" lon="-8.037913275464112"><ele>431.33333333333337</ele><time>2026-03-28T14:13:43Z</time></trkpt><trkpt lat="42.41704192109627" lon="-8.038107682843552"><ele>430.0</ele><time>2026-03-28T14:13:44Z</time></trkpt><trkpt lat="42.417151051916626" lon="-8.038319823550843"><ele>428.6666666666667</ele><time>2026-03-28T14:13:45Z</time></trkpt><trkpt lat="42.41724334912668" lon="-8.038528457162153"><ele>427.33333333333337</ele><time>2026-03-28T14:13:46Z</time></trkpt><trkpt lat="42.41731995243505" lon="-8.038756154512464"><ele>426.0</ele><time>2026-03-28T14:13:47Z</time></trkpt><trkpt lat="42.4173880953841" lon="-8.038971497333453"><ele>424.33333333333337</ele><time>2026-03-28T14:13:48Z</time></trkpt><trkpt lat="42.41744986453473" lon="-8.039209126717273"><ele>422.6666666666667</ele><time>2026-03-28T14:13:49Z</time></trkpt><trkpt lat="42.41752227578319" lon="-8.039443806654965"><ele>421.0</ele><time>2026-03-28T14:13:50Z</time></trkpt><trkpt lat="42.417594754551814" lon="-8.039665379475473"><ele>421.0</ele><time>2026-03-28T14:13:51Z</time></trkpt><trkpt lat="42.41766854016209" lon="-8.039894669448707"><ele>421.0</ele><time>2026-03-28T14:13:52Z</time></trkpt><trkpt lat="42.417741704343875" lon="-8.040127685752577"><ele>421.0</ele><time>2026-03-28T14:13:53Z</time></trkpt><trkpt lat="42.41783306828456" lon="-8.040342528849644"><ele>420.33333333333337</ele><time>2026-03-28T14:13:54Z</time></trkpt><trkpt lat="42.41795404294794" lon="-8.040535704960634"><ele>419.66666666666663</ele><time>2026-03-28T14:13:55Z</time></trkpt><trkpt lat="42.41809849392561" lon="-8.040693001065057"><ele>419.0</ele><time>2026-03-28T14:13:56Z</time></trkpt><trkpt lat="42.418252496587186" lon="-8.040841252412408"><ele>419.0</ele><time>2026-03-28T14:13:57Z</time></trkpt><trkpt lat="42.418401763900285" lon="-8.040990648094539"><ele>419.0</ele><time>2026-03-28T14:13:58Z</time></trkpt><trkpt lat="42.4185430091269" lon="-8.041133990196968"><ele>419.0</ele><time>2026-03-28T14:13:59Z</time></trkpt><trkpt lat="42.41869775283659" lon="-8.041265637665125"><ele>419.3333333333333</ele><time>2026-03-28T14:14:00Z</time></trkpt><trkpt lat="42.41885413394318" lon="-8.041388676522164"><ele>419.66666666666663</ele><time>2026-03-28T14:14:01Z</time></trkpt><trkpt lat="42.41903078491067" lon="-8.041462510029366"><ele>420.0</ele><time>2026-03-28T14:14:02Z</time></trkpt><trkpt lat="42.41920221751679" lon="-8.04154012749817"><ele>420.0</ele><time>2026-03-28T14:14:03Z</time></trkpt><trkpt lat="42.41940220231253" lon="-8.041589339866576"><ele>420.0</ele><time>2026-03-28T14:14:04Z</time></trkpt><trkpt lat="42.41957865990511" lon="-8.041599499001443"><ele>420.0</ele><time>2026-03-28T14:14:05Z</time></trkpt><trkpt lat="42.4197712716912" lon="-8.041666058731842"><ele>417.66666666666663</ele><time>2026-03-28T14:14:06Z</time></trkpt><trkpt lat="42.41996400235787" lon="-8.041767008780939"><ele>415.3333333333333</ele><time>2026-03-28T14:14:07Z</time></trkpt><trkpt lat="42.42015793126271" lon="-8.041854250956955"><ele>413.0</ele><time>2026-03-28T14:14:08Z</time></trkpt><trkpt lat="42.42035372201755" lon="-8.041946448257642"><ele>413.66666666666663</ele><time>2026-03-28T14:14:09Z</time></trkpt><trkpt lat="42.42054638481205" lon="-8.042065165189229"><ele>414.33333333333337</ele><time>2026-03-28T14:14:10Z</time></trkpt><trkpt lat="42.42073295147741" lon="-8.042207291681898"><ele>415.0</ele><time>2026-03-28T14:14:11Z</time></trkpt><trkpt lat="42.42091122178012" lon="-8.042376112204872"><ele>414.33333333333337</ele><time>2026-03-28T14:14:12Z</time></trkpt><trkpt lat="42.42108175694625" lon="-8.042560874772146"><ele>413.66666666666663</ele><time>2026-03-28T14:14:13Z</time></trkpt><trkpt lat="42.421245016724725" lon="-8.042754237882535"><ele>413.0</ele><time>2026-03-28T14:14:14Z</time></trkpt><trkpt lat="42.4213878339497" lon="-8.042972997126595"><ele>413.0</ele><time>2026-03-28T14:14:15Z</time></trkpt><trkpt lat="42.42152040288484" lon="-8.043200867243009"><ele>413.0</ele><time>2026-03-28T14:14:16Z</time></trkpt><trkpt lat="42.421653156191425" lon="-8.043434574604042"><ele>413.0</ele><time>2026-03-28T14:14:17Z</time></trkpt><trkpt lat="42.42177558941841" lon="-8.043663403307475"><ele>411.66666666666663</ele><time>2026-03-28T14:14:18Z</time></trkpt><trkpt lat="42.42190025757282" lon="-8.043893217300838"><ele>410.33333333333337</ele><time>2026-03-28T14:14:19Z</time></trkpt><trkpt lat="42.422016757124894" lon="-8.044130693833388"><ele>409.0</ele><time>2026-03-28T14:14:20Z</time></trkpt><trkpt lat="42.422109229403524" lon="-8.044375548831546"><ele>411.6666666666667</ele><time>2026-03-28T14:14:21Z</time></trkpt><trkpt lat="42.42216412448066" lon="-8.04462737480095"><ele>414.33333333333337</ele><time>2026-03-28T14:14:22Z</time></trkpt><trkpt lat="42.4221855336517" lon="-8.044896086804867"><ele>417.0</ele><time>2026-03-28T14:14:23Z</time></trkpt><trkpt lat="42.42216706347055" lon="-8.045160796325503"><ele>416.0</ele><time>2026-03-28T14:14:24Z</time></trkpt><trkpt lat="42.42211070340059" lon="-8.045429450473042"><ele>415.0</ele><time>2026-03-28T14:14:25Z</time></trkpt><trkpt lat="42.4220443825826" lon="-8.045689492744442"><ele>414.0</ele><time>2026-03-28T14:14:26Z</time></trkpt><trkpt lat="42.42198610643517" lon="-8.045938109660192"><ele>414.0</ele><time>2026-03-28T14:14:27Z</time></trkpt><trkpt lat="42.42195685181814" lon="-8.046216438879624"><ele>414.0</ele><time>2026-03-28T14:14:28Z</time></trkpt><trkpt lat="42.421961377982186" lon="-8.046491692429658"><ele>414.0</ele><time>2026-03-28T14:14:29Z</time></trkpt><trkpt lat="42.42198436001673" lon="-8.0467611954608"><ele>414.66666666666663</ele><time>2026-03-28T14:14:30Z</time></trkpt><trkpt lat="42.422016201856565" lon="-8.047027492166476"><ele>415.3333333333333</ele><time>2026-03-28T14:14:31Z</time></trkpt><trkpt lat="42.42204272089308" lon="-8.047261589059561"><ele>416.0</ele><time>2026-03-28T14:14:32Z</time></trkpt><trkpt lat="42.42206261243834" lon="-8.047468653328858"><ele>416.0</ele><time>2026-03-28T14:14:33Z</time></trkpt><trkpt lat="42.422073152122024" lon="-8.047682685384935"><ele>416.0</ele><time>2026-03-28T14:14:34Z</time></trkpt><trkpt lat="42.42208641336215" lon="-8.047878292968994"><ele>416.0</ele><time>2026-03-28T14:14:35Z</time></trkpt><trkpt lat="42.42210013735019" lon="-8.048057726778245"><ele>416.0</ele><time>2026-03-28T14:14:36Z</time></trkpt><trkpt lat="42.42211996580477" lon="-8.04822825831434"><ele>416.6</ele><time>2026-03-28T14:14:37Z</time></trkpt><trkpt lat="42.4221265371317" lon="-8.048391475666115"><ele>417.20000000000005</ele><time>2026-03-28T14:14:38Z</time></trkpt><trkpt lat="42.422139031298464" lon="-8.048539985913447"><ele>417.79999999999995</ele><time>2026-03-28T14:14:39Z</time></trkpt><trkpt lat="42.42215010238415" lon="-8.048684096572853"><ele>418.4</ele><time>2026-03-28T14:14:39.999Z</time></trkpt><trkpt lat="42.42216207454722" lon="-8.048813385391018"><ele>419.0</ele><time>2026-03-28T14:14:40.999Z</time></trkpt><trkpt lat="42.42216966626226" lon="-8.048933222654624"><ele>420.6</ele><time>2026-03-28T14:14:41.999Z</time></trkpt><trkpt lat="42.42219014478739" lon="-8.049057660848272"><ele>422.2</ele><time>2026-03-28T14:14:42.999Z</time></trkpt><trkpt lat="42.422190768232696" lon="-8.049202836068917"><ele>423.80000000000007</ele><time>2026-03-28T14:14:43.999Z</time></trkpt><trkpt lat="42.42219978651043" lon="-8.0493627134546"><ele>425.40000000000003</ele><time>2026-03-28T14:14:44.999Z</time></trkpt><trkpt lat="42.422209678562304" lon="-8.049529447342882"><ele>427.0</ele><time>2026-03-28T14:14:45.999Z</time></trkpt><trkpt lat="42.42222549723277" lon="-8.049707404359292"><ele>427.0</ele><time>2026-03-28T14:14:46.999Z</time></trkpt><trkpt lat="42.42224127634815" lon="-8.049889481861998"><ele>427.0</ele><time>2026-03-28T14:14:47.999Z</time></trkpt><trkpt lat="42.42225184028292" lon="-8.050079240190303"><ele>427.0</ele><time>2026-03-28T14:14:48.999Z</time></trkpt><trkpt lat="42.422273895258634" lon="-8.050266853111244"><ele>427.0</ele><time>2026-03-28T14:14:49.999Z</time></trkpt><trkpt lat="42.42228288569645" lon="-8.050458071000548"><ele>427.0</ele><time>2026-03-28T14:14:50.999Z</time></trkpt><trkpt lat="42.42230863480896" lon="-8.05064500605084"><ele>427.0</ele><time>2026-03-28T14:14:51.999Z</time></trkpt><trkpt lat="42.42235821696676" lon="-8.050817791358375"><ele>427.0</ele><time>2026-03-28T14:14:52.999Z</time></trkpt><trkpt lat="42.42244514986735" lon="-8.050987771036105"><ele>427.0</ele><time>2026-03-28T14:14:53.999Z</time></trkpt><trkpt lat="42.422562821918994" lon="-8.051119554112613"><ele>427.0</ele><time>2026-03-28T14:14:54.999Z</time></trkpt><trkpt lat="42.422703820654874" lon="-8.051246173930814"><ele>427.0</ele><time>2026-03-28T14:14:55.999Z</time></trkpt><trkpt lat="42.42286968834696" lon="-8.051349625103022"><ele>427.0</ele><time>2026-03-28T14:14:56.999Z</time></trkpt><trkpt lat="42.42299541661627" lon="-8.0514931350773"><ele>425.0</ele><time>2026-03-28T14:14:57.999Z</time></trkpt><trkpt lat="42.42313155836999" lon="-8.05163310443589"><ele>423.0</ele><time>2026-03-28T14:14:58.999Z</time></trkpt><trkpt lat="42.42325139509172" lon="-8.051799914234204"><ele>421.0</ele><time>2026-03-28T14:14:59.999Z</time></trkpt><trkpt lat="42.42336378742705" lon="-8.051980345634599"><ele>421.0</ele><time>2026-03-28T14:15:00.999Z</time></trkpt><trkpt lat="42.42346038177476" lon="-8.052191601519189"><ele>421.0</ele><time>2026-03-28T14:15:01.999Z</time></trkpt><trkpt lat="42.42351837266417" lon="-8.052423236080898"><ele>421.0</ele><time>2026-03-28T14:15:02.999Z</time></trkpt><trkpt lat="42.42356471801121" lon="-8.05267094350341"><ele>420.0</ele><time>2026-03-28T14:15:03.999Z</time></trkpt><trkpt lat="42.423593003927564" lon="-8.052923381724483"><ele>419.0</ele><time>2026-03-28T14:15:04.999Z</time></trkpt><trkpt lat="42.4236110043658" lon="-8.053174645820771"><ele>418.0</ele><time>2026-03-28T14:15:05.999Z</time></trkpt><trkpt lat="42.42363874950302" lon="-8.05342240311685"><ele>418.0</ele><time>2026-03-28T14:15:06.999Z</time></trkpt><trkpt lat="42.423691537606146" lon="-8.053679042663633"><ele>418.0</ele><time>2026-03-28T14:15:07.999Z</time></trkpt><trkpt lat="42.42378139002897" lon="-8.053914472624685"><ele>418.0</ele><time>2026-03-28T14:15:08.999Z</time></trkpt><trkpt lat="42.4238830796234" lon="-8.054139595770048"><ele>419.0</ele><time>2026-03-28T14:15:09.999Z</time></trkpt><trkpt lat="42.42398230966416" lon="-8.054372461964126"><ele>420.0</ele><time>2026-03-28T14:15:10.999Z</time></trkpt><trkpt lat="42.42408858678373" lon="-8.0546042274941"><ele>421.0</ele><time>2026-03-28T14:15:11.999Z</time></trkpt><trkpt lat="42.42419335789822" lon="-8.054849792108373"><ele>420.0</ele><time>2026-03-28T14:15:12.999Z</time></trkpt><trkpt lat="42.4242885727334" lon="-8.055099837266257"><ele>419.0</ele><time>2026-03-28T14:15:13.999Z</time></trkpt><trkpt lat="42.42438763763497" lon="-8.055352962262466"><ele>418.0</ele><time>2026-03-28T14:15:14.999Z</time></trkpt><trkpt lat="42.42448224195537" lon="-8.055612218031591"><ele>418.33333333333337</ele><time>2026-03-28T14:15:15.999Z</time></trkpt><trkpt lat="42.42458019785133" lon="-8.055871819921302"><ele>418.66666666666663</ele><time>2026-03-28T14:15:16.999Z</time></trkpt><trkpt lat="42.42467647568521" lon="-8.056137206643932"><ele>419.0</ele><time>2026-03-28T14:15:17.999Z</time></trkpt><trkpt lat="42.42476134495663" lon="-8.0564093696055"><ele>418.0</ele><time>2026-03-28T14:15:18.999Z</time></trkpt><trkpt lat="42.42485210785877" lon="-8.056679487974577"><ele>417.0</ele><time>2026-03-28T14:15:19.999Z</time></trkpt><trkpt lat="42.42495219152134" lon="-8.056959290820531"><ele>416.0</ele><time>2026-03-28T14:15:20.999Z</time></trkpt><trkpt lat="42.42505889144543" lon="-8.057231537988912"><ele>414.0</ele><time>2026-03-28T14:15:21.999Z</time></trkpt><trkpt lat="42.42518711959989" lon="-8.057495569140102"><ele>412.0</ele><time>2026-03-28T14:15:22.999Z</time></trkpt><trkpt lat="42.42530458122844" lon="-8.05775756698448"><ele>412.0</ele><time>2026-03-28T14:15:23.999Z</time></trkpt><trkpt lat="42.42542858545879" lon="-8.058027955097915"><ele>412.0</ele><time>2026-03-28T14:15:24.999Z</time></trkpt><trkpt lat="42.425552082325474" lon="-8.058299198731932"><ele>409.5</ele><time>2026-03-28T14:15:25.999Z</time></trkpt><trkpt lat="42.42566387187807" lon="-8.05857470488872"><ele>407.0</ele><time>2026-03-28T14:15:26.999Z</time></trkpt><trkpt lat="42.42579088500228" lon="-8.058847095885667"><ele>407.5</ele><time>2026-03-28T14:15:27.999Z</time></trkpt><trkpt lat="42.4259219736468" lon="-8.059134836088939"><ele>408.0</ele><time>2026-03-28T14:15:28.999Z</time></trkpt><trkpt lat="42.426041368159794" lon="-8.059400946831351"><ele>408.0</ele><time>2026-03-28T14:15:29.999Z</time></trkpt><trkpt lat="42.42616693882923" lon="-8.059678014005836"><ele>408.0</ele><time>2026-03-28T14:15:31Z</time></trkpt><trkpt lat="42.426295282151955" lon="-8.059957103909554"><ele>405.5</ele><time>2026-03-28T14:15:32Z</time></trkpt><trkpt lat="42.42642485100033" lon="-8.060227658620777"><ele>403.0</ele><time>2026-03-28T14:15:33Z</time></trkpt><trkpt lat="42.42654093784687" lon="-8.060483608592849"><ele>403.0</ele><time>2026-03-28T14:15:34Z</time></trkpt><trkpt lat="42.426665574693416" lon="-8.060748968549486"><ele>403.0</ele><time>2026-03-28T14:15:35Z</time></trkpt><trkpt lat="42.42677992670886" lon="-8.061004322241558"><ele>401.33333333333337</ele><time>2026-03-28T14:15:36Z</time></trkpt><trkpt lat="42.42689343472716" lon="-8.061237232868324"><ele>399.66666666666663</ele><time>2026-03-28T14:15:37Z</time></trkpt><trkpt lat="42.427003575421324" lon="-8.061470712558044"><ele>398.0</ele><time>2026-03-28T14:15:38Z</time></trkpt><trkpt lat="42.42710916028747" lon="-8.061701431947897"><ele>395.3333333333333</ele><time>2026-03-28T14:15:39Z</time></trkpt><trkpt lat="42.42721145886169" lon="-8.061914207628087"><ele>392.66666666666663</ele><time>2026-03-28T14:15:40Z</time></trkpt><trkpt lat="42.42731051848269" lon="-8.062082092869664"><ele>390.0</ele><time>2026-03-28T14:15:41Z</time></trkpt><trkpt lat="42.42740966263026" lon="-8.06224987621473"><ele>390.0</ele><time>2026-03-28T14:15:42Z</time></trkpt><trkpt lat="42.427524327039784" lon="-8.062426765593916"><ele>390.0</ele><time>2026-03-28T14:15:43Z</time></trkpt><trkpt lat="42.42764997072878" lon="-8.062600155517874"><ele>390.0</ele><time>2026-03-28T14:15:44Z</time></trkpt><trkpt lat="42.42774655297448" lon="-8.062728325194586"><ele>390.0</ele><time>2026-03-28T14:15:45Z</time></trkpt><trkpt lat="42.42780894567929" lon="-8.06282842381773"><ele>390.0</ele><time>2026-03-28T14:15:46Z</time></trkpt><trkpt lat="42.42788921180845" lon="-8.062881913693833"><ele>390.0</ele><time>2026-03-28T14:15:47Z</time></trkpt><trkpt lat="42.42797170976289" lon="-8.062901139568156"><ele>390.0</ele><time>2026-03-28T14:15:48Z</time></trkpt><trkpt lat="42.42805937726152" lon="-8.062898135271285"><ele>390.0</ele><time>2026-03-28T14:15:49Z</time></trkpt><trkpt lat="42.42815825252244" lon="-8.062882973638848"><ele>390.0</ele><time>2026-03-28T14:15:50Z</time></trkpt><trkpt lat="42.428248132901466" lon="-8.062903103570793"><ele>390.0</ele><time>2026-03-28T14:15:51Z</time></trkpt><trkpt lat="42.42831743027027" lon="-8.062955807019696"><ele>390.0</ele><time>2026-03-28T14:15:52Z</time></trkpt><trkpt lat="42.428373139284425" lon="-8.063047984367198"><ele>390.0</ele><time>2026-03-28T14:15:53Z</time></trkpt><trkpt lat="42.42841718243339" lon="-8.06314300952208"><ele>390.0</ele><time>2026-03-28T14:15:54Z</time></trkpt><trkpt lat="42.42843865304797" lon="-8.063261248717494"><ele>390.0</ele><time>2026-03-28T14:15:55Z</time></trkpt><trkpt lat="42.42845221629979" lon="-8.063380883099102"><ele>389.8</ele><time>2026-03-28T14:15:56Z</time></trkpt><trkpt lat="42.428480280581724" lon="-8.063508661591266"><ele>389.6</ele><time>2026-03-28T14:15:57Z</time></trkpt><trkpt lat="42.42852543888383" lon="-8.063618568611687"><ele>389.4</ele><time>2026-03-28T14:15:58Z</time></trkpt><trkpt lat="42.42857219077337" lon="-8.06371494452965"><ele>389.2</ele><time>2026-03-28T14:15:59Z</time></trkpt><trkpt lat="42.42862146179688" lon="-8.063809464188008"><ele>389.0</ele><time>2026-03-28T14:16:00Z</time></trkpt><trkpt lat="42.4286708524954" lon="-8.063908759230669"><ele>389.0</ele><time>2026-03-28T14:16:01Z</time></trkpt><trkpt lat="42.42872727558914" lon="-8.064012181433943"><ele>389.0</ele><time>2026-03-28T14:16:02Z</time></trkpt><trkpt lat="42.42877660221721" lon="-8.064115345740968"><ele>389.0</ele><time>2026-03-28T14:16:03Z</time></trkpt><trkpt lat="42.42883210164897" lon="-8.064224473659207"><ele>389.0</ele><time>2026-03-28T14:16:04Z</time></trkpt><trkpt lat="42.42888112982324" lon="-8.064323455465097"><ele>389.0</ele><time>2026-03-28T14:16:05Z</time></trkpt><trkpt lat="42.42894346974299" lon="-8.064431031947434"><ele>389.6</ele><time>2026-03-28T14:16:06Z</time></trkpt><trkpt lat="42.42898117970056" lon="-8.064550950775526"><ele>390.2</ele><time>2026-03-28T14:16:07Z</time></trkpt><trkpt lat="42.42903304043847" lon="-8.064658256628876"><ele>390.8</ele><time>2026-03-28T14:16:08Z</time></trkpt><trkpt lat="42.429080287609125" lon="-8.06475282342855"><ele>391.40000000000003</ele><time>2026-03-28T14:16:09Z</time></trkpt><trkpt lat="42.42912555787604" lon="-8.064864162310103"><ele>392.0</ele><time>2026-03-28T14:16:10Z</time></trkpt><trkpt lat="42.42917019676756" lon="-8.064972261552294"><ele>392.0</ele><time>2026-03-28T14:16:11Z</time></trkpt><trkpt lat="42.42921793075555" lon="-8.065076745623905"><ele>392.0</ele><time>2026-03-28T14:16:12Z</time></trkpt><trkpt lat="42.429260369652276" lon="-8.065163189303608"><ele>392.0</ele><time>2026-03-28T14:16:13Z</time></trkpt><trkpt lat="42.429303692436605" lon="-8.065273825641738"><ele>392.0</ele><time>2026-03-28T14:16:14Z</time></trkpt><trkpt lat="42.429355796171635" lon="-8.065388382656982"><ele>392.0</ele><time>2026-03-28T14:16:15Z</time></trkpt><trkpt lat="42.42940420614851" lon="-8.065495543531474"><ele>391.99999999999994</ele><time>2026-03-28T14:16:16Z</time></trkpt><trkpt lat="42.429454666591184" lon="-8.06559646787462"><ele>392.0</ele><time>2026-03-28T14:16:17Z</time></trkpt><trkpt lat="42.42950325352953" lon="-8.06570072737923"><ele>392.0</ele><time>2026-03-28T14:16:18Z</time></trkpt><trkpt lat="42.42954551147739" lon="-8.065801964175469"><ele>392.0</ele><time>2026-03-28T14:16:19Z</time></trkpt><trkpt lat="42.429590256542305" lon="-8.065902692288244"><ele>391.99999999999994</ele><time>2026-03-28T14:16:20Z</time></trkpt><trkpt lat="42.429637075188936" lon="-8.066000039341505"><ele>392.0</ele><time>2026-03-28T14:16:21Z</time></trkpt><trkpt lat="42.42968702465275" lon="-8.06609825936377"><ele>392.3333333333333</ele><time>2026-03-28T14:16:22Z</time></trkpt><trkpt lat="42.42972668534327" lon="-8.066189254796983"><ele>392.66666666666663</ele><time>2026-03-28T14:16:23Z</time></trkpt><trkpt lat="42.42976411961963" lon="-8.066271908570055"><ele>393.0</ele><time>2026-03-28T14:16:24Z</time></trkpt><trkpt lat="42.42979531886135" lon="-8.066346876476304"><ele>393.33333333333337</ele><time>2026-03-28T14:16:25Z</time></trkpt><trkpt lat="42.4298316993303" lon="-8.06643222531166"><ele>393.6666666666667</ele><time>2026-03-28T14:16:26Z</time></trkpt><trkpt lat="42.42987012996749" lon="-8.066529975368244"><ele>394.0</ele><time>2026-03-28T14:16:27Z</time></trkpt><trkpt lat="42.42991403898724" lon="-8.06664439763674"><ele>394.0</ele><time>2026-03-28T14:16:28Z</time></trkpt><trkpt lat="42.4299636921518" lon="-8.0667664476339"><ele>394.0</ele><time>2026-03-28T14:16:29Z</time></trkpt><trkpt lat="42.43001328105218" lon="-8.0668682214099"><ele>394.0</ele><time>2026-03-28T14:16:30Z</time></trkpt><trkpt lat="42.43005594083326" lon="-8.066957340729122"><ele>394.0</ele><time>2026-03-28T14:16:31Z</time></trkpt><trkpt lat="42.430111250949295" lon="-8.067056572299883"><ele>394.0</ele><time>2026-03-28T14:16:32Z</time></trkpt><trkpt lat="42.43016976676576" lon="-8.067203782614378"><ele>394.00000000000006</ele><time>2026-03-28T14:16:34Z</time></trkpt><trkpt lat="42.430216138669095" lon="-8.067310205861954"><ele>394.0</ele><time>2026-03-28T14:16:35Z</time></trkpt><trkpt lat="42.43025346702143" lon="-8.067397538060986"><ele>394.0</ele><time>2026-03-28T14:16:36Z</time></trkpt><trkpt lat="42.43028896395759" lon="-8.067477730198409"><ele>394.0</ele><time>2026-03-28T14:16:37Z</time></trkpt><trkpt lat="42.43034228112109" lon="-8.067576247831292"><ele>394.00000000000006</ele><time>2026-03-28T14:16:38Z</time></trkpt><trkpt lat="42.43039776920883" lon="-8.067673630897946"><ele>394.0</ele><time>2026-03-28T14:16:39Z</time></trkpt><trkpt lat="42.43044860213153" lon="-8.067789982338754"><ele>394.4</ele><time>2026-03-28T14:16:40Z</time></trkpt><trkpt lat="42.43049956044235" lon="-8.067917318008892"><ele>394.79999999999995</ele><time>2026-03-28T14:16:41Z</time></trkpt><trkpt lat="42.43055794574806" lon="-8.068030413141294"><ele>395.20000000000005</ele><time>2026-03-28T14:16:42Z</time></trkpt><trkpt lat="42.4306158250482" lon="-8.06813465331437"><ele>395.6</ele><time>2026-03-28T14:16:43Z</time></trkpt><trkpt lat="42.43066735465796" lon="-8.068244833320955"><ele>396.0</ele><time>2026-03-28T14:16:44Z</time></trkpt><trkpt lat="42.430713891944954" lon="-8.068319476456002"><ele>396.0</ele><time>2026-03-28T14:16:45Z</time></trkpt><trkpt lat="42.43076064387136" lon="-8.068407826699946"><ele>396.0</ele><time>2026-03-28T14:16:46Z</time></trkpt><trkpt lat="42.430792983910024" lon="-8.068490109998853"><ele>396.0</ele><time>2026-03-28T14:16:47Z</time></trkpt><trkpt lat="42.43083058894852" lon="-8.06856015710937"><ele>396.0</ele><time>2026-03-28T14:16:48Z</time></trkpt><trkpt lat="42.43086802505829" lon="-8.06868488967475"><ele>396.0</ele><time>2026-03-28T14:16:50Z</time></trkpt><trkpt lat="42.430909948110944" lon="-8.068766740651254"><ele>396.0</ele><time>2026-03-28T14:16:51Z</time></trkpt><trkpt lat="42.430955324646796" lon="-8.068903344231003"><ele>396.0</ele><time>2026-03-28T14:16:53Z</time></trkpt><trkpt lat="42.43098996473802" lon="-8.068975836884526"><ele>396.0</ele><time>2026-03-28T14:16:54Z</time></trkpt><trkpt lat="42.43102576844295" lon="-8.069055897828823"><ele>396.0</ele><time>2026-03-28T14:16:55Z</time></trkpt><trkpt lat="42.43106275526647" lon="-8.069140609156953"><ele>396.0</ele><time>2026-03-28T14:16:56Z</time></trkpt><trkpt lat="42.431094826145355" lon="-8.069234207964373"><ele>396.0</ele><time>2026-03-28T14:16:57Z</time></trkpt><trkpt lat="42.43113574877542" lon="-8.069324810335038"><ele>396.0</ele><time>2026-03-28T14:16:58Z</time></trkpt><trkpt lat="42.43118378920276" lon="-8.069416444471875"><ele>396.0</ele><time>2026-03-28T14:16:59Z</time></trkpt><trkpt lat="42.4312225391769" lon="-8.069512247490962"><ele>396.0</ele><time>2026-03-28T14:17:00Z</time></trkpt><trkpt lat="42.43126445294549" lon="-8.069612671541577"><ele>396.0</ele><time>2026-03-28T14:17:01Z</time></trkpt><trkpt lat="42.43132078441265" lon="-8.069725552991393"><ele>396.0</ele><time>2026-03-28T14:17:02Z</time></trkpt><trkpt lat="42.431370272624875" lon="-8.06985025349146"><ele>396.0</ele><time>2026-03-28T14:17:03Z</time></trkpt><trkpt lat="42.43141403377366" lon="-8.069969745959648"><ele>396.0</ele><time>2026-03-28T14:17:04Z</time></trkpt><trkpt lat="42.43146013322352" lon="-8.070079448957658"><ele>396.0</ele><time>2026-03-28T14:17:04.999Z</time></trkpt><trkpt lat="42.43150263201492" lon="-8.070190542002534"><ele>396.0</ele><time>2026-03-28T14:17:05.999Z</time></trkpt><trkpt lat="42.43154600102542" lon="-8.070285419051226"><ele>396.0</ele><time>2026-03-28T14:17:06.999Z</time></trkpt><trkpt lat="42.431585893813455" lon="-8.070375406072861"><ele>396.0</ele><time>2026-03-28T14:17:07.999Z</time></trkpt><trkpt lat="42.43162636318658" lon="-8.070461527539761"><ele>396.0</ele><time>2026-03-28T14:17:08.999Z</time></trkpt><trkpt lat="42.43165789557832" lon="-8.070538701649363"><ele>396.0</ele><time>2026-03-28T14:17:09.999Z</time></trkpt><trkpt lat="42.43171419491526" lon="-8.070634480954485"><ele>396.0</ele><time>2026-03-28T14:17:11.999Z</time></trkpt><trkpt lat="42.43154206920508" lon="-8.070733273018893"><ele>396.0</ele><time>2026-03-28T14:17:13.999Z</time></trkpt><trkpt lat="42.43146624744404" lon="-8.070803923527428"><ele>396.0</ele><time>2026-03-28T14:17:14.999Z</time></trkpt><trkpt lat="42.431389593913934" lon="-8.070897452700578"><ele>396.0</ele><time>2026-03-28T14:17:15.999Z</time></trkpt><trkpt lat="42.43130610869418" lon="-8.07093725434213"><ele>395.3333333333333</ele><time>2026-03-28T14:17:16.999Z</time></trkpt><trkpt lat="42.43124246243288" lon="-8.070999290246958"><ele>394.66666666666663</ele><time>2026-03-28T14:17:17.999Z</time></trkpt><trkpt lat="42.43118566940011" lon="-8.071050143417903"><ele>394.0</ele><time>2026-03-28T14:17:18.999Z</time></trkpt><trkpt lat="42.431127806490025" lon="-8.07109214181786"><ele>393.3333333333333</ele><time>2026-03-28T14:17:20.999Z</time></trkpt><trkpt lat="42.43105346135906" lon="-8.071160874935718"><ele>392.66666666666663</ele><time>2026-03-28T14:17:23.999Z</time></trkpt><trkpt lat="42.43098539348722" lon="-8.07123555816608"><ele>392.0</ele><time>2026-03-28T14:17:24.999Z</time></trkpt><trkpt lat="42.430902136094474" lon="-8.071299772836452"><ele>392.0</ele><time>2026-03-28T14:17:25.999Z</time></trkpt><trkpt lat="42.43078965339767" lon="-8.071401161617702"><ele>392.0</ele><time>2026-03-28T14:17:26.999Z</time></trkpt><trkpt lat="42.430699483318385" lon="-8.07149675436228"><ele>392.0</ele><time>2026-03-28T14:17:27.999Z</time></trkpt><trkpt lat="42.43062842908617" lon="-8.071598181653055"><ele>392.0</ele><time>2026-03-28T14:17:28.999Z</time></trkpt><trkpt lat="42.430523924239566" lon="-8.071677300680703"><ele>391.6</ele><time>2026-03-28T14:17:29.999Z</time></trkpt><trkpt lat="42.430428380132625" lon="-8.071761187528928"><ele>391.20000000000005</ele><time>2026-03-28T14:17:30.999Z</time></trkpt><trkpt lat="42.4303321534205" lon="-8.071850917196524"><ele>390.8</ele><time>2026-03-28T14:17:31.999Z</time></trkpt><trkpt lat="42.430241165190935" lon="-8.071927934637863"><ele>390.4</ele><time>2026-03-28T14:17:32.999Z</time></trkpt><trkpt lat="42.43016238383552" lon="-8.071992403935374"><ele>390.0</ele><time>2026-03-28T14:17:33.999Z</time></trkpt><trkpt lat="42.430099637257264" lon="-8.072049676930675"><ele>390.0</ele><time>2026-03-28T14:17:34.999Z</time></trkpt><trkpt lat="42.43004408070114" lon="-8.07211496144087"><ele>390.0</ele><time>2026-03-28T14:17:35.999Z</time></trkpt><trkpt lat="42.42998434647588" lon="-8.072224571261257"><ele>390.0</ele><time>2026-03-28T14:17:37Z</time></trkpt><trkpt lat="42.429995027631215" lon="-8.07233626489077"><ele>390.0</ele><time>2026-03-28T14:17:38Z</time></trkpt><trkpt lat="42.430015068234354" lon="-8.072473619531317"><ele>390.0</ele><time>2026-03-28T14:17:39Z</time></trkpt><trkpt lat="42.43007040581068" lon="-8.072615168479423"><ele>391.0</ele><time>2026-03-28T14:17:40Z</time></trkpt><trkpt lat="42.43009105426622" lon="-8.072777807418255"><ele>392.0</ele><time>2026-03-28T14:17:41Z</time></trkpt><trkpt lat="42.43012816309335" lon="-8.072940591996455"><ele>393.0</ele><time>2026-03-28T14:17:42Z</time></trkpt><trkpt lat="42.43017186872743" lon="-8.073104769633543"><ele>394.0</ele><time>2026-03-28T14:17:43Z</time></trkpt><trkpt lat="42.43020641322222" lon="-8.073279033679917"><ele>394.75</ele><time>2026-03-28T14:17:44Z</time></trkpt><trkpt lat="42.430239437730975" lon="-8.073457137968465"><ele>395.5</ele><time>2026-03-28T14:17:45Z</time></trkpt><trkpt lat="42.43027983085028" lon="-8.073638491605081"><ele>396.25</ele><time>2026-03-28T14:17:46Z</time></trkpt><trkpt lat="42.43033539275255" lon="-8.073809537037338"><ele>397.0</ele><time>2026-03-28T14:17:47Z</time></trkpt><trkpt lat="42.43037630238593" lon="-8.074008951339298"><ele>397.0</ele><time>2026-03-28T14:17:48Z</time></trkpt><trkpt lat="42.430406085008975" lon="-8.074202209039912"><ele>397.0</ele><time>2026-03-28T14:17:49Z</time></trkpt><trkpt lat="42.43043491295396" lon="-8.074368230270316"><ele>397.0</ele><time>2026-03-28T14:17:50Z</time></trkpt><trkpt lat="42.43047637274201" lon="-8.074513331583587"><ele>397.0</ele><time>2026-03-28T14:17:51Z</time></trkpt><trkpt lat="42.430511652202" lon="-8.074666516981933"><ele>397.6666666666667</ele><time>2026-03-28T14:17:52Z</time></trkpt><trkpt lat="42.430533430228095" lon="-8.074785089473853"><ele>398.33333333333337</ele><time>2026-03-28T14:17:53Z</time></trkpt><trkpt lat="42.43055866940521" lon="-8.074900273855562"><ele>399.0</ele><time>2026-03-28T14:17:54Z</time></trkpt><trkpt lat="42.430591506520535" lon="-8.07501805967374"><ele>399.66666666666663</ele><time>2026-03-28T14:17:55Z</time></trkpt><trkpt lat="42.430602430620475" lon="-8.075122966820155"><ele>400.3333333333333</ele><time>2026-03-28T14:17:56Z</time></trkpt><trkpt lat="42.43060996591165" lon="-8.07521122937043"><ele>401.0</ele><time>2026-03-28T14:17:57Z</time></trkpt><trkpt lat="42.43063251175205" lon="-8.075323530561795"><ele>400.8</ele><time>2026-03-28T14:17:59Z</time></trkpt><trkpt lat="42.4305020566947" lon="-8.075359528360988"><ele>400.6</ele><time>2026-03-28T14:18:02Z</time></trkpt><trkpt lat="42.430426442403544" lon="-8.075378202803103"><ele>400.4</ele><time>2026-03-28T14:18:03Z</time></trkpt><trkpt lat="42.43035140416354" lon="-8.075390337594456"><ele>400.2</ele><time>2026-03-28T14:18:04Z</time></trkpt><trkpt lat="42.43023966048469" lon="-8.075425763449005"><ele>400.0</ele><time>2026-03-28T14:18:06Z</time></trkpt><trkpt lat="42.43016742294018" lon="-8.075429134366033"><ele>400.00000000000006</ele><time>2026-03-28T14:18:09Z</time></trkpt><trkpt lat="42.430152386362266" lon="-8.075255290202659"><ele>400.0</ele><time>2026-03-28T14:18:11Z</time></trkpt><trkpt lat="42.43013376422329" lon="-8.07513321588894"><ele>400.0</ele><time>2026-03-28T14:18:12Z</time></trkpt><trkpt lat="42.43012211027595" lon="-8.075041492649625"><ele>400.0</ele><time>2026-03-28T14:18:13Z</time></trkpt><trkpt lat="42.430115978569" lon="-8.074950498264853"><ele>400.00000000000006</ele><time>2026-03-28T14:18:15Z</time></trkpt><trkpt lat="42.43019067120847" lon="-8.07491847557408"><ele>400.0</ele><time>2026-03-28T14:18:16Z</time></trkpt><trkpt lat="42.43026752134373" lon="-8.074908482329395"><ele>399.5714285714286</ele><time>2026-03-28T14:18:18Z</time></trkpt><trkpt lat="42.43032788661131" lon="-8.074869570624248"><ele>399.14285714285717</ele><time>2026-03-28T14:18:21Z</time></trkpt><trkpt lat="42.430264556782106" lon="-8.074876791521223"><ele>398.7142857142857</ele><time>2026-03-28T14:18:24Z</time></trkpt><trkpt lat="42.43027403694187" lon="-8.074909284624866"><ele>398.28571428571433</ele><time>2026-03-28T14:27:03.997Z</time></trkpt><trkpt lat="42.43037167425505" lon="-8.074859637920905"><ele>397.85714285714283</ele><time>2026-03-28T14:27:08.002Z</time></trkpt><trkpt lat="42.43044263539284" lon="-8.074776634073768"><ele>397.42857142857144</ele><time>2026-03-28T14:27:10.002Z</time></trkpt><trkpt lat="42.43047044124641" lon="-8.074688330741012"><ele>397.0</ele><time>2026-03-28T14:27:13.002Z</time></trkpt><trkpt lat="42.43044470274447" lon="-8.074536258526917"><ele>397.00000000000006</ele><time>2026-03-28T14:27:16.001Z</time></trkpt><trkpt lat="42.43041906717214" lon="-8.07442654034225"><ele>397.0</ele><time>2026-03-28T14:27:17.001Z</time></trkpt><trkpt lat="42.430407076971555" lon="-8.074329128613162"><ele>397.0</ele><time>2026-03-28T14:27:18.001Z</time></trkpt><trkpt lat="42.43036197161138" lon="-8.074219993866596"><ele>397.0</ele><time>2026-03-28T14:27:19.001Z</time></trkpt><trkpt lat="42.43036285830995" lon="-8.07411158428961"><ele>397.00000000000006</ele><time>2026-03-28T14:27:20.001Z</time></trkpt><trkpt lat="42.43033540221682" lon="-8.07399657660095"><ele>397.0</ele><time>2026-03-28T14:27:21.001Z</time></trkpt><trkpt lat="42.43031259173363" lon="-8.073870992852635"><ele>397.0</ele><time>2026-03-28T14:27:22.001Z</time></trkpt><trkpt lat="42.43028815839911" lon="-8.07374386899666"><ele>397.0</ele><time>2026-03-28T14:27:23.001Z</time></trkpt><trkpt lat="42.4302457407624" lon="-8.073613417081457"><ele>397.0</ele><time>2026-03-28T14:27:24.001Z</time></trkpt><trkpt lat="42.4302131183289" lon="-8.073459465552805"><ele>397.0</ele><time>2026-03-28T14:27:25.001Z</time></trkpt><trkpt lat="42.430189024394416" lon="-8.073345592377368"><ele>397.0</ele><time>2026-03-28T14:27:26.001Z</time></trkpt><trkpt lat="42.43017634947086" lon="-8.073237896627116"><ele>396.40000000000003</ele><time>2026-03-28T14:27:27.001Z</time></trkpt><trkpt lat="42.43012565478202" lon="-8.073054757507537"><ele>395.8</ele><time>2026-03-28T14:27:28.001Z</time></trkpt><trkpt lat="42.43008728760631" lon="-8.07290937213912"><ele>395.2</ele><time>2026-03-28T14:27:29.001Z</time></trkpt><trkpt lat="42.430072490456034" lon="-8.072781710197384"><ele>394.6</ele><time>2026-03-28T14:27:30.001Z</time></trkpt><trkpt lat="42.43004823094207" lon="-8.072668889876573"><ele>394.0</ele><time>2026-03-28T14:27:31Z</time></trkpt><trkpt lat="42.43003099954924" lon="-8.0725431446501"><ele>394.0</ele><time>2026-03-28T14:27:32Z</time></trkpt><trkpt lat="42.430006988202855" lon="-8.072439848095243"><ele>394.0</ele><time>2026-03-28T14:27:33Z</time></trkpt><trkpt lat="42.42995020067743" lon="-8.072323135648833"><ele>394.0</ele><time>2026-03-28T14:27:35Z</time></trkpt><trkpt lat="42.42988680028126" lon="-8.072243351087693"><ele>394.0</ele><time>2026-03-28T14:27:37Z</time></trkpt><trkpt lat="42.42982167493349" lon="-8.072396713509962"><ele>394.0</ele><time>2026-03-28T14:27:38Z</time></trkpt><trkpt lat="42.42977203768799" lon="-8.072455822147097"><ele>394.0</ele><time>2026-03-28T14:27:39Z</time></trkpt><trkpt lat="42.42970417137086" lon="-8.07253664919726"><ele>394.0</ele><time>2026-03-28T14:27:41Z</time></trkpt><trkpt lat="42.42963907230307" lon="-8.07263265386027"><ele>394.0</ele><time>2026-03-28T14:27:44Z</time></trkpt><trkpt lat="42.42953256066365" lon="-8.072501866309482"><ele>394.0</ele><time>2026-03-28T14:27:46Z</time></trkpt><trkpt lat="42.42946742119074" lon="-8.072348667424299"><ele>392.4</ele><time>2026-03-28T14:27:48Z</time></trkpt><trkpt lat="42.42940964172077" lon="-8.072265942352866"><ele>390.79999999999995</ele><time>2026-03-28T14:27:49Z</time></trkpt><trkpt lat="42.42936250571291" lon="-8.072164467448133"><ele>389.20000000000005</ele><time>2026-03-28T14:27:50Z</time></trkpt><trkpt lat="42.429314676120114" lon="-8.072037473586546"><ele>387.6</ele><time>2026-03-28T14:27:51Z</time></trkpt><trkpt lat="42.42926012530522" lon="-8.071932302897457"><ele>386.0</ele><time>2026-03-28T14:27:52Z</time></trkpt><trkpt lat="42.429206600518306" lon="-8.071811294718074"><ele>386.0</ele><time>2026-03-28T14:27:53Z</time></trkpt><trkpt lat="42.42915767374351" lon="-8.071701917286807"><ele>386.0</ele><time>2026-03-28T14:27:54Z</time></trkpt><trkpt lat="42.42909766817594" lon="-8.071585942215977"><ele>386.0</ele><time>2026-03-28T14:27:55Z</time></trkpt><trkpt lat="42.42905255272908" lon="-8.071460402671761"><ele>386.0</ele><time>2026-03-28T14:27:56Z</time></trkpt><trkpt lat="42.42900138055222" lon="-8.07134022972159"><ele>386.0</ele><time>2026-03-28T14:27:57Z</time></trkpt><trkpt lat="42.42894416777012" lon="-8.071215930437795"><ele>385.6</ele><time>2026-03-28T14:27:58Z</time></trkpt><trkpt lat="42.428908565170474" lon="-8.0710967208493"><ele>385.20000000000005</ele><time>2026-03-28T14:27:59Z</time></trkpt><trkpt lat="42.428860404383066" lon="-8.070964035770427"><ele>384.79999999999995</ele><time>2026-03-28T14:28:00Z</time></trkpt><trkpt lat="42.42881627376142" lon="-8.07083586060569"><ele>384.4</ele><time>2026-03-28T14:28:01Z</time></trkpt><trkpt lat="42.42879020346917" lon="-8.07070793812431"><ele>384.0</ele><time>2026-03-28T14:28:02Z</time></trkpt><trkpt lat="42.42875833687763" lon="-8.070569246359293"><ele>383.79999999999995</ele><time>2026-03-28T14:28:03Z</time></trkpt><trkpt lat="42.42872812109566" lon="-8.0704375880263"><ele>383.59999999999997</ele><time>2026-03-28T14:28:04Z</time></trkpt><trkpt lat="42.42869277699785" lon="-8.070303493543681"><ele>383.4</ele><time>2026-03-28T14:28:05Z</time></trkpt><trkpt lat="42.42865239384658" lon="-8.070178045985049"><ele>383.2</ele><time>2026-03-28T14:28:06Z</time></trkpt><trkpt lat="42.428601600291735" lon="-8.070043015239749"><ele>383.0</ele><time>2026-03-28T14:28:07Z</time></trkpt><trkpt lat="42.428530775175" lon="-8.06993554718599"><ele>384.25</ele><time>2026-03-28T14:28:08Z</time></trkpt><trkpt lat="42.42845913613383" lon="-8.06981042365389"><ele>385.5</ele><time>2026-03-28T14:28:09Z</time></trkpt><trkpt lat="42.428373745492294" lon="-8.069701261732174"><ele>386.75</ele><time>2026-03-28T14:28:10Z</time></trkpt><trkpt lat="42.42827533869148" lon="-8.069595588313943"><ele>388.0</ele><time>2026-03-28T14:28:11Z</time></trkpt><trkpt lat="42.42817219826946" lon="-8.069521967900037"><ele>388.0</ele><time>2026-03-28T14:28:11.999Z</time></trkpt><trkpt lat="42.42805639018241" lon="-8.069490526619136"><ele>388.0</ele><time>2026-03-28T14:28:12.999Z</time></trkpt><trkpt lat="42.42794471742327" lon="-8.069508150329026"><ele>388.0</ele><time>2026-03-28T14:28:13.999Z</time></trkpt><trkpt lat="42.427834285550944" lon="-8.069555205132861"><ele>388.0</ele><time>2026-03-28T14:28:14.999Z</time></trkpt><trkpt lat="42.427732425242496" lon="-8.069603895151968"><ele>390.25</ele><time>2026-03-28T14:28:15.999Z</time></trkpt><trkpt lat="42.42761145870862" lon="-8.069666464149755"><ele>392.5</ele><time>2026-03-28T14:28:16.999Z</time></trkpt><trkpt lat="42.427500207421815" lon="-8.069716286724255"><ele>394.75</ele><time>2026-03-28T14:28:17.999Z</time></trkpt><trkpt lat="42.42738295717028" lon="-8.069773663079568"><ele>397.0</ele><time>2026-03-28T14:28:18.999Z</time></trkpt><trkpt lat="42.427263736359514" lon="-8.069831921493732"><ele>399.25</ele><time>2026-03-28T14:28:19.999Z</time></trkpt><trkpt lat="42.427140976461594" lon="-8.06987468019813"><ele>401.5</ele><time>2026-03-28T14:28:20.999Z</time></trkpt><trkpt lat="42.42701349201125" lon="-8.069907135030471"><ele>403.75</ele><time>2026-03-28T14:28:21.999Z</time></trkpt><trkpt lat="42.42688509409812" lon="-8.069936278571758"><ele>406.0</ele><time>2026-03-28T14:28:22.999Z</time></trkpt><trkpt lat="42.42675236809401" lon="-8.069961989521156"><ele>406.0</ele><time>2026-03-28T14:28:23.999Z</time></trkpt><trkpt lat="42.42661880163482" lon="-8.069981927623058"><ele>406.0</ele><time>2026-03-28T14:28:24.999Z</time></trkpt><trkpt lat="42.4264865211743" lon="-8.07000237829815"><ele>406.0</ele><time>2026-03-28T14:28:25.999Z</time></trkpt><trkpt lat="42.426354961466124" lon="-8.070020691228246"><ele>406.0</ele><time>2026-03-28T14:28:26.999Z</time></trkpt><trkpt lat="42.4262260906973" lon="-8.070045748628255"><ele>406.25</ele><time>2026-03-28T14:28:27.999Z</time></trkpt><trkpt lat="42.42609503115825" lon="-8.070081831411306"><ele>406.5</ele><time>2026-03-28T14:28:28.999Z</time></trkpt><trkpt lat="42.425959916471065" lon="-8.070107979137902"><ele>406.75</ele><time>2026-03-28T14:28:29.999Z</time></trkpt><trkpt lat="42.425830700060374" lon="-8.070115184134435"><ele>407.0</ele><time>2026-03-28T14:28:30.999Z</time></trkpt><trkpt lat="42.425697338444195" lon="-8.070127397962436"><ele>407.0</ele><time>2026-03-28T14:28:31.999Z</time></trkpt><trkpt lat="42.42557596237398" lon="-8.07014679948416"><ele>407.0</ele><time>2026-03-28T14:28:32.999Z</time></trkpt><trkpt lat="42.42544139185842" lon="-8.070167213283826"><ele>407.0</ele><time>2026-03-28T14:28:33.999Z</time></trkpt><trkpt lat="42.4253050405678" lon="-8.070187039484548"><ele>407.0</ele><time>2026-03-28T14:28:34.999Z</time></trkpt><trkpt lat="42.42517327909628" lon="-8.070203735710042"><ele>407.75</ele><time>2026-03-28T14:28:35.999Z</time></trkpt><trkpt lat="42.42504880447264" lon="-8.070225269976017"><ele>408.5</ele><time>2026-03-28T14:28:36.999Z</time></trkpt><trkpt lat="42.42492283271241" lon="-8.070268280572039"><ele>409.25</ele><time>2026-03-28T14:28:37.999Z</time></trkpt><trkpt lat="42.42482912495382" lon="-8.070368837877197"><ele>410.0</ele><time>2026-03-28T14:28:38.999Z</time></trkpt><trkpt lat="42.424732344033444" lon="-8.070466120951677"><ele>411.25</ele><time>2026-03-28T14:28:39.999Z</time></trkpt><trkpt lat="42.424636229950764" lon="-8.070576370905517"><ele>412.5</ele><time>2026-03-28T14:28:40.999Z</time></trkpt><trkpt lat="42.42454731047348" lon="-8.070683450965273"><ele>413.75</ele><time>2026-03-28T14:28:41.999Z</time></trkpt><trkpt lat="42.42445073475805" lon="-8.07079447699192"><ele>415.0</ele><time>2026-03-28T14:28:42.999Z</time></trkpt><trkpt lat="42.42435489599781" lon="-8.07091926466442"><ele>415.0</ele><time>2026-03-28T14:28:43.999Z</time></trkpt><trkpt lat="42.42425471250048" lon="-8.071051086728637"><ele>415.0</ele><time>2026-03-28T14:28:44.999Z</time></trkpt><trkpt lat="42.42415494855951" lon="-8.071179038547767"><ele>415.0</ele><time>2026-03-28T14:28:45.999Z</time></trkpt><trkpt lat="42.42405611350031" lon="-8.071305728624024"><ele>415.0</ele><time>2026-03-28T14:28:46.999Z</time></trkpt><trkpt lat="42.423956461509334" lon="-8.071442112661318"><ele>415.0</ele><time>2026-03-28T14:28:47.999Z</time></trkpt><trkpt lat="42.423859586302704" lon="-8.071573378250426"><ele>415.0</ele><time>2026-03-28T14:28:48.999Z</time></trkpt><trkpt lat="42.4237586111861" lon="-8.07170473891717"><ele>415.0</ele><time>2026-03-28T14:28:49.999Z</time></trkpt><trkpt lat="42.42365408784248" lon="-8.071835481025301"><ele>415.0</ele><time>2026-03-28T14:28:50.999Z</time></trkpt><trkpt lat="42.42355742440593" lon="-8.07196509443031"><ele>414.4</ele><time>2026-03-28T14:28:51.999Z</time></trkpt><trkpt lat="42.42346459582338" lon="-8.072088607109855"><ele>413.8</ele><time>2026-03-28T14:28:52.999Z</time></trkpt><trkpt lat="42.42338441660955" lon="-8.072203382715989"><ele>413.20000000000005</ele><time>2026-03-28T14:28:53.999Z</time></trkpt><trkpt lat="42.42332281167499" lon="-8.072287460684679"><ele>412.6</ele><time>2026-03-28T14:28:54.999Z</time></trkpt><trkpt lat="42.42327432735155" lon="-8.072362051421731"><ele>412.0</ele><time>2026-03-28T14:28:56.999Z</time></trkpt><trkpt lat="42.42321067548599" lon="-8.072361649948482"><ele>412.0</ele><time>2026-03-28T14:28:58.999Z</time></trkpt><trkpt lat="42.42316540428036" lon="-8.07217255220819"><ele>412.0</ele><time>2026-03-28T14:29:00.999Z</time></trkpt><trkpt lat="42.423136289884624" lon="-8.072088377592499"><ele>412.0</ele><time>2026-03-28T14:29:01.999Z</time></trkpt><trkpt lat="42.42310255216402" lon="-8.0719664646209"><ele>412.0</ele><time>2026-03-28T14:29:02.999Z</time></trkpt><trkpt lat="42.423066756559784" lon="-8.071855194943216"><ele>412.0</ele><time>2026-03-28T14:29:03.999Z</time></trkpt><trkpt lat="42.423005330855204" lon="-8.071752780909586"><ele>413.0</ele><time>2026-03-28T14:29:04.999Z</time></trkpt><trkpt lat="42.42292493679376" lon="-8.07165311226172"><ele>414.0</ele><time>2026-03-28T14:29:05.999Z</time></trkpt><trkpt lat="42.42284497273065" lon="-8.071546396618327"><ele>415.0</ele><time>2026-03-28T14:29:06.999Z</time></trkpt><trkpt lat="42.42276923833582" lon="-8.071443519874494"><ele>416.0</ele><time>2026-03-28T14:29:07.999Z</time></trkpt><trkpt lat="42.42269679363058" lon="-8.07135464221947"><ele>417.0</ele><time>2026-03-28T14:29:08.999Z</time></trkpt><trkpt lat="42.422649195544956" lon="-8.07126249891788"><ele>417.20000000000005</ele><time>2026-03-28T14:29:09.999Z</time></trkpt><trkpt lat="42.422599117398676" lon="-8.071190444430835"><ele>417.4</ele><time>2026-03-28T14:29:10.999Z</time></trkpt><trkpt lat="42.42263060748265" lon="-8.071026872242705"><ele>417.6</ele><time>2026-03-28T14:29:15Z</time></trkpt><trkpt lat="42.42267197737656" lon="-8.070889400779516"><ele>417.79999999999995</ele><time>2026-03-28T14:29:17Z</time></trkpt><trkpt lat="42.42268256736014" lon="-8.070804231583871"><ele>418.0</ele><time>2026-03-28T14:29:19Z</time></trkpt><trkpt lat="42.422751605057755" lon="-8.070747682044264"><ele>418.00000000000006</ele><time>2026-03-28T14:29:21Z</time></trkpt><trkpt lat="42.422825975800734" lon="-8.070662517571929"><ele>418.0</ele><time>2026-03-28T14:29:23Z</time></trkpt><trkpt lat="42.42289708033184" lon="-8.070582914823639"><ele>418.0</ele><time>2026-03-28T14:29:25Z</time></trkpt><trkpt lat="42.42295280107969" lon="-8.07052272010162"><ele>418.0</ele><time>2026-03-28T14:29:27Z</time></trkpt><trkpt lat="42.42299709990472" lon="-8.070455678300194"><ele>418.00000000000006</ele><time>2026-03-28T14:29:30Z</time></trkpt><trkpt lat="42.4229407826826" lon="-8.070380957843316"><ele>418.0</ele><time>2026-03-28T14:31:32Z</time></trkpt><trkpt lat="42.42288628139278" lon="-8.070247492414406"><ele>418.00000000000006</ele><time>2026-03-28T14:31:34Z</time></trkpt><trkpt lat="42.42284502851714" lon="-8.070177583000486"><ele>418.0</ele><time>2026-03-28T14:31:35Z</time></trkpt><trkpt lat="42.42278664503034" lon="-8.070090157401301"><ele>418.0</ele><time>2026-03-28T14:31:37Z</time></trkpt><trkpt lat="42.42273012067016" lon="-8.070001612277839"><ele>418.0</ele><time>2026-03-28T14:31:39Z</time></trkpt><trkpt lat="42.422715774878284" lon="-8.06989233465769"><ele>418.00000000000006</ele><time>2026-03-28T14:31:42Z</time></trkpt><trkpt lat="42.4228054564613" lon="-8.069838307970791"><ele>418.0</ele><time>2026-03-28T14:31:44Z</time></trkpt><trkpt lat="42.422904252560606" lon="-8.06980200520216"><ele>419.0</ele><time>2026-03-28T14:31:46Z</time></trkpt><trkpt lat="42.42300469474544" lon="-8.06975433235773"><ele>420.0</ele><time>2026-03-28T14:31:48Z</time></trkpt><trkpt lat="42.423100428240886" lon="-8.069699257500556"><ele>421.0</ele><time>2026-03-28T14:31:50Z</time></trkpt><trkpt lat="42.42316403176564" lon="-8.069671577933278"><ele>422.0</ele><time>2026-03-28T14:31:51Z</time></trkpt><trkpt lat="42.42326023624497" lon="-8.069611354798013"><ele>423.0</ele><time>2026-03-28T14:31:53Z</time></trkpt><trkpt lat="42.42334065240647" lon="-8.069533521835321"><ele>423.0</ele><time>2026-03-28T14:31:55Z</time></trkpt><trkpt lat="42.423474909887645" lon="-8.069505293290213"><ele>423.0</ele><time>2026-03-28T14:31:57Z</time></trkpt><trkpt lat="42.42360668400614" lon="-8.069493912137563"><ele>423.0</ele><time>2026-03-28T14:31:59Z</time></trkpt><trkpt lat="42.42367422147155" lon="-8.069480147044711"><ele>423.0</ele><time>2026-03-28T14:32:00Z</time></trkpt><trkpt lat="42.42376181880956" lon="-8.069460959417146"><ele>423.0</ele><time>2026-03-28T14:32:01Z</time></trkpt><trkpt lat="42.42382921452569" lon="-8.069415676424898"><ele>422.5</ele><time>2026-03-28T14:32:02Z</time></trkpt><trkpt lat="42.4239121071432" lon="-8.069402580178044"><ele>422.0</ele><time>2026-03-28T14:32:03Z</time></trkpt><trkpt lat="42.42398451430016" lon="-8.069391774402945"><ele>421.5</ele><time>2026-03-28T14:32:04Z</time></trkpt><trkpt lat="42.42404921958209" lon="-8.0693827891814"><ele>421.0</ele><time>2026-03-28T14:32:05Z</time></trkpt><trkpt lat="42.42418834872586" lon="-8.069363130747718"><ele>420.5</ele><time>2026-03-28T14:32:06.999Z</time></trkpt><trkpt lat="42.424259880808364" lon="-8.069350539917043"><ele>420.0</ele><time>2026-03-28T14:32:07.999Z</time></trkpt><trkpt lat="42.424352614391026" lon="-8.069329029910213"><ele>420.0</ele><time>2026-03-28T14:32:08.999Z</time></trkpt><trkpt lat="42.42444440732311" lon="-8.0692998060929"><ele>420.0</ele><time>2026-03-28T14:32:09.999Z</time></trkpt><trkpt lat="42.42451143145339" lon="-8.069270019407808"><ele>420.0</ele><time>2026-03-28T14:32:10.999Z</time></trkpt><trkpt lat="42.424591483357645" lon="-8.06922231274618"><ele>420.0</ele><time>2026-03-28T14:32:12.999Z</time></trkpt><trkpt lat="42.42475295988269" lon="-8.069421819898034"><ele>418.8</ele><time>2026-03-28T14:32:14.999Z</time></trkpt><trkpt lat="42.424818743507956" lon="-8.069508725119459"><ele>417.6</ele><time>2026-03-28T14:32:15.999Z</time></trkpt><trkpt lat="42.42488609480912" lon="-8.069611939990295"><ele>416.4</ele><time>2026-03-28T14:32:16.999Z</time></trkpt><trkpt lat="42.42495319651445" lon="-8.069687780413428"><ele>415.2</ele><time>2026-03-28T14:32:17.999Z</time></trkpt><trkpt lat="42.42501108246163" lon="-8.06977880957584"><ele>414.0</ele><time>2026-03-28T14:32:18.999Z</time></trkpt><trkpt lat="42.42507132094386" lon="-8.069863046254419"><ele>413.2</ele><time>2026-03-28T14:32:19.999Z</time></trkpt><trkpt lat="42.42512703611176" lon="-8.069986144996133"><ele>412.4</ele><time>2026-03-28T14:32:21.999Z</time></trkpt><trkpt lat="42.425123191274174" lon="-8.070073289026217"><ele>411.6</ele><time>2026-03-28T14:32:22.999Z</time></trkpt><trkpt lat="42.425111845390816" lon="-8.070201406653318"><ele>410.8</ele><time>2026-03-28T14:32:24.999Z</time></trkpt><trkpt lat="42.42522665830209" lon="-8.070158955056396"><ele>410.0</ele><time>2026-03-28T14:32:25.999Z</time></trkpt><trkpt lat="42.425323775439736" lon="-8.070169361935735"><ele>410.0</ele><time>2026-03-28T14:32:26.999Z</time></trkpt><trkpt lat="42.425424016865264" lon="-8.070142478753386"><ele>410.0</ele><time>2026-03-28T14:32:27.999Z</time></trkpt><trkpt lat="42.425524059263466" lon="-8.070125696664855"><ele>410.0</ele><time>2026-03-28T14:32:28.999Z</time></trkpt><trkpt lat="42.42562500925842" lon="-8.070108721656052"><ele>410.0</ele><time>2026-03-28T14:32:29.999Z</time></trkpt><trkpt lat="42.42573095499471" lon="-8.07010032771809"><ele>410.0</ele><time>2026-03-28T14:32:30.999Z</time></trkpt><trkpt lat="42.42583241065816" lon="-8.070082939631002"><ele>409.25</ele><time>2026-03-28T14:32:31.999Z</time></trkpt><trkpt lat="42.42594249489646" lon="-8.07004638542526"><ele>408.5</ele><time>2026-03-28T14:32:32.999Z</time></trkpt><trkpt lat="42.42606331935265" lon="-8.070031618708288"><ele>407.75</ele><time>2026-03-28T14:32:33.999Z</time></trkpt><trkpt lat="42.426180968749065" lon="-8.069998801673087"><ele>407.0</ele><time>2026-03-28T14:32:34.999Z</time></trkpt><trkpt lat="42.426295344087514" lon="-8.06997654620957"><ele>406.75</ele><time>2026-03-28T14:32:35.999Z</time></trkpt><trkpt lat="42.42640885663297" lon="-8.069960722302408"><ele>406.5</ele><time>2026-03-28T14:32:36.999Z</time></trkpt><trkpt lat="42.426530199924564" lon="-8.06992600800154"><ele>406.25</ele><time>2026-03-28T14:32:37.999Z</time></trkpt><trkpt lat="42.4266456260335" lon="-8.069908393413897"><ele>406.0</ele><time>2026-03-28T14:32:38.999Z</time></trkpt><trkpt lat="42.42676862147483" lon="-8.069884150602356"><ele>406.0</ele><time>2026-03-28T14:32:39.999Z</time></trkpt><trkpt lat="42.42688467221322" lon="-8.069842780468147"><ele>406.0</ele><time>2026-03-28T14:32:40.999Z</time></trkpt><trkpt lat="42.42699962497158" lon="-8.069833635470495"><ele>406.0</ele><time>2026-03-28T14:32:41.999Z</time></trkpt><trkpt lat="42.427109664087226" lon="-8.069823843518858"><ele>406.0</ele><time>2026-03-28T14:32:42.999Z</time></trkpt><trkpt lat="42.427220339257" lon="-8.069784058993589"><ele>403.75</ele><time>2026-03-28T14:32:43.999Z</time></trkpt><trkpt lat="42.42734925381451" lon="-8.069745548010715"><ele>401.5</ele><time>2026-03-28T14:32:44.999Z</time></trkpt><trkpt lat="42.42745905741615" lon="-8.069688840158483"><ele>399.25</ele><time>2026-03-28T14:32:45.999Z</time></trkpt><trkpt lat="42.42756009143132" lon="-8.06963539174101"><ele>397.0</ele><time>2026-03-28T14:32:46.999Z</time></trkpt><trkpt lat="42.42767010595413" lon="-8.069557489285055"><ele>397.0</ele><time>2026-03-28T14:32:47.999Z</time></trkpt><trkpt lat="42.42778071552185" lon="-8.069478321721952"><ele>397.0</ele><time>2026-03-28T14:32:48.999Z</time></trkpt><trkpt lat="42.427857881123316" lon="-8.069454091596633"><ele>397.0</ele><time>2026-03-28T14:32:49.999Z</time></trkpt><trkpt lat="42.427928331752824" lon="-8.069415608039634"><ele>397.0</ele><time>2026-03-28T14:32:50.999Z</time></trkpt><trkpt lat="42.428013086419895" lon="-8.06939215160797"><ele>397.0</ele><time>2026-03-28T14:32:51.999Z</time></trkpt><trkpt lat="42.42814548984752" lon="-8.069422062929352"><ele>394.75</ele><time>2026-03-28T14:32:52.999Z</time></trkpt><trkpt lat="42.428259598303754" lon="-8.069486898182406"><ele>392.5</ele><time>2026-03-28T14:32:53.999Z</time></trkpt><trkpt lat="42.428363980892776" lon="-8.06960804876086"><ele>390.25</ele><time>2026-03-28T14:32:54.999Z</time></trkpt><trkpt lat="42.42847554304592" lon="-8.069753817927532"><ele>388.0</ele><time>2026-03-28T14:32:55.999Z</time></trkpt><trkpt lat="42.42859289514598" lon="-8.06993469460669"><ele>386.33333333333337</ele><time>2026-03-28T14:32:56.999Z</time></trkpt><trkpt lat="42.428668485897845" lon="-8.070088366622585"><ele>384.6666666666667</ele><time>2026-03-28T14:32:57.999Z</time></trkpt><trkpt lat="42.42874557778637" lon="-8.070290720054375"><ele>383.0</ele><time>2026-03-28T14:32:58.999Z</time></trkpt><trkpt lat="42.4288035007586" lon="-8.070475828907231"><ele>383.25</ele><time>2026-03-28T14:32:59.999Z</time></trkpt><trkpt lat="42.428827730070594" lon="-8.070657782619838"><ele>383.5</ele><time>2026-03-28T14:33:00.999Z</time></trkpt><trkpt lat="42.42886503316679" lon="-8.070862371131799"><ele>383.75</ele><time>2026-03-28T14:33:01.999Z</time></trkpt><trkpt lat="42.42892752577592" lon="-8.071044318003002"><ele>384.0</ele><time>2026-03-28T14:33:02.999Z</time></trkpt><trkpt lat="42.42898989874709" lon="-8.071204623586107"><ele>384.0</ele><time>2026-03-28T14:33:03.999Z</time></trkpt><trkpt lat="42.429082168489984" lon="-8.07143429122394"><ele>384.0</ele><time>2026-03-28T14:33:04.999Z</time></trkpt><trkpt lat="42.4291768363962" lon="-8.07166691477305"><ele>384.0</ele><time>2026-03-28T14:33:05.999Z</time></trkpt><trkpt lat="42.429247489160225" lon="-8.0718306053126"><ele>384.66666666666663</ele><time>2026-03-28T14:33:06.999Z</time></trkpt><trkpt lat="42.42933379753166" lon="-8.07201820327671"><ele>385.3333333333333</ele><time>2026-03-28T14:33:07.999Z</time></trkpt><trkpt lat="42.429417572465546" lon="-8.07219838381004"><ele>386.0</ele><time>2026-03-28T14:33:08.999Z</time></trkpt><trkpt lat="42.42949147943058" lon="-8.072357490792548"><ele>386.20000000000005</ele><time>2026-03-28T14:33:09.999Z</time></trkpt><trkpt lat="42.42955096953833" lon="-8.072485905937931"><ele>386.40000000000003</ele><time>2026-03-28T14:33:10.999Z</time></trkpt><trkpt lat="42.429593058263706" lon="-8.07257791725558"><ele>386.6</ele><time>2026-03-28T14:33:11.999Z</time></trkpt><trkpt lat="42.429656646732255" lon="-8.072599607108737"><ele>386.8</ele><time>2026-03-28T14:33:13.999Z</time></trkpt><trkpt lat="42.4297209480979" lon="-8.072456706707806"><ele>387.0</ele><time>2026-03-28T14:33:14.999Z</time></trkpt><trkpt lat="42.42982251499827" lon="-8.072335676327308"><ele>387.6</ele><time>2026-03-28T14:33:16.999Z</time></trkpt><trkpt lat="42.42990984846102" lon="-8.072225108421891"><ele>388.20000000000005</ele><time>2026-03-28T14:33:18.999Z</time></trkpt><trkpt lat="42.42997086904752" lon="-8.072170061923416"><ele>388.8</ele><time>2026-03-28T14:33:19.999Z</time></trkpt><trkpt lat="42.43003058916017" lon="-8.072218209987808"><ele>389.4</ele><time>2026-03-28T14:33:21.999Z</time></trkpt><trkpt lat="42.43012297314795" lon="-8.07225451702118"><ele>390.0</ele><time>2026-03-28T14:33:22.999Z</time></trkpt><trkpt lat="42.43027611421721" lon="-8.072266281129291"><ele>390.0</ele><time>2026-03-28T14:33:23.999Z</time></trkpt><trkpt lat="42.43037902895472" lon="-8.072274989787553"><ele>390.0</ele><time>2026-03-28T14:33:24.999Z</time></trkpt><trkpt lat="42.430488160439054" lon="-8.072282971306851"><ele>390.0</ele><time>2026-03-28T14:33:25.999Z</time></trkpt><trkpt lat="42.43059783241118" lon="-8.072299248099128"><ele>390.0</ele><time>2026-03-28T14:33:26.999Z</time></trkpt><trkpt lat="42.43071086478312" lon="-8.072308699650701"><ele>390.0</ele><time>2026-03-28T14:33:27.999Z</time></trkpt><trkpt lat="42.430824986726506" lon="-8.072323290278613"><ele>390.0</ele><time>2026-03-28T14:33:28.999Z</time></trkpt><trkpt lat="42.43092179795394" lon="-8.072346733619929"><ele>390.0</ele><time>2026-03-28T14:33:29.999Z</time></trkpt><trkpt lat="42.43101243340101" lon="-8.072356796761072"><ele>390.0</ele><time>2026-03-28T14:33:30.999Z</time></trkpt><trkpt lat="42.431087902808756" lon="-8.072370781654"><ele>390.0</ele><time>2026-03-28T14:33:31.999Z</time></trkpt><trkpt lat="42.43115405868284" lon="-8.072378550260826"><ele>390.0</ele><time>2026-03-28T14:33:32.999Z</time></trkpt><trkpt lat="42.43126432421654" lon="-8.072291143035274"><ele>391.0</ele><time>2026-03-28T14:33:34.999Z</time></trkpt><trkpt lat="42.43132465732707" lon="-8.072191438371386"><ele>392.0</ele><time>2026-03-28T14:33:35.999Z</time></trkpt><trkpt lat="42.431393759801324" lon="-8.072077241407836"><ele>393.0</ele><time>2026-03-28T14:33:36.999Z</time></trkpt><trkpt lat="42.43147679077437" lon="-8.071975420789917"><ele>394.0</ele><time>2026-03-28T14:33:37.999Z</time></trkpt><trkpt lat="42.431538032489236" lon="-8.07183882054401"><ele>395.0</ele><time>2026-03-28T14:33:38.999Z</time></trkpt><trkpt lat="42.4316079061128" lon="-8.071723351059298"><ele>394.99999999999994</ele><time>2026-03-28T14:33:39.999Z</time></trkpt><trkpt lat="42.4316711441734" lon="-8.071618851306026"><ele>395.0</ele><time>2026-03-28T14:33:40.999Z</time></trkpt><trkpt lat="42.431729393658316" lon="-8.071521385032488"><ele>395.0</ele><time>2026-03-28T14:33:41.999Z</time></trkpt><trkpt lat="42.431785786038645" lon="-8.071426900463935"><ele>395.0</ele><time>2026-03-28T14:33:42.999Z</time></trkpt><trkpt lat="42.431825066398616" lon="-8.071359959350668"><ele>394.99999999999994</ele><time>2026-03-28T14:33:43.999Z</time></trkpt><trkpt lat="42.43187031574452" lon="-8.07128605320266"><ele>395.0</ele><time>2026-03-28T14:33:44.999Z</time></trkpt><trkpt lat="42.43204604431263" lon="-8.071397393367109"><ele>395.1428571428571</ele><time>2026-03-28T14:33:50.999Z</time></trkpt><trkpt lat="42.43208395540387" lon="-8.071484744400694"><ele>395.28571428571433</ele><time>2026-03-28T14:33:52.999Z</time></trkpt><trkpt lat="42.432114503117134" lon="-8.071560140508334"><ele>395.42857142857144</ele><time>2026-03-28T14:33:54.999Z</time></trkpt><trkpt lat="42.432162733560176" lon="-8.071628644380109"><ele>395.57142857142856</ele><time>2026-03-28T14:33:56.999Z</time></trkpt><trkpt lat="42.4321992638824" lon="-8.071709517885973"><ele>395.71428571428567</ele><time>2026-03-28T14:33:57.999Z</time></trkpt><trkpt lat="42.43222748710814" lon="-8.07179787911536"><ele>395.8571428571429</ele><time>2026-03-28T14:33:58.999Z</time></trkpt><trkpt lat="42.432278443783886" lon="-8.071883516931425"><ele>396.0</ele><time>2026-03-28T14:33:59.999Z</time></trkpt><trkpt lat="42.432319569807206" lon="-8.07200510869377"><ele>396.4</ele><time>2026-03-28T14:34:00.999Z</time></trkpt><trkpt lat="42.432375736887685" lon="-8.072123954856291"><ele>396.8</ele><time>2026-03-28T14:34:01.999Z</time></trkpt><trkpt lat="42.43243112150944" lon="-8.072238035871703"><ele>397.2</ele><time>2026-03-28T14:34:02.999Z</time></trkpt><trkpt lat="42.432480204045945" lon="-8.072361532659443"><ele>397.59999999999997</ele><time>2026-03-28T14:34:03.999Z</time></trkpt><trkpt lat="42.432528235110425" lon="-8.072477064073896"><ele>398.0</ele><time>2026-03-28T14:34:04.999Z</time></trkpt><trkpt lat="42.43259131437207" lon="-8.072588737566896"><ele>398.4</ele><time>2026-03-28T14:34:05.999Z</time></trkpt><trkpt lat="42.43264999249403" lon="-8.072709716590522"><ele>398.79999999999995</ele><time>2026-03-28T14:34:06.999Z</time></trkpt><trkpt lat="42.43268758214746" lon="-8.072824349831004"><ele>399.2</ele><time>2026-03-28T14:34:07.999Z</time></trkpt><trkpt lat="42.432751020857296" lon="-8.072946258598682"><ele>399.6</ele><time>2026-03-28T14:34:08.999Z</time></trkpt><trkpt lat="42.43280860711189" lon="-8.073063388378376"><ele>400.0</ele><time>2026-03-28T14:34:09.999Z</time></trkpt><trkpt lat="42.4328555939816" lon="-8.073172724646598"><ele>400.4</ele><time>2026-03-28T14:34:10.999Z</time></trkpt><trkpt lat="42.432901357197345" lon="-8.073299874641561"><ele>400.8</ele><time>2026-03-28T14:34:11.999Z</time></trkpt><trkpt lat="42.432952017728496" lon="-8.073406499871131"><ele>401.20000000000005</ele><time>2026-03-28T14:34:12.999Z</time></trkpt><trkpt lat="42.433005000257864" lon="-8.073510141987214"><ele>401.6</ele><time>2026-03-28T14:34:13.999Z</time></trkpt><trkpt lat="42.43305015098918" lon="-8.073618554677472"><ele>402.0</ele><time>2026-03-28T14:34:14.999Z</time></trkpt><trkpt lat="42.43309181363783" lon="-8.07371459213501"><ele>402.20000000000005</ele><time>2026-03-28T14:34:15.999Z</time></trkpt><trkpt lat="42.433149071088806" lon="-8.07384023281051"><ele>402.4</ele><time>2026-03-28T14:34:16.999Z</time></trkpt><trkpt lat="42.43319478636619" lon="-8.073948379282688"><ele>402.6</ele><time>2026-03-28T14:34:17.999Z</time></trkpt><trkpt lat="42.433241472326074" lon="-8.074047924471525"><ele>402.79999999999995</ele><time>2026-03-28T14:34:18.999Z</time></trkpt><trkpt lat="42.43328365481853" lon="-8.074149836708672"><ele>403.0</ele><time>2026-03-28T14:34:19.999Z</time></trkpt><trkpt lat="42.4333278607117" lon="-8.074246696193763"><ele>403.83333333333337</ele><time>2026-03-28T14:34:20.999Z</time></trkpt><trkpt lat="42.433374574807075" lon="-8.074344831213066"><ele>404.6666666666667</ele><time>2026-03-28T14:34:21.999Z</time></trkpt><trkpt lat="42.433414311973735" lon="-8.074428591628518"><ele>405.5</ele><time>2026-03-28T14:34:22.999Z</time></trkpt><trkpt lat="42.43345950521958" lon="-8.074523827449577"><ele>406.33333333333337</ele><time>2026-03-28T14:34:23.999Z</time></trkpt><trkpt lat="42.43351836511998" lon="-8.07465492396235"><ele>407.1666666666667</ele><time>2026-03-28T14:34:25.999Z</time></trkpt><trkpt lat="42.4335583787187" lon="-8.074747856787061"><ele>408.0</ele><time>2026-03-28T14:34:27.999Z</time></trkpt><trkpt lat="42.43360773593556" lon="-8.074844780990944"><ele>408.0</ele><time>2026-03-28T14:34:30.999Z</time></trkpt><trkpt lat="42.433662433342974" lon="-8.074900062217537"><ele>408.0</ele><time>2026-03-28T14:34:34.999Z</time></trkpt><trkpt lat="42.43372453764765" lon="-8.074935058663227"><ele>408.0</ele><time>2026-03-28T14:34:35.999Z</time></trkpt><trkpt lat="42.433811007289776" lon="-8.074940489256909"><ele>408.0</ele><time>2026-03-28T14:34:36.999Z</time></trkpt><trkpt lat="42.4338850104159" lon="-8.07488152695131"><ele>408.0</ele><time>2026-03-28T14:34:37.999Z</time></trkpt><trkpt lat="42.43397874584341" lon="-8.074814645131898"><ele>408.0</ele><time>2026-03-28T14:34:38.999Z</time></trkpt><trkpt lat="42.4340725199451" lon="-8.074741850281999"><ele>408.5</ele><time>2026-03-28T14:34:39.999Z</time></trkpt><trkpt lat="42.43418049792398" lon="-8.074655946930717"><ele>409.0</ele><time>2026-03-28T14:34:40.999Z</time></trkpt><trkpt lat="42.43429491053948" lon="-8.074574495603587"><ele>409.5</ele><time>2026-03-28T14:34:41.999Z</time></trkpt><trkpt lat="42.43439868336204" lon="-8.074436669029119"><ele>410.0</ele><time>2026-03-28T14:34:42.999Z</time></trkpt><trkpt lat="42.43448874174232" lon="-8.074302205811485"><ele>410.0</ele><time>2026-03-28T14:34:43.999Z</time></trkpt><trkpt lat="42.43457566647961" lon="-8.074135679314839"><ele>410.0</ele><time>2026-03-28T14:34:44.999Z</time></trkpt><trkpt lat="42.43468317569994" lon="-8.073988273720092"><ele>410.0</ele><time>2026-03-28T14:34:45.999Z</time></trkpt><trkpt lat="42.434758902882855" lon="-8.073805877597698"><ele>410.66666666666663</ele><time>2026-03-28T14:34:46.999Z</time></trkpt><trkpt lat="42.43483285129146" lon="-8.073617439861712"><ele>411.33333333333337</ele><time>2026-03-28T14:34:47.999Z</time></trkpt><trkpt lat="42.43491054750195" lon="-8.07342509122855"><ele>412.0</ele><time>2026-03-28T14:34:48.999Z</time></trkpt><trkpt lat="42.43496592408201" lon="-8.073220301054624"><ele>412.0</ele><time>2026-03-28T14:34:49.999Z</time></trkpt><trkpt lat="42.435048274626936" lon="-8.073023009572323"><ele>412.0</ele><time>2026-03-28T14:34:50.999Z</time></trkpt><trkpt lat="42.435128693303604" lon="-8.072830337253997"><ele>412.0</ele><time>2026-03-28T14:34:51.999Z</time></trkpt><trkpt lat="42.435212438254545" lon="-8.072629695565048"><ele>410.6666666666667</ele><time>2026-03-28T14:34:52.999Z</time></trkpt><trkpt lat="42.43529536935231" lon="-8.072429942880042"><ele>409.33333333333337</ele><time>2026-03-28T14:34:53.999Z</time></trkpt><trkpt lat="42.43537909782018" lon="-8.072228145058784"><ele>408.0</ele><time>2026-03-28T14:34:54.999Z</time></trkpt><trkpt lat="42.43546088104775" lon="-8.07203103460041"><ele>409.0</ele><time>2026-03-28T14:34:55.999Z</time></trkpt><trkpt lat="42.4355378390519" lon="-8.071848522973424"><ele>410.0</ele><time>2026-03-28T14:34:56.999Z</time></trkpt><trkpt lat="42.435608631775246" lon="-8.071680398388034"><ele>411.0</ele><time>2026-03-28T14:34:57.999Z</time></trkpt><trkpt lat="42.43567588432491" lon="-8.07152121080074"><ele>412.0</ele><time>2026-03-28T14:34:58.999Z</time></trkpt><trkpt lat="42.43574319259371" lon="-8.071364814841303"><ele>412.0</ele><time>2026-03-28T14:34:59.999Z</time></trkpt><trkpt lat="42.43580908697444" lon="-8.071211704237712"><ele>412.0</ele><time>2026-03-28T14:35:00.999Z</time></trkpt><trkpt lat="42.43589432343317" lon="-8.071057643295404"><ele>412.0</ele><time>2026-03-28T14:35:01.999Z</time></trkpt><trkpt lat="42.435946212429805" lon="-8.070886131463718"><ele>412.0</ele><time>2026-03-28T14:35:02.999Z</time></trkpt><trkpt lat="42.436018460662694" lon="-8.07070800347992"><ele>411.5</ele><time>2026-03-28T14:35:03.999Z</time></trkpt><trkpt lat="42.43608693776203" lon="-8.07053917378005"><ele>411.0</ele><time>2026-03-28T14:35:04.999Z</time></trkpt><trkpt lat="42.4361589004439" lon="-8.070361750088416"><ele>410.5</ele><time>2026-03-28T14:35:05.999Z</time></trkpt><trkpt lat="42.43623262340981" lon="-8.070179986491738"><ele>410.0</ele><time>2026-03-28T14:35:06.999Z</time></trkpt><trkpt lat="42.43630449704869" lon="-8.070005420328958"><ele>411.0</ele><time>2026-03-28T14:35:07.999Z</time></trkpt><trkpt lat="42.43637473962726" lon="-8.069835093741917"><ele>412.0</ele><time>2026-03-28T14:35:08.999Z</time></trkpt><trkpt lat="42.436446422446295" lon="-8.06966127868985"><ele>413.0</ele><time>2026-03-28T14:35:09.999Z</time></trkpt><trkpt lat="42.436513834859674" lon="-8.069489784664224"><ele>414.0</ele><time>2026-03-28T14:35:10.999Z</time></trkpt><trkpt lat="42.43657308876004" lon="-8.069316996437584"><ele>414.0</ele><time>2026-03-28T14:35:11.999Z</time></trkpt><trkpt lat="42.43661933151732" lon="-8.069128967975402"><ele>414.0</ele><time>2026-03-28T14:35:12.999Z</time></trkpt><trkpt lat="42.436653635922184" lon="-8.068949457261645"><ele>414.0</ele><time>2026-03-28T14:35:13.999Z</time></trkpt><trkpt lat="42.4366915115423" lon="-8.068754643882869"><ele>414.0</ele><time>2026-03-28T14:35:14.999Z</time></trkpt><trkpt lat="42.436727261910676" lon="-8.068569964156238"><ele>413.75</ele><time>2026-03-28T14:35:15.999Z</time></trkpt><trkpt lat="42.436777900553544" lon="-8.068392741238979"><ele>413.5</ele><time>2026-03-28T14:35:16.999Z</time></trkpt><trkpt lat="42.43680005307874" lon="-8.068193308791281"><ele>413.25</ele><time>2026-03-28T14:35:17.999Z</time></trkpt><trkpt lat="42.436835686911415" lon="-8.068007937094128"><ele>413.0</ele><time>2026-03-28T14:35:18.998Z</time></trkpt><trkpt lat="42.43687225854982" lon="-8.067817245395634"><ele>412.75</ele><time>2026-03-28T14:35:19.998Z</time></trkpt><trkpt lat="42.43690942049865" lon="-8.067623475800053"><ele>412.5</ele><time>2026-03-28T14:35:20.998Z</time></trkpt><trkpt lat="42.436944674208256" lon="-8.067439655965229"><ele>412.25</ele><time>2026-03-28T14:35:21.998Z</time></trkpt><trkpt lat="42.436981615437695" lon="-8.067247040841485"><ele>412.0</ele><time>2026-03-28T14:35:22.998Z</time></trkpt><trkpt lat="42.43701806698035" lon="-8.067060676763242"><ele>413.0</ele><time>2026-03-28T14:35:23.998Z</time></trkpt><trkpt lat="42.43705325410522" lon="-8.066886173918709"><ele>414.0</ele><time>2026-03-28T14:35:24.998Z</time></trkpt><trkpt lat="42.437093571772195" lon="-8.06669402952823"><ele>415.0</ele><time>2026-03-28T14:35:25.998Z</time></trkpt><trkpt lat="42.43713462557262" lon="-8.066521025027667"><ele>416.0</ele><time>2026-03-28T14:35:26.998Z</time></trkpt><trkpt lat="42.4371810896311" lon="-8.066351259909851"><ele>417.25</ele><time>2026-03-28T14:35:27.998Z</time></trkpt><trkpt lat="42.43725370459227" lon="-8.066194853963752"><ele>418.5</ele><time>2026-03-28T14:35:28.998Z</time></trkpt><trkpt lat="42.43731949192798" lon="-8.066044652200521"><ele>419.75</ele><time>2026-03-28T14:35:29.998Z</time></trkpt><trkpt lat="42.437383814513595" lon="-8.06588545443262"><ele>421.0</ele><time>2026-03-28T14:35:30.999Z</time></trkpt><trkpt lat="42.43744935029012" lon="-8.06575306481847"><ele>421.1666666666667</ele><time>2026-03-28T14:35:31.999Z</time></trkpt><trkpt lat="42.437505308783955" lon="-8.065640033746266"><ele>421.33333333333337</ele><time>2026-03-28T14:35:32.999Z</time></trkpt><trkpt lat="42.43755604611997" lon="-8.065537580812459"><ele>421.5</ele><time>2026-03-28T14:35:33.999Z</time></trkpt><trkpt lat="42.43762068518519" lon="-8.065430922616818"><ele>421.66666666666663</ele><time>2026-03-28T14:35:34.999Z</time></trkpt><trkpt lat="42.43767254005046" lon="-8.065335357685393"><ele>421.8333333333333</ele><time>2026-03-28T14:35:35.999Z</time></trkpt><trkpt lat="42.437698883517214" lon="-8.06525196643308"><ele>422.0</ele><time>2026-03-28T14:35:36.999Z</time></trkpt><trkpt lat="42.43774397401264" lon="-8.065162206913774"><ele>421.99999999999994</ele><time>2026-03-28T14:35:38.999Z</time></trkpt><trkpt lat="42.437829133099264" lon="-8.065227724830496"><ele>422.0</ele><time>2026-03-28T14:35:40.999Z</time></trkpt><trkpt lat="42.437925714361356" lon="-8.065273676502569"><ele>422.0</ele><time>2026-03-28T14:35:43Z</time></trkpt><trkpt lat="42.43800628780764" lon="-8.065314916674348"><ele>422.0</ele><time>2026-03-28T14:35:44Z</time></trkpt><trkpt lat="42.438075912293094" lon="-8.06535055290543"><ele>421.99999999999994</ele><time>2026-03-28T14:35:45Z</time></trkpt><trkpt lat="42.43813865557443" lon="-8.06540584433518"><ele>422.0</ele><time>2026-03-28T14:35:46Z</time></trkpt><trkpt lat="42.43821688435467" lon="-8.065426576243873"><ele>422.66666666666663</ele><time>2026-03-28T14:35:47Z</time></trkpt><trkpt lat="42.438288145233194" lon="-8.065463311374243"><ele>423.3333333333333</ele><time>2026-03-28T14:35:48Z</time></trkpt><trkpt lat="42.43836104756315" lon="-8.065495244109664"><ele>424.0</ele><time>2026-03-28T14:35:49Z</time></trkpt><trkpt lat="42.438447265220056" lon="-8.065530349331103"><ele>424.66666666666663</ele><time>2026-03-28T14:35:50Z</time></trkpt><trkpt lat="42.43852293890469" lon="-8.065568525744581"><ele>425.3333333333333</ele><time>2026-03-28T14:35:51Z</time></trkpt><trkpt lat="42.43860020146558" lon="-8.065616939735921"><ele>426.0</ele><time>2026-03-28T14:35:52Z</time></trkpt><trkpt lat="42.43866237624309" lon="-8.065653706321047"><ele>426.0</ele><time>2026-03-28T14:35:53Z</time></trkpt><trkpt lat="42.438727422453056" lon="-8.065694672700815"><ele>426.0</ele><time>2026-03-28T14:35:54Z</time></trkpt><trkpt lat="42.438814413703966" lon="-8.065727437170173"><ele>426.0</ele><time>2026-03-28T14:35:55Z</time></trkpt><trkpt lat="42.43889659616708" lon="-8.065765548468779"><ele>426.0</ele><time>2026-03-28T14:35:56Z</time></trkpt><trkpt lat="42.438986993746184" lon="-8.065809686153674"><ele>426.0</ele><time>2026-03-28T14:35:57Z</time></trkpt><trkpt lat="42.43908489167866" lon="-8.065862772625074"><ele>426.5</ele><time>2026-03-28T14:35:58Z</time></trkpt><trkpt lat="42.43919364549197" lon="-8.065920975320775"><ele>427.0</ele><time>2026-03-28T14:35:59Z</time></trkpt><trkpt lat="42.439310643127335" lon="-8.065976006242233"><ele>427.5</ele><time>2026-03-28T14:36:00Z</time></trkpt><trkpt lat="42.439429224669055" lon="-8.066030850571364"><ele>428.0</ele><time>2026-03-28T14:36:01Z</time></trkpt><trkpt lat="42.43954369171187" lon="-8.066084017855163"><ele>427.79999999999995</ele><time>2026-03-28T14:36:02Z</time></trkpt><trkpt lat="42.439650346401706" lon="-8.06613600712348"><ele>427.59999999999997</ele><time>2026-03-28T14:36:03Z</time></trkpt><trkpt lat="42.43974181837001" lon="-8.066187568597801"><ele>427.40000000000003</ele><time>2026-03-28T14:36:04Z</time></trkpt><trkpt lat="42.43983181761205" lon="-8.066238666536318"><ele>427.20000000000005</ele><time>2026-03-28T14:36:04.999Z</time></trkpt><trkpt lat="42.43992096185279" lon="-8.066284778280734"><ele>427.0</ele><time>2026-03-28T14:36:05.999Z</time></trkpt><trkpt lat="42.43999626757315" lon="-8.066321604695705"><ele>427.00000000000006</ele><time>2026-03-28T14:36:06.999Z</time></trkpt><trkpt lat="42.44007231846633" lon="-8.066352880703077"><ele>427.0</ele><time>2026-03-28T14:36:07.999Z</time></trkpt><trkpt lat="42.440158715752425" lon="-8.066373617700528"><ele>427.0</ele><time>2026-03-28T14:36:09.999Z</time></trkpt><trkpt lat="42.440193651918605" lon="-8.066448841402524"><ele>427.0</ele><time>2026-03-28T14:36:10.999Z</time></trkpt><trkpt lat="42.44025909922812" lon="-8.066576632384594"><ele>427.00000000000006</ele><time>2026-03-28T14:36:11.999Z</time></trkpt><trkpt lat="42.44031506823804" lon="-8.066687684234603"><ele>427.0</ele><time>2026-03-28T14:36:12.999Z</time></trkpt><trkpt lat="42.44037898292512" lon="-8.066811654650591"><ele>426.8</ele><time>2026-03-28T14:36:13.999Z</time></trkpt><trkpt lat="42.44044410516917" lon="-8.066934151288816"><ele>426.6</ele><time>2026-03-28T14:36:14.999Z</time></trkpt><trkpt lat="42.44050977509301" lon="-8.067057877872262"><ele>426.40000000000003</ele><time>2026-03-28T14:36:15.999Z</time></trkpt><trkpt lat="42.44057525035361" lon="-8.067181237719184"><ele>426.20000000000005</ele><time>2026-03-28T14:36:16.999Z</time></trkpt><trkpt lat="42.44063703768517" lon="-8.0672976493925"><ele>426.0</ele><time>2026-03-28T14:36:17.999Z</time></trkpt><trkpt lat="42.44069384782186" lon="-8.067406505711954"><ele>424.1666666666667</ele><time>2026-03-28T14:36:18.999Z</time></trkpt><trkpt lat="42.440747816791784" lon="-8.06750449921252"><ele>422.33333333333337</ele><time>2026-03-28T14:36:19.999Z</time></trkpt><trkpt lat="42.44081934842909" lon="-8.067575658774876"><ele>420.5</ele><time>2026-03-28T14:36:20.999Z</time></trkpt><trkpt lat="42.4409030993995" lon="-8.067601869701793"><ele>418.6666666666667</ele><time>2026-03-28T14:36:21.999Z</time></trkpt><trkpt lat="42.44098019155615" lon="-8.067638013174227"><ele>416.83333333333337</ele><time>2026-03-28T14:36:22.999Z</time></trkpt><trkpt lat="42.44105441737511" lon="-8.06768445616351"><ele>415.0</ele><time>2026-03-28T14:36:23.999Z</time></trkpt><trkpt lat="42.441119045549726" lon="-8.06771914397988"><ele>415.0</ele><time>2026-03-28T14:36:24.999Z</time></trkpt><trkpt lat="42.44120250241444" lon="-8.067747309509135"><ele>415.0</ele><time>2026-03-28T14:36:25.999Z</time></trkpt><trkpt lat="42.44131061568268" lon="-8.067798328574955"><ele>415.0</ele><time>2026-03-28T14:36:27.999Z</time></trkpt><trkpt lat="42.44136418903396" lon="-8.067844413287972"><ele>415.0</ele><time>2026-03-28T14:36:31.999Z</time></trkpt><trkpt lat="42.44146227335239" lon="-8.067728466301558"><ele>415.0</ele><time>2026-03-28T14:36:40.999Z</time></trkpt><trkpt lat="42.441532242199045" lon="-8.067655280029111"><ele>414.6666666666667</ele><time>2026-03-28T14:36:41.999Z</time></trkpt><trkpt lat="42.44159952847671" lon="-8.06758707371474"><ele>414.33333333333337</ele><time>2026-03-28T14:36:42.999Z</time></trkpt><trkpt lat="42.44166740515488" lon="-8.067518268990758"><ele>414.0</ele><time>2026-03-28T14:36:43.999Z</time></trkpt><trkpt lat="42.441740380119306" lon="-8.067463920653957"><ele>413.66666666666663</ele><time>2026-03-28T14:36:44.999Z</time></trkpt><trkpt lat="42.44179965713639" lon="-8.067409239208772"><ele>413.3333333333333</ele><time>2026-03-28T14:36:45.999Z</time></trkpt><trkpt lat="42.44186289295503" lon="-8.067365169264683"><ele>413.0</ele><time>2026-03-28T14:36:46.999Z</time></trkpt><trkpt lat="42.44191879912842" lon="-8.067314060975912"><ele>412.66666666666663</ele><time>2026-03-28T14:36:47.999Z</time></trkpt><trkpt lat="42.442008930336236" lon="-8.067355496767235"><ele>412.3333333333333</ele><time>2026-03-28T14:36:48.999Z</time></trkpt><trkpt lat="42.44209738823114" lon="-8.06736062197215"><ele>412.0</ele><time>2026-03-28T14:36:49.999Z</time></trkpt><trkpt lat="42.442178711224464" lon="-8.067355917214586"><ele>411.66666666666663</ele><time>2026-03-28T14:36:50.999Z</time></trkpt><trkpt lat="42.44224666998825" lon="-8.067308769882633"><ele>411.3333333333333</ele><time>2026-03-28T14:36:51.999Z</time></trkpt><trkpt lat="42.44232596062941" lon="-8.067252616921989"><ele>411.0</ele><time>2026-03-28T14:36:52.999Z</time></trkpt><trkpt lat="42.44240341123357" lon="-8.067185217122269"><ele>410.6</ele><time>2026-03-28T14:36:53.999Z</time></trkpt><trkpt lat="42.442492466587765" lon="-8.067100318859923"><ele>410.20000000000005</ele><time>2026-03-28T14:36:54.999Z</time></trkpt><trkpt lat="42.442559088875704" lon="-8.067035269865803"><ele>409.79999999999995</ele><time>2026-03-28T14:36:55.999Z</time></trkpt><trkpt lat="42.4426465158325" lon="-8.066975313283175"><ele>409.4</ele><time>2026-03-28T14:36:56.999Z</time></trkpt><trkpt lat="42.44271465262957" lon="-8.066892293737748"><ele>409.0</ele><time>2026-03-28T14:36:57.999Z</time></trkpt><trkpt lat="42.4428125687406" lon="-8.066848623630932"><ele>409.0</ele><time>2026-03-28T14:36:58.999Z</time></trkpt><trkpt lat="42.442914484287904" lon="-8.066903803581665"><ele>409.0</ele><time>2026-03-28T14:36:59.999Z</time></trkpt><trkpt lat="42.44300221867112" lon="-8.066956368422101"><ele>409.0</ele><time>2026-03-28T14:37:00.999Z</time></trkpt><trkpt lat="42.44310280432149" lon="-8.067025746528486"><ele>409.0</ele><time>2026-03-28T14:37:01.999Z</time></trkpt><trkpt lat="42.44318339542322" lon="-8.067109871502101"><ele>409.0</ele><time>2026-03-28T14:37:02.999Z</time></trkpt><trkpt lat="42.44327472718765" lon="-8.06716075435645"><ele>407.0</ele><time>2026-03-28T14:37:03.999Z</time></trkpt><trkpt lat="42.443359532435544" lon="-8.067225612851898"><ele>405.0</ele><time>2026-03-28T14:37:04.999Z</time></trkpt><trkpt lat="42.44345581794443" lon="-8.067256772487342"><ele>403.0</ele><time>2026-03-28T14:37:05.999Z</time></trkpt><trkpt lat="42.44356191046898" lon="-8.0672526168304"><ele>401.0</ele><time>2026-03-28T14:37:06.999Z</time></trkpt><trkpt lat="42.44365816555971" lon="-8.067175129598844"><ele>399.0</ele><time>2026-03-28T14:37:07.999Z</time></trkpt><trkpt lat="42.44377178993473" lon="-8.067097332378108"><ele>398.0</ele><time>2026-03-28T14:37:08.999Z</time></trkpt><trkpt lat="42.443897735444544" lon="-8.067009678846368"><ele>397.0</ele><time>2026-03-28T14:37:09.999Z</time></trkpt><trkpt lat="42.444021515944435" lon="-8.066946809624516"><ele>396.0</ele><time>2026-03-28T14:37:10.999Z</time></trkpt><trkpt lat="42.444149123471604" lon="-8.066856364634654"><ele>395.0</ele><time>2026-03-28T14:37:11.999Z</time></trkpt><trkpt lat="42.44427904974083" lon="-8.066767135079912"><ele>395.0</ele><time>2026-03-28T14:37:12.999Z</time></trkpt><trkpt lat="42.444418676763675" lon="-8.066663441373882"><ele>395.0</ele><time>2026-03-28T14:37:13.999Z</time></trkpt><trkpt lat="42.44455555557827" lon="-8.066574988575875"><ele>395.0</ele><time>2026-03-28T14:37:14.999Z</time></trkpt><trkpt lat="42.44469718652441" lon="-8.066454793410115"><ele>394.0</ele><time>2026-03-28T14:37:15.999Z</time></trkpt><trkpt lat="42.44484113312443" lon="-8.066357780789525"><ele>393.0</ele><time>2026-03-28T14:37:16.999Z</time></trkpt><trkpt lat="42.444967583491874" lon="-8.066269650230794"><ele>392.0</ele><time>2026-03-28T14:37:17.999Z</time></trkpt><trkpt lat="42.445097046034284" lon="-8.0661788636068"><ele>391.0</ele><time>2026-03-28T14:37:18.999Z</time></trkpt><trkpt lat="42.44521554915243" lon="-8.066122290626783"><ele>391.0</ele><time>2026-03-28T14:37:19.999Z</time></trkpt><trkpt lat="42.44532187969178" lon="-8.066029629725262"><ele>391.0</ele><time>2026-03-28T14:37:20.999Z</time></trkpt><trkpt lat="42.445437549283064" lon="-8.065998475643047"><ele>391.0</ele><time>2026-03-28T14:37:21.999Z</time></trkpt><trkpt lat="42.445553244257866" lon="-8.066001196226194"><ele>391.0</ele><time>2026-03-28T14:37:22.999Z</time></trkpt><trkpt lat="42.445666065925636" lon="-8.066047552923099"><ele>390.25</ele><time>2026-03-28T14:37:23.999Z</time></trkpt><trkpt lat="42.445791397950494" lon="-8.066078670070402"><ele>389.5</ele><time>2026-03-28T14:37:24.999Z</time></trkpt><trkpt lat="42.44591892394234" lon="-8.066122033312132"><ele>388.75</ele><time>2026-03-28T14:37:25.999Z</time></trkpt><trkpt lat="42.44605052554746" lon="-8.066163413535431"><ele>388.0</ele><time>2026-03-28T14:37:26.999Z</time></trkpt><trkpt lat="42.44619465958644" lon="-8.06619816751377"><ele>388.0</ele><time>2026-03-28T14:37:27.999Z</time></trkpt><trkpt lat="42.44634552858512" lon="-8.066205435924816"><ele>388.0</ele><time>2026-03-28T14:37:28.999Z</time></trkpt><trkpt lat="42.44649936477397" lon="-8.066207354526373"><ele>388.0</ele><time>2026-03-28T14:37:29.999Z</time></trkpt><trkpt lat="42.446657139946495" lon="-8.066207715035238"><ele>388.0</ele><time>2026-03-28T14:37:30.999Z</time></trkpt><trkpt lat="42.44681805386714" lon="-8.066205467857063"><ele>388.0</ele><time>2026-03-28T14:37:31.999Z</time></trkpt><trkpt lat="42.44698291606674" lon="-8.066214353272542"><ele>388.0</ele><time>2026-03-28T14:37:32.999Z</time></trkpt><trkpt lat="42.44714491641315" lon="-8.066199170051476"><ele>389.33333333333337</ele><time>2026-03-28T14:37:33.999Z</time></trkpt><trkpt lat="42.447314652723165" lon="-8.066184813671656"><ele>390.66666666666663</ele><time>2026-03-28T14:37:34.999Z</time></trkpt><trkpt lat="42.447491378464356" lon="-8.066170240649257"><ele>392.0</ele><time>2026-03-28T14:37:35.999Z</time></trkpt><trkpt lat="42.447656888735224" lon="-8.066140363671558"><ele>392.0</ele><time>2026-03-28T14:37:37Z</time></trkpt><trkpt lat="42.44782454533366" lon="-8.066125826682208"><ele>392.0</ele><time>2026-03-28T14:37:38Z</time></trkpt><trkpt lat="42.44799704270093" lon="-8.066114779692343"><ele>392.0</ele><time>2026-03-28T14:37:39Z</time></trkpt><trkpt lat="42.44817535777269" lon="-8.066103360175976"><ele>393.0</ele><time>2026-03-28T14:37:40Z</time></trkpt><trkpt lat="42.44834184623174" lon="-8.0660940157419"><ele>394.0</ele><time>2026-03-28T14:37:41Z</time></trkpt><trkpt lat="42.44852048955671" lon="-8.066086618276678"><ele>395.0</ele><time>2026-03-28T14:37:42Z</time></trkpt><trkpt lat="42.448699495128245" lon="-8.066078215910004"><ele>395.66666666666663</ele><time>2026-03-28T14:37:43Z</time></trkpt><trkpt lat="42.448867065957856" lon="-8.066069479221248"><ele>396.33333333333337</ele><time>2026-03-28T14:37:44Z</time></trkpt><trkpt lat="42.44903392572508" lon="-8.06605854623774"><ele>397.0</ele><time>2026-03-28T14:37:45Z</time></trkpt><trkpt lat="42.44921224771323" lon="-8.066045876325703"><ele>397.0</ele><time>2026-03-28T14:37:46Z</time></trkpt><trkpt lat="42.44939072014476" lon="-8.066034615878664"><ele>397.0</ele><time>2026-03-28T14:37:47Z</time></trkpt><trkpt lat="42.44956553319627" lon="-8.066027253685444"><ele>397.0</ele><time>2026-03-28T14:37:48Z</time></trkpt><trkpt lat="42.44973546035471" lon="-8.066045075522823"><ele>398.6666666666667</ele><time>2026-03-28T14:37:49Z</time></trkpt><trkpt lat="42.44990800360122" lon="-8.066026703447902"><ele>400.33333333333337</ele><time>2026-03-28T14:37:50Z</time></trkpt><trkpt lat="42.45008058084868" lon="-8.066061798433365"><ele>402.0</ele><time>2026-03-28T14:37:51Z</time></trkpt><trkpt lat="42.450221543548636" lon="-8.066118467638544"><ele>402.0</ele><time>2026-03-28T14:37:52Z</time></trkpt><trkpt lat="42.45034071558195" lon="-8.066224836279698"><ele>402.0</ele><time>2026-03-28T14:37:53Z</time></trkpt><trkpt lat="42.45044904081985" lon="-8.066337820299324"><ele>402.0</ele><time>2026-03-28T14:37:54Z</time></trkpt><trkpt lat="42.450564785493626" lon="-8.06646717574416"><ele>402.0</ele><time>2026-03-28T14:37:55Z</time></trkpt><trkpt lat="42.45070525215575" lon="-8.06657612522489"><ele>404.75</ele><time>2026-03-28T14:37:56Z</time></trkpt><trkpt lat="42.4508444266648" lon="-8.066648427276029"><ele>407.5</ele><time>2026-03-28T14:37:57Z</time></trkpt><trkpt lat="42.45098355064574" lon="-8.066660807353564"><ele>410.25</ele><time>2026-03-28T14:37:58Z</time></trkpt><trkpt lat="42.451141555937284" lon="-8.066648321073213"><ele>413.0</ele><time>2026-03-28T14:37:59Z</time></trkpt><trkpt lat="42.45129290258047" lon="-8.066605196607071"><ele>413.0</ele><time>2026-03-28T14:38:00Z</time></trkpt><trkpt lat="42.45144747624333" lon="-8.066571277352924"><ele>413.0</ele><time>2026-03-28T14:38:01Z</time></trkpt><trkpt lat="42.45159219929998" lon="-8.066518537702247"><ele>413.0</ele><time>2026-03-28T14:38:02Z</time></trkpt><trkpt lat="42.451748426372966" lon="-8.066456827230347"><ele>413.0</ele><time>2026-03-28T14:38:03Z</time></trkpt><trkpt lat="42.45188985848952" lon="-8.066416923441768"><ele>413.0</ele><time>2026-03-28T14:38:04Z</time></trkpt><trkpt lat="42.45204198685554" lon="-8.066380289949796"><ele>413.0</ele><time>2026-03-28T14:38:05Z</time></trkpt><trkpt lat="42.45219849138271" lon="-8.066369619811327"><ele>415.3333333333333</ele><time>2026-03-28T14:38:06Z</time></trkpt><trkpt lat="42.452357215083" lon="-8.066341164696246"><ele>417.66666666666663</ele><time>2026-03-28T14:38:07Z</time></trkpt><trkpt lat="42.45251536986541" lon="-8.066306308230269"><ele>420.0</ele><time>2026-03-28T14:38:08Z</time></trkpt><trkpt lat="42.4526957573623" lon="-8.066300097265696"><ele>420.0</ele><time>2026-03-28T14:38:09Z</time></trkpt><trkpt lat="42.452864502333746" lon="-8.066287283896077"><ele>420.0</ele><time>2026-03-28T14:38:10Z</time></trkpt><trkpt lat="42.45299127354463" lon="-8.066259194818462"><ele>420.0</ele><time>2026-03-28T14:38:11Z</time></trkpt><trkpt lat="42.453130099722" lon="-8.066221484653479"><ele>420.0</ele><time>2026-03-28T14:38:12Z</time></trkpt><trkpt lat="42.45331770015361" lon="-8.066225958993288"><ele>420.66666666666663</ele><time>2026-03-28T14:38:13Z</time></trkpt><trkpt lat="42.45348452299059" lon="-8.066220988610533"><ele>421.3333333333333</ele><time>2026-03-28T14:38:14Z</time></trkpt><trkpt lat="42.453622370619016" lon="-8.06617557090613"><ele>422.0</ele><time>2026-03-28T14:38:15Z</time></trkpt><trkpt lat="42.45377701579616" lon="-8.066123238598513"><ele>424.66666666666663</ele><time>2026-03-28T14:38:16Z</time></trkpt><trkpt lat="42.45391110188777" lon="-8.06602303208534"><ele>427.33333333333337</ele><time>2026-03-28T14:38:17Z</time></trkpt><trkpt lat="42.454047977394424" lon="-8.06595426250157"><ele>430.0</ele><time>2026-03-28T14:38:18Z</time></trkpt><trkpt lat="42.45417627407013" lon="-8.065839617890902"><ele>429.6666666666667</ele><time>2026-03-28T14:38:19Z</time></trkpt><trkpt lat="42.45430361559587" lon="-8.065743767375782"><ele>429.33333333333337</ele><time>2026-03-28T14:38:20Z</time></trkpt><trkpt lat="42.454444905764" lon="-8.06572406444445"><ele>429.0</ele><time>2026-03-28T14:38:21Z</time></trkpt><trkpt lat="42.45462155808725" lon="-8.065741515124145"><ele>429.0</ele><time>2026-03-28T14:38:22Z</time></trkpt><trkpt lat="42.454789086546356" lon="-8.065763982922387"><ele>429.0</ele><time>2026-03-28T14:38:23Z</time></trkpt><trkpt lat="42.454961265732464" lon="-8.065753010052221"><ele>429.0</ele><time>2026-03-28T14:38:24Z</time></trkpt><trkpt lat="42.455059462724776" lon="-8.065738116389078"><ele>429.0</ele><time>2026-03-28T14:38:24.999Z</time></trkpt><trkpt lat="42.455184337399814" lon="-8.065711539692392"><ele>429.0</ele><time>2026-03-28T14:38:25.999Z</time></trkpt><trkpt lat="42.45531779994599" lon="-8.065667031876478"><ele>429.0</ele><time>2026-03-28T14:38:26.999Z</time></trkpt><trkpt lat="42.45546019671937" lon="-8.065595133845864"><ele>429.0</ele><time>2026-03-28T14:38:27.999Z</time></trkpt><trkpt lat="42.455607844280806" lon="-8.06553378430836"><ele>429.0</ele><time>2026-03-28T14:38:28.999Z</time></trkpt><trkpt lat="42.4557370733539" lon="-8.06544195250312"><ele>430.75</ele><time>2026-03-28T14:38:29.999Z</time></trkpt><trkpt lat="42.45586051181356" lon="-8.065339822204077"><ele>432.5</ele><time>2026-03-28T14:38:30.999Z</time></trkpt><trkpt lat="42.45599023908839" lon="-8.06524665085092"><ele>434.25</ele><time>2026-03-28T14:38:31.999Z</time></trkpt><trkpt lat="42.45613100991666" lon="-8.065166939066676"><ele>436.0</ele><time>2026-03-28T14:38:32.999Z</time></trkpt><trkpt lat="42.456265235145224" lon="-8.065083911104901"><ele>437.5</ele><time>2026-03-28T14:38:33.999Z</time></trkpt><trkpt lat="42.4564002374118" lon="-8.065023875204343"><ele>439.0</ele><time>2026-03-28T14:38:34.999Z</time></trkpt><trkpt lat="42.45654682676726" lon="-8.064998586055358"><ele>440.5</ele><time>2026-03-28T14:38:35.999Z</time></trkpt><trkpt lat="42.45670210436273" lon="-8.065028739239796"><ele>442.0</ele><time>2026-03-28T14:38:36.999Z</time></trkpt><trkpt lat="42.45686923119524" lon="-8.065101725832815"><ele>442.0</ele><time>2026-03-28T14:38:37.999Z</time></trkpt><trkpt lat="42.45702756008926" lon="-8.065169877628797"><ele>442.0</ele><time>2026-03-28T14:38:38.999Z</time></trkpt><trkpt lat="42.45714141476874" lon="-8.065276762304745"><ele>442.0</ele><time>2026-03-28T14:38:39.999Z</time></trkpt><trkpt lat="42.45724304706665" lon="-8.065357637448098"><ele>442.0</ele><time>2026-03-28T14:38:40.999Z</time></trkpt><trkpt lat="42.45736692973762" lon="-8.065478141429468"><ele>443.25</ele><time>2026-03-28T14:38:41.999Z</time></trkpt><trkpt lat="42.457500724063664" lon="-8.0656093386142"><ele>444.5</ele><time>2026-03-28T14:38:42.999Z</time></trkpt><trkpt lat="42.45760821901228" lon="-8.065686663665907"><ele>445.75</ele><time>2026-03-28T14:38:43.999Z</time></trkpt><trkpt lat="42.45774629392255" lon="-8.065733249027412"><ele>447.0</ele><time>2026-03-28T14:38:44.999Z</time></trkpt><trkpt lat="42.457888032163595" lon="-8.065768092136025"><ele>451.0</ele><time>2026-03-28T14:38:45.999Z</time></trkpt><trkpt lat="42.4580330443806" lon="-8.065795944595784"><ele>455.0</ele><time>2026-03-28T14:38:46.999Z</time></trkpt><trkpt lat="42.45817477280692" lon="-8.065830453464883"><ele>459.0</ele><time>2026-03-28T14:38:47.999Z</time></trkpt><trkpt lat="42.458320637925354" lon="-8.065852643461698"><ele>463.0</ele><time>2026-03-28T14:38:48.999Z</time></trkpt><trkpt lat="42.45847455101454" lon="-8.065856401015917"><ele>463.0</ele><time>2026-03-28T14:38:49.999Z</time></trkpt><trkpt lat="42.45861187006735" lon="-8.065873874252569"><ele>463.0</ele><time>2026-03-28T14:38:50.999Z</time></trkpt><trkpt lat="42.45874553320788" lon="-8.06591829343561"><ele>463.0</ele><time>2026-03-28T14:38:51.999Z</time></trkpt><trkpt lat="42.45890051540384" lon="-8.065947213718891"><ele>463.0</ele><time>2026-03-28T14:38:52.999Z</time></trkpt><trkpt lat="42.45904063197239" lon="-8.066000251390241"><ele>464.25</ele><time>2026-03-28T14:38:53.999Z</time></trkpt><trkpt lat="42.45915980811288" lon="-8.06606713289484"><ele>465.5</ele><time>2026-03-28T14:38:54.999Z</time></trkpt><trkpt lat="42.45928138474717" lon="-8.066142017374231"><ele>466.75</ele><time>2026-03-28T14:38:55.999Z</time></trkpt><trkpt lat="42.459390288239106" lon="-8.066207664172321"><ele>468.0</ele><time>2026-03-28T14:38:56.999Z</time></trkpt><trkpt lat="42.45945826642315" lon="-8.066363619216608"><ele>468.0</ele><time>2026-03-28T14:38:57.999Z</time></trkpt><trkpt lat="42.45952333242759" lon="-8.066511910375974"><ele>468.0</ele><time>2026-03-28T14:38:58.999Z</time></trkpt><trkpt lat="42.45958799372838" lon="-8.06667302933353"><ele>468.0</ele><time>2026-03-28T14:38:59.999Z</time></trkpt><trkpt lat="42.459682607143364" lon="-8.066812610370022"><ele>468.0</ele><time>2026-03-28T14:39:00.999Z</time></trkpt><trkpt lat="42.459778441011146" lon="-8.066929785202122"><ele>470.25</ele><time>2026-03-28T14:39:01.999Z</time></trkpt><trkpt lat="42.459894085511316" lon="-8.066994126584833"><ele>472.5</ele><time>2026-03-28T14:39:02.999Z</time></trkpt><trkpt lat="42.46002225897041" lon="-8.067051129698351"><ele>474.75</ele><time>2026-03-28T14:39:03.999Z</time></trkpt><trkpt lat="42.46015364079557" lon="-8.067053083724954"><ele>477.0</ele><time>2026-03-28T14:39:04.999Z</time></trkpt><trkpt lat="42.460292868279865" lon="-8.067016129762937"><ele>477.0</ele><time>2026-03-28T14:39:05.999Z</time></trkpt><trkpt lat="42.460397977547714" lon="-8.066906219220321"><ele>477.0</ele><time>2026-03-28T14:39:06.999Z</time></trkpt><trkpt lat="42.46048587726964" lon="-8.066758562500839"><ele>477.0</ele><time>2026-03-28T14:39:07.999Z</time></trkpt><trkpt lat="42.460599372413114" lon="-8.06663060448237"><ele>477.0</ele><time>2026-03-28T14:39:08.999Z</time></trkpt><trkpt lat="42.460699563996045" lon="-8.06651142787276"><ele>477.25</ele><time>2026-03-28T14:39:09.999Z</time></trkpt><trkpt lat="42.460826554831364" lon="-8.066434354922764"><ele>477.5</ele><time>2026-03-28T14:39:10.999Z</time></trkpt><trkpt lat="42.46095581499631" lon="-8.066416925711115"><ele>477.75</ele><time>2026-03-28T14:39:11.999Z</time></trkpt><trkpt lat="42.461082285468" lon="-8.066376829103522"><ele>478.0</ele><time>2026-03-28T14:39:12.999Z</time></trkpt><trkpt lat="42.461222883117955" lon="-8.066357481802225"><ele>476.6666666666667</ele><time>2026-03-28T14:39:13.999Z</time></trkpt><trkpt lat="42.46137094631678" lon="-8.06634927123014"><ele>475.33333333333337</ele><time>2026-03-28T14:39:14.999Z</time></trkpt><trkpt lat="42.46151869345435" lon="-8.066358346685767"><ele>474.0</ele><time>2026-03-28T14:39:15.999Z</time></trkpt><trkpt lat="42.461691306233696" lon="-8.066412404167858"><ele>474.0</ele><time>2026-03-28T14:39:16.999Z</time></trkpt><trkpt lat="42.46184638985459" lon="-8.066472651951981"><ele>474.0</ele><time>2026-03-28T14:39:17.999Z</time></trkpt><trkpt lat="42.46199690167462" lon="-8.06647990988702"><ele>474.0</ele><time>2026-03-28T14:39:18.999Z</time></trkpt><trkpt lat="42.46214462106965" lon="-8.066419035971075"><ele>474.33333333333337</ele><time>2026-03-28T14:39:19.999Z</time></trkpt><trkpt lat="42.462296651644245" lon="-8.066340203794757"><ele>474.6666666666667</ele><time>2026-03-28T14:39:20.999Z</time></trkpt><trkpt lat="42.46245976760775" lon="-8.066263230670081"><ele>475.0</ele><time>2026-03-28T14:39:21.999Z</time></trkpt><trkpt lat="42.46260412139327" lon="-8.066197470680416"><ele>475.0</ele><time>2026-03-28T14:39:22.999Z</time></trkpt><trkpt lat="42.46276177070131" lon="-8.066126466691536"><ele>475.0</ele><time>2026-03-28T14:39:23.999Z</time></trkpt><trkpt lat="42.46291365150308" lon="-8.066056546885754"><ele>475.0</ele><time>2026-03-28T14:39:24.999Z</time></trkpt><trkpt lat="42.46308267539909" lon="-8.06597740495213"><ele>474.6666666666667</ele><time>2026-03-28T14:39:25.999Z</time></trkpt><trkpt lat="42.46323244739272" lon="-8.065907129039541"><ele>474.33333333333337</ele><time>2026-03-28T14:39:26.999Z</time></trkpt><trkpt lat="42.46338807791164" lon="-8.065833094886019"><ele>474.0</ele><time>2026-03-28T14:39:27.999Z</time></trkpt><trkpt lat="42.46354918056626" lon="-8.065756457613329"><ele>474.0</ele><time>2026-03-28T14:39:28.999Z</time></trkpt><trkpt lat="42.46370303551511" lon="-8.065694585314429"><ele>474.0</ele><time>2026-03-28T14:39:29.999Z</time></trkpt><trkpt lat="42.46386965914125" lon="-8.065622950092289"><ele>474.0</ele><time>2026-03-28T14:39:30.999Z</time></trkpt><trkpt lat="42.464045815566166" lon="-8.065579727365732"><ele>475.66666666666663</ele><time>2026-03-28T14:39:31.999Z</time></trkpt><trkpt lat="42.46421462664822" lon="-8.065550798434202"><ele>477.3333333333333</ele><time>2026-03-28T14:39:32.999Z</time></trkpt><trkpt lat="42.46438653356895" lon="-8.065511866730041"><ele>479.0</ele><time>2026-03-28T14:39:33.999Z</time></trkpt><trkpt lat="42.46456257036337" lon="-8.065476811372713"><ele>480.3333333333333</ele><time>2026-03-28T14:39:34.999Z</time></trkpt><trkpt lat="42.464720159477515" lon="-8.065363170948022"><ele>481.66666666666663</ele><time>2026-03-28T14:39:35.999Z</time></trkpt><trkpt lat="42.46486384368955" lon="-8.065270311808245"><ele>483.0</ele><time>2026-03-28T14:39:36.999Z</time></trkpt><trkpt lat="42.4650206622549" lon="-8.065154993623462"><ele>483.0</ele><time>2026-03-28T14:39:37.999Z</time></trkpt><trkpt lat="42.465189378238904" lon="-8.065055640744356"><ele>483.0</ele><time>2026-03-28T14:39:38.999Z</time></trkpt><trkpt lat="42.465391121754124" lon="-8.064959435850943"><ele>483.0</ele><time>2026-03-28T14:39:39.999Z</time></trkpt><trkpt lat="42.465552767222384" lon="-8.064914248752315"><ele>483.59999999999997</ele><time>2026-03-28T14:39:40.999Z</time></trkpt><trkpt lat="42.465650604516846" lon="-8.064941990001241"><ele>484.19999999999993</ele><time>2026-03-28T14:39:41.999Z</time></trkpt><trkpt lat="42.46569731154125" lon="-8.06500812395607"><ele>484.8</ele><time>2026-03-28T14:39:43Z</time></trkpt><trkpt lat="42.465796402291986" lon="-8.065100223143086"><ele>485.4</ele><time>2026-03-28T14:39:44Z</time></trkpt><trkpt lat="42.46591895634689" lon="-8.065180041022158"><ele>486.0</ele><time>2026-03-28T14:39:45Z</time></trkpt><trkpt lat="42.46603674616773" lon="-8.065259996878549"><ele>486.0</ele><time>2026-03-28T14:39:46Z</time></trkpt><trkpt lat="42.46614987633145" lon="-8.065323743299373"><ele>486.0</ele><time>2026-03-28T14:39:47Z</time></trkpt><trkpt lat="42.46625933791901" lon="-8.065347971221236"><ele>486.0</ele><time>2026-03-28T14:39:48Z</time></trkpt><trkpt lat="42.46636973001035" lon="-8.065303545262063"><ele>486.0</ele><time>2026-03-28T14:39:49Z</time></trkpt><trkpt lat="42.4665010397606" lon="-8.065258053430224"><ele>487.66666666666663</ele><time>2026-03-28T14:39:50Z</time></trkpt><trkpt lat="42.466668230034024" lon="-8.065226460999988"><ele>489.3333333333333</ele><time>2026-03-28T14:39:51Z</time></trkpt><trkpt lat="42.46685709421928" lon="-8.06514483199161"><ele>491.0</ele><time>2026-03-28T14:39:52Z</time></trkpt><trkpt lat="42.466960455921686" lon="-8.065035119101376"><ele>489.25</ele><time>2026-03-28T14:39:53Z</time></trkpt><trkpt lat="42.46699592112783" lon="-8.064930043040619"><ele>487.5</ele><time>2026-03-28T14:39:55Z</time></trkpt><trkpt lat="42.46705086483426" lon="-8.064766192813458"><ele>485.75</ele><time>2026-03-28T14:39:56Z</time></trkpt><trkpt lat="42.467109935578485" lon="-8.064598459567584"><ele>484.0</ele><time>2026-03-28T14:39:57Z</time></trkpt><trkpt lat="42.467185266684226" lon="-8.064435791842017"><ele>487.25</ele><time>2026-03-28T14:39:58Z</time></trkpt><trkpt lat="42.467235477547106" lon="-8.06426285083049"><ele>490.5</ele><time>2026-03-28T14:39:59Z</time></trkpt><trkpt lat="42.4673029254832" lon="-8.064097413393304"><ele>493.75</ele><time>2026-03-28T14:40:00Z</time></trkpt><trkpt lat="42.46736781691494" lon="-8.063936355375235"><ele>497.0</ele><time>2026-03-28T14:40:01Z</time></trkpt><trkpt lat="42.46743320725037" lon="-8.063774752222825"><ele>497.0</ele><time>2026-03-28T14:40:02Z</time></trkpt><trkpt lat="42.4674998983467" lon="-8.063626715122151"><ele>497.00000000000006</ele><time>2026-03-28T14:40:03Z</time></trkpt><trkpt lat="42.46755771621309" lon="-8.063499177849332"><ele>497.00000000000006</ele><time>2026-03-28T14:40:04Z</time></trkpt><trkpt lat="42.46760415800316" lon="-8.063394006891585"><ele>497.0</ele><time>2026-03-28T14:40:05Z</time></trkpt><trkpt lat="42.46764063807836" lon="-8.063319494893259"><ele>497.0</ele><time>2026-03-28T14:40:06Z</time></trkpt><trkpt lat="42.46766641829265" lon="-8.06324033920832"><ele>497.0</ele><time>2026-03-28T14:40:08Z</time></trkpt><trkpt lat="42.46779023600418" lon="-8.063353544369711"><ele>497.00000000000006</ele><time>2026-03-28T14:40:12Z</time></trkpt><trkpt lat="42.4678507855082" lon="-8.063470307295159"><ele>497.00000000000006</ele><time>2026-03-28T14:40:14Z</time></trkpt><trkpt lat="42.46794739801754" lon="-8.063570046406184"><ele>497.0</ele><time>2026-03-28T14:40:16Z</time></trkpt><trkpt lat="42.468011904113595" lon="-8.063588540656509"><ele>497.0</ele><time>2026-03-28T14:40:17Z</time></trkpt><trkpt lat="42.46807433313177" lon="-8.06362061674269"><ele>498.8</ele><time>2026-03-28T14:40:18Z</time></trkpt><trkpt lat="42.468165790313606" lon="-8.063665345986617"><ele>500.6</ele><time>2026-03-28T14:40:20Z</time></trkpt><trkpt lat="42.46820346982442" lon="-8.063579139983112"><ele>502.40000000000003</ele><time>2026-03-28T14:40:23Z</time></trkpt><trkpt lat="42.468259279534216" lon="-8.06341180466839"><ele>504.20000000000005</ele><time>2026-03-28T14:40:25Z</time></trkpt><trkpt lat="42.46829322416031" lon="-8.06331552442137"><ele>506.0</ele><time>2026-03-28T14:40:26Z</time></trkpt><trkpt lat="42.4683652753679" lon="-8.063204852007985"><ele>506.0</ele><time>2026-03-28T14:40:27Z</time></trkpt><trkpt lat="42.46844642378995" lon="-8.063087525085345"><ele>506.0</ele><time>2026-03-28T14:40:29Z</time></trkpt><trkpt lat="42.46857109314262" lon="-8.063032862170374"><ele>506.0</ele><time>2026-03-28T14:40:31Z</time></trkpt><trkpt lat="42.46866013788305" lon="-8.062983602090094"><ele>506.0</ele><time>2026-03-28T14:40:32Z</time></trkpt><trkpt lat="42.468746902338665" lon="-8.062954360556425"><ele>506.0</ele><time>2026-03-28T14:40:33Z</time></trkpt><trkpt lat="42.46884318507457" lon="-8.062939432559867"><ele>507.8</ele><time>2026-03-28T14:40:34Z</time></trkpt><trkpt lat="42.46891172445933" lon="-8.062917890608396"><ele>509.6</ele><time>2026-03-28T14:40:35Z</time></trkpt><trkpt lat="42.46901798266198" lon="-8.062878292056428"><ele>511.4</ele><time>2026-03-28T14:40:37Z</time></trkpt><trkpt lat="42.46918754282585" lon="-8.062865017471054"><ele>513.2</ele><time>2026-03-28T14:40:39Z</time></trkpt><trkpt lat="42.46925192392049" lon="-8.062861023235477"><ele>515.0</ele><time>2026-03-28T14:40:40Z</time></trkpt><trkpt lat="42.469321118608555" lon="-8.06285666708024"><ele>515.0</ele><time>2026-03-28T14:40:43Z</time></trkpt><trkpt lat="42.46938708244712" lon="-8.062852493739394"><ele>515.0</ele><time>2026-03-28T14:40:46Z</time></trkpt><trkpt lat="42.46938127995329" lon="-8.062742956921515"><ele>515.0</ele><time>2026-03-28T14:40:51Z</time></trkpt><trkpt lat="42.469322191186265" lon="-8.062701183269914"><ele>515.0</ele><time>2026-03-28T14:40:53Z</time></trkpt><trkpt lat="42.4692569232885" lon="-8.06264854600287"><ele>515.0</ele><time>2026-03-28T14:40:54.999Z</time></trkpt><trkpt lat="42.4691750750066" lon="-8.062578816698737"><ele>515.0</ele><time>2026-03-28T14:40:56.999Z</time></trkpt><trkpt lat="42.46908509544736" lon="-8.06250984767212"><ele>515.0</ele><time>2026-03-28T14:40:59.999Z</time></trkpt><trkpt lat="42.469008552934426" lon="-8.06247583630274"><ele>515.0</ele><time>2026-03-28T14:41:01.999Z</time></trkpt><trkpt lat="42.46894652896689" lon="-8.062419338896959"><ele>515.0</ele><time>2026-03-28T14:41:03.999Z</time></trkpt><trkpt lat="42.468878998716164" lon="-8.062396970627946"><ele>515.0</ele><time>2026-03-28T14:41:05.999Z</time></trkpt><trkpt lat="42.46881635290165" lon="-8.062385400487742"><ele>515.0</ele><time>2026-03-28T14:41:08.999Z</time></trkpt><trkpt lat="42.4687443201653" lon="-8.062384831301266"><ele>515.0</ele><time>2026-03-28T14:41:13.999Z</time></trkpt><trkpt lat="42.46869665601325" lon="-8.06231865140709"><ele>515.0</ele><time>2026-03-28T14:43:11.999Z</time></trkpt><trkpt lat="42.4686145417764" lon="-8.062253715352952"><ele>512.1666666666666</ele><time>2026-03-28T14:43:13.999Z</time></trkpt><trkpt lat="42.468550438366556" lon="-8.062192632257272"><ele>509.3333333333333</ele><time>2026-03-28T14:43:15.999Z</time></trkpt><trkpt lat="42.468495479385474" lon="-8.062132658492917"><ele>506.5</ele><time>2026-03-28T14:43:17.999Z</time></trkpt><trkpt lat="42.468438039157476" lon="-8.062068017927453"><ele>503.66666666666663</ele><time>2026-03-28T14:43:19.999Z</time></trkpt><trkpt lat="42.46838601911779" lon="-8.062008989994633"><ele>500.8333333333333</ele><time>2026-03-28T14:43:23.999Z</time></trkpt><trkpt lat="42.46848183245319" lon="-8.061881485064797"><ele>498.0</ele><time>2026-03-28T14:43:26.999Z</time></trkpt><trkpt lat="42.468537562762045" lon="-8.061838970539045"><ele>498.0</ele><time>2026-03-28T14:43:27.999Z</time></trkpt><trkpt lat="42.46861438435906" lon="-8.061820483329527"><ele>498.0</ele><time>2026-03-28T14:43:28.999Z</time></trkpt><trkpt lat="42.46868645447668" lon="-8.06177204781471"><ele>498.0</ele><time>2026-03-28T14:43:29.999Z</time></trkpt><trkpt lat="42.46876821801914" lon="-8.061731840017638"><ele>498.0</ele><time>2026-03-28T14:43:30.999Z</time></trkpt><trkpt lat="42.46884588558163" lon="-8.061688824840422"><ele>498.0</ele><time>2026-03-28T14:43:31.999Z</time></trkpt><trkpt lat="42.468949709957805" lon="-8.061634186653322"><ele>498.0</ele><time>2026-03-28T14:43:32.999Z</time></trkpt><trkpt lat="42.469018881282224" lon="-8.061586680156518"><ele>497.8333333333333</ele><time>2026-03-28T14:43:33.999Z</time></trkpt><trkpt lat="42.46910008653667" lon="-8.061545503857426"><ele>497.66666666666663</ele><time>2026-03-28T14:43:34.999Z</time></trkpt><trkpt lat="42.469177510576586" lon="-8.061502826956504"><ele>497.5</ele><time>2026-03-28T14:43:35.999Z</time></trkpt><trkpt lat="42.46925975322787" lon="-8.061456122185128"><ele>497.3333333333333</ele><time>2026-03-28T14:43:36.999Z</time></trkpt><trkpt lat="42.4693317554968" lon="-8.061411585663627"><ele>497.16666666666663</ele><time>2026-03-28T14:43:37.999Z</time></trkpt><trkpt lat="42.46941254141725" lon="-8.061373955086937"><ele>497.0</ele><time>2026-03-28T14:43:38.999Z</time></trkpt><trkpt lat="42.46948360215401" lon="-8.061329622500724"><ele>497.0</ele><time>2026-03-28T14:43:39.999Z</time></trkpt><trkpt lat="42.469560683363895" lon="-8.061283068006945"><ele>497.00000000000006</ele><time>2026-03-28T14:43:40.999Z</time></trkpt><trkpt lat="42.469638168657944" lon="-8.061231752538193"><ele>497.00000000000006</ele><time>2026-03-28T14:43:41.999Z</time></trkpt><trkpt lat="42.46972531768928" lon="-8.061181723006623"><ele>497.0</ele><time>2026-03-28T14:43:42.999Z</time></trkpt><trkpt lat="42.46981552289009" lon="-8.061120527324592"><ele>497.0</ele><time>2026-03-28T14:43:43.999Z</time></trkpt><trkpt lat="42.46991062527961" lon="-8.061060999622448"><ele>499.25</ele><time>2026-03-28T14:43:44.999Z</time></trkpt><trkpt lat="42.470036165572175" lon="-8.06100942990508"><ele>501.5</ele><time>2026-03-28T14:43:45.999Z</time></trkpt><trkpt lat="42.470146618613704" lon="-8.060948830542241"><ele>503.75</ele><time>2026-03-28T14:43:46.999Z</time></trkpt><trkpt lat="42.47026390473851" lon="-8.060873317951094"><ele>506.0</ele><time>2026-03-28T14:43:47.999Z</time></trkpt><trkpt lat="42.47038123299133" lon="-8.060791956108453"><ele>507.25</ele><time>2026-03-28T14:43:48.999Z</time></trkpt><trkpt lat="42.47049238647726" lon="-8.060686999545524"><ele>508.5</ele><time>2026-03-28T14:43:49.999Z</time></trkpt><trkpt lat="42.47060120073206" lon="-8.06057042801988"><ele>509.75</ele><time>2026-03-28T14:43:50.999Z</time></trkpt><trkpt lat="42.47069609509065" lon="-8.060427179640453"><ele>511.0</ele><time>2026-03-28T14:43:51.999Z</time></trkpt><trkpt lat="42.47078763989389" lon="-8.060285285492311"><ele>511.0</ele><time>2026-03-28T14:43:52.999Z</time></trkpt><trkpt lat="42.470889582362595" lon="-8.06014811671948"><ele>511.0</ele><time>2026-03-28T14:43:53.999Z</time></trkpt><trkpt lat="42.4709818023843" lon="-8.060005101653072"><ele>511.0</ele><time>2026-03-28T14:43:55Z</time></trkpt><trkpt lat="42.4710768304221" lon="-8.05986385330464"><ele>511.0</ele><time>2026-03-28T14:43:56Z</time></trkpt><trkpt lat="42.471162271540585" lon="-8.059731078357986"><ele>510.75</ele><time>2026-03-28T14:43:57Z</time></trkpt><trkpt lat="42.47124394925074" lon="-8.05959658309706"><ele>510.5</ele><time>2026-03-28T14:43:58Z</time></trkpt><trkpt lat="42.47132617744282" lon="-8.059473638622734"><ele>510.25</ele><time>2026-03-28T14:43:59Z</time></trkpt><trkpt lat="42.47141532164438" lon="-8.059357452387566"><ele>510.0</ele><time>2026-03-28T14:44:00Z</time></trkpt><trkpt lat="42.47150288988911" lon="-8.059248772841556"><ele>509.75</ele><time>2026-03-28T14:44:01Z</time></trkpt><trkpt lat="42.47160780247506" lon="-8.059165853788542"><ele>509.5</ele><time>2026-03-28T14:44:02Z</time></trkpt><trkpt lat="42.471716668267845" lon="-8.059097848638297"><ele>509.25</ele><time>2026-03-28T14:44:03Z</time></trkpt><trkpt lat="42.47181911896107" lon="-8.059041451505236"><ele>509.0</ele><time>2026-03-28T14:44:04Z</time></trkpt><trkpt lat="42.471929653755545" lon="-8.058993439795998"><ele>509.0</ele><time>2026-03-28T14:44:05Z</time></trkpt><trkpt lat="42.472029088972974" lon="-8.058939990184507"><ele>509.0</ele><time>2026-03-28T14:44:06Z</time></trkpt><trkpt lat="42.47214426443519" lon="-8.058878239973396"><ele>509.0</ele><time>2026-03-28T14:44:07Z</time></trkpt><trkpt lat="42.472240002832436" lon="-8.058814905739192"><ele>509.0</ele><time>2026-03-28T14:44:08Z</time></trkpt><trkpt lat="42.472361858014075" lon="-8.058760709891654"><ele>511.25</ele><time>2026-03-28T14:44:09Z</time></trkpt><trkpt lat="42.47247943123595" lon="-8.058699921049246"><ele>513.5</ele><time>2026-03-28T14:44:10Z</time></trkpt><trkpt lat="42.472587286207656" lon="-8.058620470300248"><ele>515.75</ele><time>2026-03-28T14:44:11Z</time></trkpt><trkpt lat="42.47269368827254" lon="-8.058553302863306"><ele>518.0</ele><time>2026-03-28T14:44:12Z</time></trkpt><trkpt lat="42.472808919314424" lon="-8.058500189077717"><ele>518.0</ele><time>2026-03-28T14:44:13Z</time></trkpt><trkpt lat="42.472921716254596" lon="-8.058466693871448"><ele>518.0</ele><time>2026-03-28T14:44:14Z</time></trkpt><trkpt lat="42.47304485001954" lon="-8.058451494435962"><ele>518.0</ele><time>2026-03-28T14:44:15Z</time></trkpt><trkpt lat="42.47317262239603" lon="-8.05843352304633"><ele>518.0</ele><time>2026-03-28T14:44:16Z</time></trkpt><trkpt lat="42.47329802704031" lon="-8.058420034544136"><ele>517.75</ele><time>2026-03-28T14:44:17Z</time></trkpt><trkpt lat="42.47342960047991" lon="-8.058417341492785"><ele>517.5</ele><time>2026-03-28T14:44:18Z</time></trkpt><trkpt lat="42.47357670017352" lon="-8.0584257146342"><ele>517.25</ele><time>2026-03-28T14:44:19Z</time></trkpt><trkpt lat="42.47370820766485" lon="-8.058406452135406"><ele>517.0</ele><time>2026-03-28T14:44:20Z</time></trkpt><trkpt lat="42.47383246811439" lon="-8.058308014190363"><ele>514.5</ele><time>2026-03-28T14:44:21Z</time></trkpt><trkpt lat="42.473956729150316" lon="-8.058196177196999"><ele>512.0</ele><time>2026-03-28T14:44:22Z</time></trkpt><trkpt lat="42.47407037213784" lon="-8.058080198063184"><ele>509.5</ele><time>2026-03-28T14:44:23Z</time></trkpt><trkpt lat="42.47418040865774" lon="-8.057990001518547"><ele>507.0</ele><time>2026-03-28T14:44:24Z</time></trkpt><trkpt lat="42.474274086855" lon="-8.057894656862642"><ele>507.0</ele><time>2026-03-28T14:44:25Z</time></trkpt><trkpt lat="42.47435885792673" lon="-8.057798297041865"><ele>507.00000000000006</ele><time>2026-03-28T14:44:26Z</time></trkpt><trkpt lat="42.474449814264005" lon="-8.057718452155108"><ele>507.00000000000006</ele><time>2026-03-28T14:44:27Z</time></trkpt><trkpt lat="42.47453065956698" lon="-8.05765093365101"><ele>507.0</ele><time>2026-03-28T14:44:28Z</time></trkpt><trkpt lat="42.47461515632759" lon="-8.057581240060392"><ele>507.0</ele><time>2026-03-28T14:44:29Z</time></trkpt><trkpt lat="42.474691639787835" lon="-8.057531237348847"><ele>506.40000000000003</ele><time>2026-03-28T14:44:30Z</time></trkpt><trkpt lat="42.47478811997849" lon="-8.057492818557945"><ele>505.80000000000007</ele><time>2026-03-28T14:44:31Z</time></trkpt><trkpt lat="42.474877481633925" lon="-8.057449851076314"><ele>505.2</ele><time>2026-03-28T14:44:32Z</time></trkpt><trkpt lat="42.47495843107068" lon="-8.057385932009227"><ele>504.6</ele><time>2026-03-28T14:44:33Z</time></trkpt><trkpt lat="42.47505299639146" lon="-8.057302539491054"><ele>504.0</ele><time>2026-03-28T14:44:34Z</time></trkpt><trkpt lat="42.47512535547621" lon="-8.05717703790414"><ele>504.0</ele><time>2026-03-28T14:44:35Z</time></trkpt><trkpt lat="42.47517388131162" lon="-8.057047394056978"><ele>504.0</ele><time>2026-03-28T14:44:36Z</time></trkpt><trkpt lat="42.47521693384809" lon="-8.056913631629888"><ele>504.0</ele><time>2026-03-28T14:44:37Z</time></trkpt><trkpt lat="42.47524453761941" lon="-8.056768293668487"><ele>504.0</ele><time>2026-03-28T14:44:38Z</time></trkpt><trkpt lat="42.47527596696918" lon="-8.056639375816745"><ele>504.0</ele><time>2026-03-28T14:44:39Z</time></trkpt><trkpt lat="42.47531082818387" lon="-8.056511815967953"><ele>504.4</ele><time>2026-03-28T14:44:40Z</time></trkpt><trkpt lat="42.47534971740028" lon="-8.056393626303644"><ele>504.79999999999995</ele><time>2026-03-28T14:44:41Z</time></trkpt><trkpt lat="42.475382528030416" lon="-8.056267439433404"><ele>505.20000000000005</ele><time>2026-03-28T14:44:42Z</time></trkpt><trkpt lat="42.47541697075284" lon="-8.056157905959697"><ele>505.6</ele><time>2026-03-28T14:44:43Z</time></trkpt><trkpt lat="42.47546723136833" lon="-8.056055509077732"><ele>506.0</ele><time>2026-03-28T14:44:44Z</time></trkpt><trkpt lat="42.47553382115534" lon="-8.05595533241982"><ele>506.0</ele><time>2026-03-28T14:44:45Z</time></trkpt><trkpt lat="42.47560355125534" lon="-8.055864589865136"><ele>506.0</ele><time>2026-03-28T14:44:46Z</time></trkpt><trkpt lat="42.47567568608435" lon="-8.055779276141422"><ele>506.0</ele><time>2026-03-28T14:44:47Z</time></trkpt><trkpt lat="42.47576036559945" lon="-8.055701445363567"><ele>506.0</ele><time>2026-03-28T14:44:48Z</time></trkpt><trkpt lat="42.47584462458468" lon="-8.05563484891147"><ele>506.0</ele><time>2026-03-28T14:44:49Z</time></trkpt><trkpt lat="42.47593715517848" lon="-8.055575579519353"><ele>504.8</ele><time>2026-03-28T14:44:50Z</time></trkpt><trkpt lat="42.476025880325736" lon="-8.05552556813631"><ele>503.6</ele><time>2026-03-28T14:44:51Z</time></trkpt><trkpt lat="42.476102497193125" lon="-8.05543196179746"><ele>502.4</ele><time>2026-03-28T14:44:52Z</time></trkpt><trkpt lat="42.47612104704507" lon="-8.055285723680749"><ele>501.2</ele><time>2026-03-28T14:44:53Z</time></trkpt><trkpt lat="42.4761681702087" lon="-8.055165981999986"><ele>500.0</ele><time>2026-03-28T14:44:54Z</time></trkpt><trkpt lat="42.476194144615924" lon="-8.055039866158541"><ele>499.6</ele><time>2026-03-28T14:44:55Z</time></trkpt><trkpt lat="42.476231261703006" lon="-8.054935500780106"><ele>499.2</ele><time>2026-03-28T14:44:56Z</time></trkpt><trkpt lat="42.47627444609151" lon="-8.05483854084786"><ele>498.79999999999995</ele><time>2026-03-28T14:44:57Z</time></trkpt><trkpt lat="42.47631457585194" lon="-8.054763698099007"><ele>498.4</ele><time>2026-03-28T14:44:58Z</time></trkpt><trkpt lat="42.47636401596327" lon="-8.05466488742755"><ele>498.0</ele><time>2026-03-28T14:45:00Z</time></trkpt><trkpt lat="42.47627821125218" lon="-8.054538806432403"><ele>498.0</ele><time>2026-03-28T14:45:03Z</time></trkpt><trkpt lat="42.476205889354205" lon="-8.054448800009558"><ele>498.0</ele><time>2026-03-28T14:45:05Z</time></trkpt><trkpt lat="42.47612607206321" lon="-8.054332281221894"><ele>498.0</ele><time>2026-03-28T14:45:07Z</time></trkpt><trkpt lat="42.476075909313" lon="-8.054259792348661"><ele>498.0</ele><time>2026-03-28T14:45:08Z</time></trkpt><trkpt lat="42.47603370818511" lon="-8.054189171716034"><ele>498.0</ele><time>2026-03-28T14:45:09Z</time></trkpt><trkpt lat="42.47598436533703" lon="-8.054112403530947"><ele>498.0</ele><time>2026-03-28T14:45:10Z</time></trkpt><trkpt lat="42.4759316186282" lon="-8.054041619219207"><ele>497.5</ele><time>2026-03-28T14:45:10.999Z</time></trkpt><trkpt lat="42.47588297090309" lon="-8.053978907419229"><ele>497.0</ele><time>2026-03-28T14:45:11.999Z</time></trkpt><trkpt lat="42.475815825362474" lon="-8.053918698479581"><ele>496.5</ele><time>2026-03-28T14:45:12.999Z</time></trkpt><trkpt lat="42.47573604794167" lon="-8.05386450073611"><ele>496.0</ele><time>2026-03-28T14:45:13.999Z</time></trkpt><trkpt lat="42.475667270891144" lon="-8.05382628462538"><ele>495.5</ele><time>2026-03-28T14:45:14.999Z</time></trkpt><trkpt lat="42.47558926588256" lon="-8.053776684427202"><ele>495.0</ele><time>2026-03-28T14:45:15.999Z</time></trkpt><trkpt lat="42.47551177367918" lon="-8.053729774864468"><ele>493.6</ele><time>2026-03-28T14:45:16.999Z</time></trkpt><trkpt lat="42.47542957602766" lon="-8.053677848170846"><ele>492.2</ele><time>2026-03-28T14:45:17.999Z</time></trkpt><trkpt lat="42.475344203341976" lon="-8.053620332743705"><ele>490.79999999999995</ele><time>2026-03-28T14:45:18.999Z</time></trkpt><trkpt lat="42.47526187378337" lon="-8.05356434295156"><ele>489.4</ele><time>2026-03-28T14:45:19.999Z</time></trkpt><trkpt lat="42.47517327538061" lon="-8.0535096656136"><ele>488.0</ele><time>2026-03-28T14:45:20.999Z</time></trkpt><trkpt lat="42.475080284989566" lon="-8.053451389559143"><ele>488.0</ele><time>2026-03-28T14:45:21.999Z</time></trkpt><trkpt lat="42.47498569803688" lon="-8.053393875590581"><ele>487.99999999999994</ele><time>2026-03-28T14:45:22.999Z</time></trkpt><trkpt lat="42.474892965369" lon="-8.053330115973878"><ele>487.99999999999994</ele><time>2026-03-28T14:45:23.999Z</time></trkpt><trkpt lat="42.47480004934307" lon="-8.053273470322054"><ele>488.0</ele><time>2026-03-28T14:45:24.999Z</time></trkpt><trkpt lat="42.47471367020477" lon="-8.05322073850628"><ele>488.0</ele><time>2026-03-28T14:45:25.999Z</time></trkpt><trkpt lat="42.474613383171665" lon="-8.0531557568577"><ele>485.66666666666663</ele><time>2026-03-28T14:45:26.999Z</time></trkpt><trkpt lat="42.474528278689185" lon="-8.053094900840879"><ele>483.3333333333333</ele><time>2026-03-28T14:45:27.999Z</time></trkpt><trkpt lat="42.47444489341553" lon="-8.05303986535325"><ele>481.0</ele><time>2026-03-28T14:45:28.999Z</time></trkpt><trkpt lat="42.47436593245611" lon="-8.052997694358638"><ele>478.66666666666663</ele><time>2026-03-28T14:45:29.999Z</time></trkpt><trkpt lat="42.474285647395014" lon="-8.052946434739429"><ele>476.3333333333333</ele><time>2026-03-28T14:45:30.999Z</time></trkpt><trkpt lat="42.4742162338859" lon="-8.052906949025596"><ele>474.0</ele><time>2026-03-28T14:45:31.999Z</time></trkpt><trkpt lat="42.47414999509014" lon="-8.052852105216939"><ele>474.0</ele><time>2026-03-28T14:45:32.999Z</time></trkpt><trkpt lat="42.47405195854588" lon="-8.052787371945103"><ele>474.0</ele><time>2026-03-28T14:45:34.999Z</time></trkpt><trkpt lat="42.4739731442935" lon="-8.052770739187924"><ele>474.0</ele><time>2026-03-28T14:45:36.999Z</time></trkpt><trkpt lat="42.47390779705945" lon="-8.052832890335479"><ele>474.0</ele><time>2026-03-28T14:45:38.999Z</time></trkpt><trkpt lat="42.47385502423108" lon="-8.052955567953965"><ele>474.0</ele><time>2026-03-28T14:45:40.999Z</time></trkpt><trkpt lat="42.473795919947996" lon="-8.053024500916887"><ele>472.79999999999995</ele><time>2026-03-28T14:45:42.999Z</time></trkpt><trkpt lat="42.47369962177004" lon="-8.053011839284798"><ele>471.59999999999997</ele><time>2026-03-28T14:45:44.999Z</time></trkpt><trkpt lat="42.47357989747844" lon="-8.052985842483684"><ele>470.4</ele><time>2026-03-28T14:45:46.999Z</time></trkpt><trkpt lat="42.47347050435691" lon="-8.052948537659347"><ele>469.2</ele><time>2026-03-28T14:45:48.999Z</time></trkpt><trkpt lat="42.473375930191025" lon="-8.052931820639543"><ele>468.0</ele><time>2026-03-28T14:45:50.999Z</time></trkpt><trkpt lat="42.47330269319094" lon="-8.053012569173491"><ele>468.0</ele><time>2026-03-28T14:45:52.999Z</time></trkpt><trkpt lat="42.47323632147048" lon="-8.0531238138387"><ele>467.99999999999994</ele><time>2026-03-28T14:45:54.999Z</time></trkpt><trkpt lat="42.47320031232558" lon="-8.053233883218647"><ele>467.99999999999994</ele><time>2026-03-28T14:45:56.999Z</time></trkpt><trkpt lat="42.4731662571238" lon="-8.05337010783611"><ele>468.0</ele><time>2026-03-28T14:45:58.999Z</time></trkpt><trkpt lat="42.47311921497947" lon="-8.053499293075612"><ele>468.0</ele><time>2026-03-28T14:46:01Z</time></trkpt><trkpt lat="42.47306245842796" lon="-8.05354427859848"><ele>469.0</ele><time>2026-03-28T14:46:02Z</time></trkpt><trkpt lat="42.4730345575888" lon="-8.05366403575143"><ele>470.0</ele><time>2026-03-28T14:46:04Z</time></trkpt><trkpt lat="42.4730522188071" lon="-8.053762212847083"><ele>471.0</ele><time>2026-03-28T14:46:06Z</time></trkpt><trkpt lat="42.473028931655584" lon="-8.053846951426761"><ele>472.0</ele><time>2026-03-28T14:46:08Z</time></trkpt><trkpt lat="42.473118985007396" lon="-8.053900863281642"><ele>473.0</ele><time>2026-03-28T14:46:11Z</time></trkpt><trkpt lat="42.47318358965802" lon="-8.053886274016314"><ele>474.0</ele><time>2026-03-28T14:46:13Z</time></trkpt><trkpt lat="42.47324188535727" lon="-8.053936281839489"><ele>474.0</ele><time>2026-03-28T14:46:16Z</time></trkpt><trkpt lat="42.473100188609294" lon="-8.053710396071285"><ele>474.0</ele><time>2026-03-28T14:50:49Z</time></trkpt><trkpt lat="42.47333607891316" lon="-8.05376993856085"><ele>474.0</ele><time>2026-03-28T14:56:39.999Z</time></trkpt><trkpt lat="42.47304658106517" lon="-8.05388535143314"><ele>474.0</ele><time>2026-03-28T15:03:29Z</time></trkpt><trkpt lat="42.472962822730935" lon="-8.053882968289573"><ele>474.0</ele><time>2026-03-28T15:03:32Z</time></trkpt><trkpt lat="42.472895004162694" lon="-8.053863261265416"><ele>473.0</ele><time>2026-03-28T15:03:34Z</time></trkpt><trkpt lat="42.472835937609304" lon="-8.05382074728579"><ele>472.0</ele><time>2026-03-28T15:03:36Z</time></trkpt><trkpt lat="42.472759640094125" lon="-8.053792889699475"><ele>471.0</ele><time>2026-03-28T15:03:40Z</time></trkpt><trkpt lat="42.47279198853506" lon="-8.053719612418625"><ele>470.0</ele><time>2026-03-28T15:04:33Z</time></trkpt><trkpt lat="42.47277666876984" lon="-8.053621926259629"><ele>469.0</ele><time>2026-03-28T15:05:15Z</time></trkpt><trkpt lat="42.47279842621195" lon="-8.053732735249127"><ele>468.0</ele><time>2026-03-28T15:05:23Z</time></trkpt><trkpt lat="42.47286189750966" lon="-8.053820420050057"><ele>468.59999999999997</ele><time>2026-03-28T15:05:25Z</time></trkpt><trkpt lat="42.472949571015235" lon="-8.053838297320935"><ele>469.19999999999993</ele><time>2026-03-28T15:05:27Z</time></trkpt><trkpt lat="42.47301183215293" lon="-8.053888845710858"><ele>469.8</ele><time>2026-03-28T15:05:29Z</time></trkpt><trkpt lat="42.47297935121029" lon="-8.054066508015309"><ele>470.4</ele><time>2026-03-28T15:05:32Z</time></trkpt><trkpt lat="42.47292691170095" lon="-8.054183695811776"><ele>471.0</ele><time>2026-03-28T15:05:34Z</time></trkpt><trkpt lat="42.47290102324941" lon="-8.05430794172884"><ele>471.0</ele><time>2026-03-28T15:05:36Z</time></trkpt><trkpt lat="42.47293902707804" lon="-8.054437518642429"><ele>471.0</ele><time>2026-03-28T15:05:38Z</time></trkpt><trkpt lat="42.47298718791806" lon="-8.054563914719461"><ele>471.0</ele><time>2026-03-28T15:05:40Z</time></trkpt><trkpt lat="42.47303064652958" lon="-8.054707850704055"><ele>471.0</ele><time>2026-03-28T15:05:42Z</time></trkpt><trkpt lat="42.473066553942324" lon="-8.054807693913324"><ele>471.0</ele><time>2026-03-28T15:05:44Z</time></trkpt><trkpt lat="42.47296689221313" lon="-8.054937830438819"><ele>471.5</ele><time>2026-03-28T15:05:46Z</time></trkpt><trkpt lat="42.472900600363914" lon="-8.055072560486467"><ele>472.0</ele><time>2026-03-28T15:05:48Z</time></trkpt><trkpt lat="42.472864625404945" lon="-8.055153194575105"><ele>472.5</ele><time>2026-03-28T15:05:49Z</time></trkpt><trkpt lat="42.47282763043079" lon="-8.055239359899959"><ele>473.0</ele><time>2026-03-28T15:05:50Z</time></trkpt><trkpt lat="42.47279565221047" lon="-8.055333092567366"><ele>473.5</ele><time>2026-03-28T15:05:51Z</time></trkpt><trkpt lat="42.4727638593544" lon="-8.05542623603598"><ele>474.0</ele><time>2026-03-28T15:05:52Z</time></trkpt><trkpt lat="42.47272909845173" lon="-8.055547528355882"><ele>474.0</ele><time>2026-03-28T15:05:53Z</time></trkpt><trkpt lat="42.47266975456189" lon="-8.055633884916208"><ele>474.0</ele><time>2026-03-28T15:05:54Z</time></trkpt><trkpt lat="42.47259377793879" lon="-8.05569211819466"><ele>474.0</ele><time>2026-03-28T15:05:55Z</time></trkpt><trkpt lat="42.47250451929487" lon="-8.05573524965135"><ele>474.0</ele><time>2026-03-28T15:05:56Z</time></trkpt><trkpt lat="42.472406081546794" lon="-8.05575577357308"><ele>474.0</ele><time>2026-03-28T15:05:57Z</time></trkpt><trkpt lat="42.47231053031939" lon="-8.055771619177968"><ele>476.79999999999995</ele><time>2026-03-28T15:05:58Z</time></trkpt><trkpt lat="42.47223423075632" lon="-8.055802604191342"><ele>479.59999999999997</ele><time>2026-03-28T15:05:59Z</time></trkpt><trkpt lat="42.47213290125671" lon="-8.05586130761175"><ele>482.4</ele><time>2026-03-28T15:06:00Z</time></trkpt><trkpt lat="42.47204905231153" lon="-8.055900595891996"><ele>485.2</ele><time>2026-03-28T15:06:01Z</time></trkpt><trkpt lat="42.47197793980675" lon="-8.055976309164304"><ele>488.0</ele><time>2026-03-28T15:06:02Z</time></trkpt><trkpt lat="42.47190794102749" lon="-8.056039182663245"><ele>488.0</ele><time>2026-03-28T15:06:03Z</time></trkpt><trkpt lat="42.471833685125006" lon="-8.056115945734122"><ele>487.99999999999994</ele><time>2026-03-28T15:06:04Z</time></trkpt><trkpt lat="42.47174183978722" lon="-8.056180725670963"><ele>487.99999999999994</ele><time>2026-03-28T15:06:05Z</time></trkpt><trkpt lat="42.47168612811202" lon="-8.056282697602365"><ele>488.0</ele><time>2026-03-28T15:06:06Z</time></trkpt><trkpt lat="42.471625913516334" lon="-8.056369272467629"><ele>488.0</ele><time>2026-03-28T15:06:07Z</time></trkpt><trkpt lat="42.4716193937561" lon="-8.056503390797424"><ele>491.0</ele><time>2026-03-28T15:06:08Z</time></trkpt><trkpt lat="42.47161864225311" lon="-8.056643567244114"><ele>493.99999999999994</ele><time>2026-03-28T15:06:09Z</time></trkpt><trkpt lat="42.47162637799779" lon="-8.056788943089254"><ele>496.99999999999994</ele><time>2026-03-28T15:06:10Z</time></trkpt><trkpt lat="42.47163658891751" lon="-8.05692770662451"><ele>500.0</ele><time>2026-03-28T15:06:11Z</time></trkpt><trkpt lat="42.47166240842842" lon="-8.057070034253135"><ele>503.0</ele><time>2026-03-28T15:06:12Z</time></trkpt><trkpt lat="42.47168058166943" lon="-8.057219449771237"><ele>503.0</ele><time>2026-03-28T15:06:13Z</time></trkpt><trkpt lat="42.47170168286029" lon="-8.057359187722483"><ele>502.99999999999994</ele><time>2026-03-28T15:06:14Z</time></trkpt><trkpt lat="42.47172849035189" lon="-8.057493980852021"><ele>502.99999999999994</ele><time>2026-03-28T15:06:15Z</time></trkpt><trkpt lat="42.47176550407923" lon="-8.057651442253828"><ele>503.0</ele><time>2026-03-28T15:06:16Z</time></trkpt><trkpt lat="42.47180134151227" lon="-8.057804810504955"><ele>503.0</ele><time>2026-03-28T15:06:17Z</time></trkpt><trkpt lat="42.471839205986285" lon="-8.057967498378208"><ele>503.79999999999995</ele><time>2026-03-28T15:06:18Z</time></trkpt><trkpt lat="42.471874514637044" lon="-8.058118160846613"><ele>504.59999999999997</ele><time>2026-03-28T15:06:19Z</time></trkpt><trkpt lat="42.47190637046808" lon="-8.058250263498675"><ele>505.40000000000003</ele><time>2026-03-28T15:06:20Z</time></trkpt><trkpt lat="42.471942579555126" lon="-8.058393046766977"><ele>506.20000000000005</ele><time>2026-03-28T15:06:21Z</time></trkpt><trkpt lat="42.471978928846355" lon="-8.058524188575367"><ele>507.0</ele><time>2026-03-28T15:06:22Z</time></trkpt><trkpt lat="42.472005916736215" lon="-8.058642430026225"><ele>507.40000000000003</ele><time>2026-03-28T15:06:23Z</time></trkpt><trkpt lat="42.47203243461583" lon="-8.058740085173788"><ele>507.80000000000007</ele><time>2026-03-28T15:06:24Z</time></trkpt><trkpt lat="42.47207371068423" lon="-8.05887431864098"><ele>508.2</ele><time>2026-03-28T15:06:26Z</time></trkpt><trkpt lat="42.471988633658036" lon="-8.058990696654838"><ele>508.6</ele><time>2026-03-28T15:06:30Z</time></trkpt><trkpt lat="42.471913540913896" lon="-8.05902124773674"><ele>509.0</ele><time>2026-03-28T15:06:31Z</time></trkpt><trkpt lat="42.4718455544868" lon="-8.05908078450779"><ele>509.71428571428567</ele><time>2026-03-28T15:06:32Z</time></trkpt><trkpt lat="42.47177138349265" lon="-8.059120484548838"><ele>510.42857142857144</ele><time>2026-03-28T15:06:33Z</time></trkpt><trkpt lat="42.47169186747335" lon="-8.059141374462863"><ele>511.1428571428571</ele><time>2026-03-28T15:06:34Z</time></trkpt><trkpt lat="42.47162459502009" lon="-8.059184308206898"><ele>511.85714285714283</ele><time>2026-03-28T15:06:35Z</time></trkpt><trkpt lat="42.47157197016601" lon="-8.059249708471672"><ele>512.5714285714286</ele><time>2026-03-28T15:06:36Z</time></trkpt><trkpt lat="42.471512470120935" lon="-8.059301120632007"><ele>513.2857142857142</ele><time>2026-03-28T15:06:37Z</time></trkpt><trkpt lat="42.47144901106502" lon="-8.059341709027567"><ele>514.0</ele><time>2026-03-28T15:06:38Z</time></trkpt><trkpt lat="42.47140399845608" lon="-8.059426172368758"><ele>514.0</ele><time>2026-03-28T15:06:39Z</time></trkpt><trkpt lat="42.47134931532918" lon="-8.059489697312372"><ele>514.0</ele><time>2026-03-28T15:06:40Z</time></trkpt><trkpt lat="42.4712953718599" lon="-8.059559928365752"><ele>514.0</ele><time>2026-03-28T15:06:41Z</time></trkpt><trkpt lat="42.47124463327448" lon="-8.059636638762985"><ele>514.0</ele><time>2026-03-28T15:06:42Z</time></trkpt><trkpt lat="42.471193320675994" lon="-8.059714248236729"><ele>514.0</ele><time>2026-03-28T15:06:43Z</time></trkpt><trkpt lat="42.47114115228388" lon="-8.05978893903845"><ele>514.0</ele><time>2026-03-28T15:06:44Z</time></trkpt><trkpt lat="42.47109497167503" lon="-8.059865966772241"><ele>514.0</ele><time>2026-03-28T15:06:45Z</time></trkpt><trkpt lat="42.47104718169137" lon="-8.05994268869136"><ele>513.5</ele><time>2026-03-28T15:06:46Z</time></trkpt><trkpt lat="42.470992254042116" lon="-8.060021584084817"><ele>513.0</ele><time>2026-03-28T15:06:47Z</time></trkpt><trkpt lat="42.47094323897064" lon="-8.06009818551978"><ele>512.5</ele><time>2026-03-28T15:06:48Z</time></trkpt><trkpt lat="42.47089132044452" lon="-8.060180429506334"><ele>512.0</ele><time>2026-03-28T15:06:49Z</time></trkpt><trkpt lat="42.470837095591804" lon="-8.06026160448562"><ele>511.50000000000006</ele><time>2026-03-28T15:06:50Z</time></trkpt><trkpt lat="42.47078441062152" lon="-8.060338936147263"><ele>511.0</ele><time>2026-03-28T15:06:51Z</time></trkpt><trkpt lat="42.47073109175773" lon="-8.06044494555939"><ele>511.0</ele><time>2026-03-28T15:06:52Z</time></trkpt><trkpt lat="42.47065333019453" lon="-8.06053799254263"><ele>511.0</ele><time>2026-03-28T15:06:53Z</time></trkpt><trkpt lat="42.47057307610367" lon="-8.060640206105981"><ele>511.0</ele><time>2026-03-28T15:06:54Z</time></trkpt><trkpt lat="42.47048176135979" lon="-8.060744201716945"><ele>511.0</ele><time>2026-03-28T15:06:55Z</time></trkpt><trkpt lat="42.470379779573676" lon="-8.060847661063903"><ele>509.75</ele><time>2026-03-28T15:06:56Z</time></trkpt><trkpt lat="42.47026281880165" lon="-8.06092621312859"><ele>508.5</ele><time>2026-03-28T15:06:57Z</time></trkpt><trkpt lat="42.470136068895115" lon="-8.060998261345704"><ele>507.25</ele><time>2026-03-28T15:06:58Z</time></trkpt><trkpt lat="42.47000472581761" lon="-8.061065815305355"><ele>506.0</ele><time>2026-03-28T15:06:59Z</time></trkpt><trkpt lat="42.469878343628345" lon="-8.061131893177448"><ele>506.0</ele><time>2026-03-28T15:07:00Z</time></trkpt><trkpt lat="42.46975354762485" lon="-8.061200636882097"><ele>506.0</ele><time>2026-03-28T15:07:01Z</time></trkpt><trkpt lat="42.469621765350134" lon="-8.061270661243771"><ele>506.0</ele><time>2026-03-28T15:07:02Z</time></trkpt><trkpt lat="42.469492718585485" lon="-8.061348772044244"><ele>506.0</ele><time>2026-03-28T15:07:03Z</time></trkpt><trkpt lat="42.46936152672211" lon="-8.06142491688542"><ele>506.25</ele><time>2026-03-28T15:07:04Z</time></trkpt><trkpt lat="42.46923933350093" lon="-8.061502355950957"><ele>506.5</ele><time>2026-03-28T15:07:05Z</time></trkpt><trkpt lat="42.46910903241075" lon="-8.061578695868286"><ele>506.75</ele><time>2026-03-28T15:07:06Z</time></trkpt><trkpt lat="42.468973752012175" lon="-8.061650690795375"><ele>507.0</ele><time>2026-03-28T15:07:07Z</time></trkpt><trkpt lat="42.46884462975976" lon="-8.06172590543848"><ele>504.75</ele><time>2026-03-28T15:07:08Z</time></trkpt><trkpt lat="42.4687128267929" lon="-8.061795110909664"><ele>502.5</ele><time>2026-03-28T15:07:09Z</time></trkpt><trkpt lat="42.468579300539155" lon="-8.061865851203843"><ele>500.25</ele><time>2026-03-28T15:07:10Z</time></trkpt><trkpt lat="42.4684399705368" lon="-8.061957751145087"><ele>498.0</ele><time>2026-03-28T15:07:11Z</time></trkpt><trkpt lat="42.46830187328189" lon="-8.06206287862173"><ele>498.0</ele><time>2026-03-28T15:07:12Z</time></trkpt><trkpt lat="42.46817209007956" lon="-8.062194338691668"><ele>498.0</ele><time>2026-03-28T15:07:13Z</time></trkpt><trkpt lat="42.46806097006064" lon="-8.062351305260702"><ele>498.0</ele><time>2026-03-28T15:07:14Z</time></trkpt><trkpt lat="42.46797365255046" lon="-8.062525165892744"><ele>497.0</ele><time>2026-03-28T15:07:15Z</time></trkpt><trkpt lat="42.467902852818995" lon="-8.062711125563453"><ele>496.0</ele><time>2026-03-28T15:07:16Z</time></trkpt><trkpt lat="42.46784586798629" lon="-8.062889469645196"><ele>495.0</ele><time>2026-03-28T15:07:17Z</time></trkpt><trkpt lat="42.46779254591003" lon="-8.063068151025208"><ele>494.0</ele><time>2026-03-28T15:07:18Z</time></trkpt><trkpt lat="42.46773344155752" lon="-8.063224646718453"><ele>494.75</ele><time>2026-03-28T15:07:19Z</time></trkpt><trkpt lat="42.46766246554413" lon="-8.063380533292577"><ele>495.5</ele><time>2026-03-28T15:07:20Z</time></trkpt><trkpt lat="42.46759295997342" lon="-8.063514422924923"><ele>496.25</ele><time>2026-03-28T15:07:21Z</time></trkpt><trkpt lat="42.46751898959374" lon="-8.063650642035686"><ele>497.0</ele><time>2026-03-28T15:07:22Z</time></trkpt><trkpt lat="42.467453579553535" lon="-8.063802904713834"><ele>497.0</ele><time>2026-03-28T15:07:23Z</time></trkpt><trkpt lat="42.467396225096756" lon="-8.063955427476909"><ele>497.0</ele><time>2026-03-28T15:07:24Z</time></trkpt><trkpt lat="42.467343810936704" lon="-8.064111908292766"><ele>497.0</ele><time>2026-03-28T15:07:25Z</time></trkpt><trkpt lat="42.46729116703091" lon="-8.064267258109123"><ele>497.0</ele><time>2026-03-28T15:07:26Z</time></trkpt><trkpt lat="42.467231200908955" lon="-8.064410890493042"><ele>497.75</ele><time>2026-03-28T15:07:27Z</time></trkpt><trkpt lat="42.46717224693245" lon="-8.064561163673716"><ele>498.5</ele><time>2026-03-28T15:07:28Z</time></trkpt><trkpt lat="42.46711579135171" lon="-8.064712176381514"><ele>499.25</ele><time>2026-03-28T15:07:29Z</time></trkpt><trkpt lat="42.46707221658234" lon="-8.06485194732389"><ele>500.0</ele><time>2026-03-28T15:07:30Z</time></trkpt><trkpt lat="42.4670237827427" lon="-8.064990928855567"><ele>497.75</ele><time>2026-03-28T15:07:31Z</time></trkpt><trkpt lat="42.46695632583185" lon="-8.065121174732711"><ele>495.5</ele><time>2026-03-28T15:07:32Z</time></trkpt><trkpt lat="42.46686614346108" lon="-8.065217894225702"><ele>493.25</ele><time>2026-03-28T15:07:33Z</time></trkpt><trkpt lat="42.4667637928155" lon="-8.065262712031489"><ele>491.0</ele><time>2026-03-28T15:07:34Z</time></trkpt><trkpt lat="42.46665011128242" lon="-8.06527525632841"><ele>491.0</ele><time>2026-03-28T15:07:35Z</time></trkpt><trkpt lat="42.4665501209271" lon="-8.065286002930499"><ele>491.0</ele><time>2026-03-28T15:07:36Z</time></trkpt><trkpt lat="42.4664475206435" lon="-8.065308193091283"><ele>491.0</ele><time>2026-03-28T15:07:37Z</time></trkpt><trkpt lat="42.46635722777667" lon="-8.065337359933451"><ele>491.0</ele><time>2026-03-28T15:07:38Z</time></trkpt><trkpt lat="42.46628235714857" lon="-8.06536228134097"><ele>491.0</ele><time>2026-03-28T15:07:39Z</time></trkpt><trkpt lat="42.46620174888098" lon="-8.065377902826855"><ele>490.16666666666663</ele><time>2026-03-28T15:07:40Z</time></trkpt><trkpt lat="42.46613071994063" lon="-8.065375624290546"><ele>489.3333333333333</ele><time>2026-03-28T15:07:41Z</time></trkpt><trkpt lat="42.46605690031535" lon="-8.065324151896602"><ele>488.5</ele><time>2026-03-28T15:07:43Z</time></trkpt><trkpt lat="42.4659927177109" lon="-8.065327256437108"><ele>487.66666666666663</ele><time>2026-03-28T15:07:46Z</time></trkpt><trkpt lat="42.465927465764906" lon="-8.065235643915454"><ele>486.8333333333333</ele><time>2026-03-28T15:08:58Z</time></trkpt><trkpt lat="42.46582807654438" lon="-8.065170686079794"><ele>486.0</ele><time>2026-03-28T15:09:00Z</time></trkpt><trkpt lat="42.465718434260914" lon="-8.065100481303928"><ele>486.0</ele><time>2026-03-28T15:09:02Z</time></trkpt><trkpt lat="42.465655044882894" lon="-8.065063864689233"><ele>486.0</ele><time>2026-03-28T15:09:03Z</time></trkpt><trkpt lat="42.46558716578954" lon="-8.065015815242248"><ele>486.0</ele><time>2026-03-28T15:09:04Z</time></trkpt><trkpt lat="42.46549610518445" lon="-8.06499235613756"><ele>486.0</ele><time>2026-03-28T15:09:05Z</time></trkpt><trkpt lat="42.465402923325954" lon="-8.065001613714141"><ele>486.0</ele><time>2026-03-28T15:09:06Z</time></trkpt><trkpt lat="42.46530342117133" lon="-8.065038462332895"><ele>486.0</ele><time>2026-03-28T15:09:07Z</time></trkpt><trkpt lat="42.465206937879486" lon="-8.065090926351537"><ele>485.25</ele><time>2026-03-28T15:09:08Z</time></trkpt><trkpt lat="42.46510037434912" lon="-8.065156388140517"><ele>484.5</ele><time>2026-03-28T15:09:09Z</time></trkpt><trkpt lat="42.46499476306441" lon="-8.065236884563673"><ele>483.75</ele><time>2026-03-28T15:09:10Z</time></trkpt><trkpt lat="42.4648826391149" lon="-8.065323113426317"><ele>483.0</ele><time>2026-03-28T15:09:11Z</time></trkpt><trkpt lat="42.46477179281598" lon="-8.065392251107745"><ele>483.0</ele><time>2026-03-28T15:09:12Z</time></trkpt><trkpt lat="42.46464298378447" lon="-8.065447497101855"><ele>483.0</ele><time>2026-03-28T15:09:13Z</time></trkpt><trkpt lat="42.46451980041472" lon="-8.065491212124426"><ele>483.0</ele><time>2026-03-28T15:09:14Z</time></trkpt><trkpt lat="42.46438642907408" lon="-8.065523634068901"><ele>483.0</ele><time>2026-03-28T15:09:15Z</time></trkpt><trkpt lat="42.46425871171396" lon="-8.065554640759094"><ele>482.0</ele><time>2026-03-28T15:09:16Z</time></trkpt><trkpt lat="42.464134509767554" lon="-8.065581293080417"><ele>481.0</ele><time>2026-03-28T15:09:17Z</time></trkpt><trkpt lat="42.46401363578091" lon="-8.065604529980495"><ele>480.0</ele><time>2026-03-28T15:09:18Z</time></trkpt><trkpt lat="42.46389722159483" lon="-8.065627237244565"><ele>479.0</ele><time>2026-03-28T15:09:19Z</time></trkpt><trkpt lat="42.463786332368194" lon="-8.065669875892453"><ele>479.5</ele><time>2026-03-28T15:09:20Z</time></trkpt><trkpt lat="42.463683172753996" lon="-8.065728623301778"><ele>480.0</ele><time>2026-03-28T15:09:21Z</time></trkpt><trkpt lat="42.46358017051902" lon="-8.065785139248826"><ele>480.5</ele><time>2026-03-28T15:09:22Z</time></trkpt><trkpt lat="42.46346852094953" lon="-8.065831447643443"><ele>481.0</ele><time>2026-03-28T15:09:23Z</time></trkpt><trkpt lat="42.46335698103754" lon="-8.065877738445797"><ele>481.0</ele><time>2026-03-28T15:09:24Z</time></trkpt><trkpt lat="42.46325158409199" lon="-8.065936115788197"><ele>481.0</ele><time>2026-03-28T15:09:25Z</time></trkpt><trkpt lat="42.46313862921342" lon="-8.06599393366853"><ele>481.0</ele><time>2026-03-28T15:09:26Z</time></trkpt><trkpt lat="42.46302501544459" lon="-8.066049270614378"><ele>481.0</ele><time>2026-03-28T15:09:27Z</time></trkpt><trkpt lat="42.46290767813831" lon="-8.066105300672513"><ele>479.5</ele><time>2026-03-28T15:09:28Z</time></trkpt><trkpt lat="42.46278590292482" lon="-8.06616313965733"><ele>478.0</ele><time>2026-03-28T15:09:29Z</time></trkpt><trkpt lat="42.462659798145985" lon="-8.066213963531565"><ele>476.5</ele><time>2026-03-28T15:09:30Z</time></trkpt><trkpt lat="42.46253776522723" lon="-8.066275824363059"><ele>475.0</ele><time>2026-03-28T15:09:31Z</time></trkpt><trkpt lat="42.462408424342236" lon="-8.06634519043822"><ele>475.0</ele><time>2026-03-28T15:09:32Z</time></trkpt><trkpt lat="42.46227960042861" lon="-8.066407726059058"><ele>475.0</ele><time>2026-03-28T15:09:33Z</time></trkpt><trkpt lat="42.462139578185734" lon="-8.06645794280538"><ele>475.0</ele><time>2026-03-28T15:09:34Z</time></trkpt><trkpt lat="42.46200758823714" lon="-8.066510856134425"><ele>475.0</ele><time>2026-03-28T15:09:35Z</time></trkpt><trkpt lat="42.46185759383047" lon="-8.066513776259233"><ele>474.6666666666667</ele><time>2026-03-28T15:09:36Z</time></trkpt><trkpt lat="42.46170463724923" lon="-8.066470701594382"><ele>474.33333333333337</ele><time>2026-03-28T15:09:37Z</time></trkpt><trkpt lat="42.461557241835976" lon="-8.06639905578046"><ele>474.0</ele><time>2026-03-28T15:09:38Z</time></trkpt><trkpt lat="42.46141551411648" lon="-8.066386803943356"><ele>475.0</ele><time>2026-03-28T15:09:39Z</time></trkpt><trkpt lat="42.461272025815795" lon="-8.066396694181012"><ele>476.0</ele><time>2026-03-28T15:09:40Z</time></trkpt><trkpt lat="42.46113612057169" lon="-8.066411616416413"><ele>477.0</ele><time>2026-03-28T15:09:41Z</time></trkpt><trkpt lat="42.46100126642117" lon="-8.066441676854396"><ele>478.0</ele><time>2026-03-28T15:09:42Z</time></trkpt><trkpt lat="42.46086982819067" lon="-8.06647321638645"><ele>478.0</ele><time>2026-03-28T15:09:43Z</time></trkpt><trkpt lat="42.460749104938" lon="-8.066527900491078"><ele>478.0</ele><time>2026-03-28T15:09:44Z</time></trkpt><trkpt lat="42.460644758422596" lon="-8.06660636804581"><ele>478.0</ele><time>2026-03-28T15:09:45Z</time></trkpt><trkpt lat="42.460556776994885" lon="-8.06672735241125"><ele>478.0</ele><time>2026-03-28T15:09:46Z</time></trkpt><trkpt lat="42.460474716837226" lon="-8.066854294365921"><ele>477.75</ele><time>2026-03-28T15:09:47Z</time></trkpt><trkpt lat="42.46039300898269" lon="-8.066977548042972"><ele>477.5</ele><time>2026-03-28T15:09:48Z</time></trkpt><trkpt lat="42.460298317766835" lon="-8.067053999179185"><ele>477.25</ele><time>2026-03-28T15:09:49Z</time></trkpt><trkpt lat="42.46018764675912" lon="-8.067098424803437"><ele>477.0</ele><time>2026-03-28T15:09:50Z</time></trkpt><trkpt lat="42.46006934670739" lon="-8.067103119373256"><ele>477.0</ele><time>2026-03-28T15:09:51Z</time></trkpt><trkpt lat="42.459954668654284" lon="-8.067062874802675"><ele>477.0</ele><time>2026-03-28T15:09:52Z</time></trkpt><trkpt lat="42.45984272501691" lon="-8.067010734760238"><ele>477.0</ele><time>2026-03-28T15:09:53Z</time></trkpt><trkpt lat="42.459738531785476" lon="-8.066925223361773"><ele>477.0</ele><time>2026-03-28T15:09:54Z</time></trkpt><trkpt lat="42.45964586217365" lon="-8.066815930281878"><ele>477.75</ele><time>2026-03-28T15:09:55Z</time></trkpt><trkpt lat="42.45955629825568" lon="-8.066679353653008"><ele>478.5</ele><time>2026-03-28T15:09:56Z</time></trkpt><trkpt lat="42.45948613576082" lon="-8.066509382528402"><ele>479.25</ele><time>2026-03-28T15:09:57Z</time></trkpt><trkpt lat="42.45942387020645" lon="-8.066347842846794"><ele>480.0</ele><time>2026-03-28T15:09:58Z</time></trkpt><trkpt lat="42.459323398860874" lon="-8.066216803856996"><ele>477.0</ele><time>2026-03-28T15:09:59Z</time></trkpt><trkpt lat="42.459218332505394" lon="-8.066120413736229"><ele>474.0</ele><time>2026-03-28T15:10:00Z</time></trkpt><trkpt lat="42.45909046003283" lon="-8.066058725627231"><ele>471.0</ele><time>2026-03-28T15:10:01Z</time></trkpt><trkpt lat="42.45895753002506" lon="-8.066007797215057"><ele>468.0</ele><time>2026-03-28T15:10:02Z</time></trkpt><trkpt lat="42.45881773838545" lon="-8.065937623952356"><ele>466.75</ele><time>2026-03-28T15:10:03Z</time></trkpt><trkpt lat="42.458680291923145" lon="-8.065914203979448"><ele>465.5</ele><time>2026-03-28T15:10:04Z</time></trkpt><trkpt lat="42.45854338867264" lon="-8.065888352776184"><ele>464.25</ele><time>2026-03-28T15:10:05Z</time></trkpt><trkpt lat="42.45841375083106" lon="-8.065871701105882"><ele>463.0</ele><time>2026-03-28T15:10:06Z</time></trkpt><trkpt lat="42.45828871790461" lon="-8.06587793331263"><ele>463.0</ele><time>2026-03-28T15:10:07Z</time></trkpt><trkpt lat="42.45817822707572" lon="-8.065849272301412"><ele>462.99999999999994</ele><time>2026-03-28T15:10:08Z</time></trkpt><trkpt lat="42.45806064663498" lon="-8.065837131894064"><ele>462.99999999999994</ele><time>2026-03-28T15:10:09Z</time></trkpt><trkpt lat="42.45795758957606" lon="-8.065810531114359"><ele>463.0</ele><time>2026-03-28T15:10:10Z</time></trkpt><trkpt lat="42.45784568087904" lon="-8.065785500531238"><ele>463.0</ele><time>2026-03-28T15:10:11Z</time></trkpt><trkpt lat="42.457747144386104" lon="-8.065762045752589"><ele>459.0</ele><time>2026-03-28T15:10:12Z</time></trkpt><trkpt lat="42.45762925320775" lon="-8.065734546380291"><ele>455.0</ele><time>2026-03-28T15:10:13Z</time></trkpt><trkpt lat="42.45752015300833" lon="-8.065669580698557"><ele>451.0</ele><time>2026-03-28T15:10:14Z</time></trkpt><trkpt lat="42.457403108290265" lon="-8.065579797434266"><ele>447.0</ele><time>2026-03-28T15:10:15Z</time></trkpt><trkpt lat="42.45729844760671" lon="-8.065469074967519"><ele>447.0</ele><time>2026-03-28T15:10:16Z</time></trkpt><trkpt lat="42.45719178898122" lon="-8.06535641759872"><ele>447.0</ele><time>2026-03-28T15:10:17Z</time></trkpt><trkpt lat="42.457070970880245" lon="-8.065241014448178"><ele>447.0</ele><time>2026-03-28T15:10:18Z</time></trkpt><trkpt lat="42.456952579112595" lon="-8.065158944591362"><ele>447.0</ele><time>2026-03-28T15:10:19Z</time></trkpt><trkpt lat="42.45680585609294" lon="-8.065091229352603"><ele>445.33333333333337</ele><time>2026-03-28T15:10:20Z</time></trkpt><trkpt lat="42.456654845208995" lon="-8.065056824568037"><ele>443.6666666666667</ele><time>2026-03-28T15:10:21Z</time></trkpt><trkpt lat="42.4564976210913" lon="-8.065054213200714"><ele>442.0</ele><time>2026-03-28T15:10:22Z</time></trkpt><trkpt lat="42.45632576908712" lon="-8.065093639908858"><ele>440.0</ele><time>2026-03-28T15:10:23Z</time></trkpt><trkpt lat="42.45616194887295" lon="-8.065184280015758"><ele>438.0</ele><time>2026-03-28T15:10:24Z</time></trkpt><trkpt lat="42.45599631688705" lon="-8.065307966061223"><ele>436.0</ele><time>2026-03-28T15:10:25Z</time></trkpt><trkpt lat="42.4558265625835" lon="-8.065431078925496"><ele>436.0</ele><time>2026-03-28T15:10:26Z</time></trkpt><trkpt lat="42.455649068700005" lon="-8.065541395783285"><ele>436.0</ele><time>2026-03-28T15:10:27Z</time></trkpt><trkpt lat="42.455465357318786" lon="-8.065652327570376"><ele>436.0</ele><time>2026-03-28T15:10:28Z</time></trkpt><trkpt lat="42.45525936609655" lon="-8.065738781623594"><ele>435.0</ele><time>2026-03-28T15:10:29Z</time></trkpt><trkpt lat="42.45503303913574" lon="-8.06579415344629"><ele>434.0</ele><time>2026-03-28T15:10:30Z</time></trkpt><trkpt lat="42.45480709629224" lon="-8.065819396967852"><ele>432.66666666666663</ele><time>2026-03-28T15:10:31Z</time></trkpt><trkpt lat="42.45458693057082" lon="-8.065839247645185"><ele>431.33333333333337</ele><time>2026-03-28T15:10:32Z</time></trkpt><trkpt lat="42.45438206891339" lon="-8.06586231204096"><ele>430.0</ele><time>2026-03-28T15:10:33Z</time></trkpt><trkpt lat="42.454195342765935" lon="-8.065920374585609"><ele>430.0</ele><time>2026-03-28T15:10:34Z</time></trkpt><trkpt lat="42.453952571670655" lon="-8.066037083810249"><ele>430.0</ele><time>2026-03-28T15:10:35Z</time></trkpt><trkpt lat="42.453728124185496" lon="-8.066173822585066"><ele>426.0</ele><time>2026-03-28T15:10:36Z</time></trkpt><trkpt lat="42.45350510726091" lon="-8.06626869116765"><ele>422.0</ele><time>2026-03-28T15:10:37Z</time></trkpt><trkpt lat="42.45327460344206" lon="-8.06631366183936"><ele>422.0</ele><time>2026-03-28T15:10:38Z</time></trkpt><trkpt lat="42.45303196751587" lon="-8.066335538131401"><ele>422.0</ele><time>2026-03-28T15:10:39Z</time></trkpt><trkpt lat="42.45277885621131" lon="-8.06635562520051"><ele>421.0</ele><time>2026-03-28T15:10:40Z</time></trkpt><trkpt lat="42.4525195525169" lon="-8.066378363239236"><ele>420.0</ele><time>2026-03-28T15:10:41Z</time></trkpt><trkpt lat="42.4522850994792" lon="-8.066426570022326"><ele>416.5</ele><time>2026-03-28T15:10:42Z</time></trkpt><trkpt lat="42.45204070480662" lon="-8.066468585796278"><ele>413.0</ele><time>2026-03-28T15:10:43Z</time></trkpt><trkpt lat="42.451808617111276" lon="-8.066524624092981"><ele>413.0</ele><time>2026-03-28T15:10:44Z</time></trkpt><trkpt lat="42.45160098642439" lon="-8.066585136431339"><ele>413.0</ele><time>2026-03-28T15:10:45Z</time></trkpt><trkpt lat="42.45140574211858" lon="-8.066650082778185"><ele>413.0</ele><time>2026-03-28T15:10:46Z</time></trkpt><trkpt lat="42.45122307039405" lon="-8.066703621100006"><ele>413.0</ele><time>2026-03-28T15:10:47Z</time></trkpt><trkpt lat="42.45105558754672" lon="-8.066761337840509"><ele>413.0</ele><time>2026-03-28T15:10:48Z</time></trkpt><trkpt lat="42.4508842967344" lon="-8.066745410423689"><ele>413.0</ele><time>2026-03-28T15:10:49Z</time></trkpt><trkpt lat="42.450722611166846" lon="-8.066685180868243"><ele>409.66666666666663</ele><time>2026-03-28T15:10:50Z</time></trkpt><trkpt lat="42.45057727715789" lon="-8.066562143278581"><ele>406.33333333333337</ele><time>2026-03-28T15:10:51Z</time></trkpt><trkpt lat="42.450447953208894" lon="-8.066403722923033"><ele>403.0</ele><time>2026-03-28T15:10:52Z</time></trkpt><trkpt lat="42.450325895463" lon="-8.066260624682727"><ele>402.6666666666667</ele><time>2026-03-28T15:10:53Z</time></trkpt><trkpt lat="42.45019130196905" lon="-8.066132919723675"><ele>402.33333333333337</ele><time>2026-03-28T15:10:54Z</time></trkpt><trkpt lat="42.45005000344778" lon="-8.066064858916345"><ele>402.0</ele><time>2026-03-28T15:10:55Z</time></trkpt><trkpt lat="42.44988468108901" lon="-8.066058831495134"><ele>402.0</ele><time>2026-03-28T15:10:56Z</time></trkpt><trkpt lat="42.4496893175302" lon="-8.066083504418275"><ele>402.0</ele><time>2026-03-28T15:10:57Z</time></trkpt><trkpt lat="42.44951639734161" lon="-8.066093803415319"><ele>402.0</ele><time>2026-03-28T15:10:58Z</time></trkpt><trkpt lat="42.44932209134924" lon="-8.06610568649127"><ele>400.33333333333337</ele><time>2026-03-28T15:10:59Z</time></trkpt><trkpt lat="42.4491209166164" lon="-8.066118944350947"><ele>398.6666666666667</ele><time>2026-03-28T15:11:00Z</time></trkpt><trkpt lat="42.44891988970638" lon="-8.066129066314401"><ele>397.0</ele><time>2026-03-28T15:11:01Z</time></trkpt><trkpt lat="42.44870518884807" lon="-8.06611525667274"><ele>396.33333333333337</ele><time>2026-03-28T15:11:02Z</time></trkpt><trkpt lat="42.44850051865217" lon="-8.066123631863737"><ele>395.66666666666663</ele><time>2026-03-28T15:11:03Z</time></trkpt><trkpt lat="42.448268390662804" lon="-8.06613055983084"><ele>395.0</ele><time>2026-03-28T15:11:04Z</time></trkpt><trkpt lat="42.44805298726186" lon="-8.066139950092044"><ele>393.5</ele><time>2026-03-28T15:11:05Z</time></trkpt><trkpt lat="42.44782917046264" lon="-8.066165307855064"><ele>392.0</ele><time>2026-03-28T15:11:06Z</time></trkpt><trkpt lat="42.44760355246676" lon="-8.066176124121599"><ele>392.0</ele><time>2026-03-28T15:11:07Z</time></trkpt><trkpt lat="42.44736812462072" lon="-8.066210439672327"><ele>392.0</ele><time>2026-03-28T15:11:08Z</time></trkpt><trkpt lat="42.44714865992473" lon="-8.066220218150805"><ele>390.66666666666663</ele><time>2026-03-28T15:11:09Z</time></trkpt><trkpt lat="42.44692955229498" lon="-8.066236992315087"><ele>389.33333333333337</ele><time>2026-03-28T15:11:10Z</time></trkpt><trkpt lat="42.44672749464217" lon="-8.066249282432622"><ele>388.0</ele><time>2026-03-28T15:11:11Z</time></trkpt><trkpt lat="42.44653002563115" lon="-8.066256697994545"><ele>388.0</ele><time>2026-03-28T15:11:12Z</time></trkpt><trkpt lat="42.44634120667711" lon="-8.066253619973331"><ele>388.0</ele><time>2026-03-28T15:11:13.001Z</time></trkpt><trkpt lat="42.446154008039954" lon="-8.066227596166128"><ele>388.0</ele><time>2026-03-28T15:11:14.001Z</time></trkpt><trkpt lat="42.445986551168076" lon="-8.066177019848014"><ele>388.0</ele><time>2026-03-28T15:11:15.001Z</time></trkpt><trkpt lat="42.445830601229694" lon="-8.066118687142438"><ele>388.0</ele><time>2026-03-28T15:11:16.001Z</time></trkpt><trkpt lat="42.44567514608176" lon="-8.066083020896055"><ele>388.0</ele><time>2026-03-28T15:11:17.001Z</time></trkpt><trkpt lat="42.445533351068676" lon="-8.066036316238728"><ele>388.75</ele><time>2026-03-28T15:11:18.001Z</time></trkpt><trkpt lat="42.44538608571242" lon="-8.06603294462285"><ele>389.5</ele><time>2026-03-28T15:11:19.001Z</time></trkpt><trkpt lat="42.44526119417667" lon="-8.066119077069065"><ele>390.25</ele><time>2026-03-28T15:11:20.001Z</time></trkpt><trkpt lat="42.445130600450135" lon="-8.066206011057158"><ele>391.0</ele><time>2026-03-28T15:11:21Z</time></trkpt><trkpt lat="42.44498875839942" lon="-8.066293288285449"><ele>391.0</ele><time>2026-03-28T15:11:22Z</time></trkpt><trkpt lat="42.44484763429293" lon="-8.06639857166529"><ele>391.0</ele><time>2026-03-28T15:11:23Z</time></trkpt><trkpt lat="42.44469799051413" lon="-8.06651050536081"><ele>391.0</ele><time>2026-03-28T15:11:24Z</time></trkpt><trkpt lat="42.444546411712615" lon="-8.066607551083006"><ele>392.33333333333337</ele><time>2026-03-28T15:11:25Z</time></trkpt><trkpt lat="42.44439833899788" lon="-8.066708363170155"><ele>393.66666666666663</ele><time>2026-03-28T15:11:26Z</time></trkpt><trkpt lat="42.44425059854258" lon="-8.066816866968491"><ele>395.0</ele><time>2026-03-28T15:11:27Z</time></trkpt><trkpt lat="42.44410512915863" lon="-8.066919943035332"><ele>395.0</ele><time>2026-03-28T15:11:28Z</time></trkpt><trkpt lat="42.44396284583517" lon="-8.06701844303897"><ele>395.0</ele><time>2026-03-28T15:11:29Z</time></trkpt><trkpt lat="42.44382652580829" lon="-8.06711471168657"><ele>395.0</ele><time>2026-03-28T15:11:30Z</time></trkpt><trkpt lat="42.443694404133694" lon="-8.067198992903718"><ele>396.0</ele><time>2026-03-28T15:11:31Z</time></trkpt><trkpt lat="42.44357802514554" lon="-8.067266083233756"><ele>397.0</ele><time>2026-03-28T15:11:32Z</time></trkpt><trkpt lat="42.443471902166685" lon="-8.067300032974416"><ele>398.0</ele><time>2026-03-28T15:11:33Z</time></trkpt><trkpt lat="42.44336406405825" lon="-8.067288220551571"><ele>399.0</ele><time>2026-03-28T15:11:34Z</time></trkpt><trkpt lat="42.44325882521815" lon="-8.067212474604247"><ele>399.0</ele><time>2026-03-28T15:11:35Z</time></trkpt><trkpt lat="42.443160638222565" lon="-8.067110000240834"><ele>399.0</ele><time>2026-03-28T15:11:36Z</time></trkpt><trkpt lat="42.44305013619669" lon="-8.067032372743123"><ele>399.0</ele><time>2026-03-28T15:11:37Z</time></trkpt><trkpt lat="42.4429514088217" lon="-8.066958217908835"><ele>399.0</ele><time>2026-03-28T15:11:38Z</time></trkpt><trkpt lat="42.44284643195589" lon="-8.06691091443148"><ele>401.0</ele><time>2026-03-28T15:11:39Z</time></trkpt><trkpt lat="42.442750002766246" lon="-8.066883010252658"><ele>403.0</ele><time>2026-03-28T15:11:40Z</time></trkpt><trkpt lat="42.442656503184715" lon="-8.066981188887496"><ele>405.0</ele><time>2026-03-28T15:11:41Z</time></trkpt><trkpt lat="42.4425628012008" lon="-8.067059813370244"><ele>407.0</ele><time>2026-03-28T15:11:42Z</time></trkpt><trkpt lat="42.44248327481102" lon="-8.06717084473977"><ele>409.0</ele><time>2026-03-28T15:11:43Z</time></trkpt><trkpt lat="42.442389532972186" lon="-8.067263873738794"><ele>409.0</ele><time>2026-03-28T15:11:44Z</time></trkpt><trkpt lat="42.44229216350685" lon="-8.0673280902007"><ele>409.0</ele><time>2026-03-28T15:11:45Z</time></trkpt><trkpt lat="42.442189806695914" lon="-8.067377933082305"><ele>409.0</ele><time>2026-03-28T15:11:46Z</time></trkpt><trkpt lat="42.442103722325285" lon="-8.067401238485644"><ele>409.0</ele><time>2026-03-28T15:11:47Z</time></trkpt><trkpt lat="42.44201394424586" lon="-8.067393494148506"><ele>409.0</ele><time>2026-03-28T15:11:48Z</time></trkpt><trkpt lat="42.441924127048665" lon="-8.067353020404758"><ele>409.4</ele><time>2026-03-28T15:11:49Z</time></trkpt><trkpt lat="42.441842054365836" lon="-8.067380207572766"><ele>409.79999999999995</ele><time>2026-03-28T15:11:50Z</time></trkpt><trkpt lat="42.44178405351146" lon="-8.067453437193265"><ele>410.20000000000005</ele><time>2026-03-28T15:11:51Z</time></trkpt><trkpt lat="42.44171989033035" lon="-8.067521297578518"><ele>410.6</ele><time>2026-03-28T15:11:52Z</time></trkpt><trkpt lat="42.44163188831793" lon="-8.067586417358587"><ele>411.0</ele><time>2026-03-28T15:11:53Z</time></trkpt><trkpt lat="42.44154777720534" lon="-8.067691905309408"><ele>411.4</ele><time>2026-03-28T15:11:54Z</time></trkpt><trkpt lat="42.441453325995816" lon="-8.067788846151073"><ele>411.8</ele><time>2026-03-28T15:11:55Z</time></trkpt><trkpt lat="42.44138036388776" lon="-8.067896594825385"><ele>412.2</ele><time>2026-03-28T15:11:56Z</time></trkpt><trkpt lat="42.44133308517137" lon="-8.0680140293647"><ele>412.59999999999997</ele><time>2026-03-28T15:11:57Z</time></trkpt><trkpt lat="42.44126916297158" lon="-8.06815527128225"><ele>413.0</ele><time>2026-03-28T15:11:58Z</time></trkpt><trkpt lat="42.44120647719229" lon="-8.06830580972651"><ele>413.75</ele><time>2026-03-28T15:11:59Z</time></trkpt><trkpt lat="42.4411283899812" lon="-8.068450280031275"><ele>414.5</ele><time>2026-03-28T15:12:00Z</time></trkpt><trkpt lat="42.441042386773425" lon="-8.068599251799329"><ele>415.25</ele><time>2026-03-28T15:12:01Z</time></trkpt><trkpt lat="42.44096669756967" lon="-8.068754764166206"><ele>416.0</ele><time>2026-03-28T15:12:02Z</time></trkpt><trkpt lat="42.44090190017303" lon="-8.068886173133896"><ele>416.0</ele><time>2026-03-28T15:12:03Z</time></trkpt><trkpt lat="42.440842143908085" lon="-8.068995714700714"><ele>416.0</ele><time>2026-03-28T15:12:04Z</time></trkpt><trkpt lat="42.44076602959282" lon="-8.069090234441026"><ele>416.0</ele><time>2026-03-28T15:12:05Z</time></trkpt><trkpt lat="42.440648321226575" lon="-8.06914502996419"><ele>416.0</ele><time>2026-03-28T15:12:06Z</time></trkpt><trkpt lat="42.440532647613814" lon="-8.069216577897668"><ele>414.75</ele><time>2026-03-28T15:12:07Z</time></trkpt><trkpt lat="42.44039779903437" lon="-8.069292616965217"><ele>413.5</ele><time>2026-03-28T15:12:08Z</time></trkpt><trkpt lat="42.44028270197928" lon="-8.069355166310242"><ele>412.25</ele><time>2026-03-28T15:12:09Z</time></trkpt><trkpt lat="42.44015734583969" lon="-8.069388996419814"><ele>411.0</ele><time>2026-03-28T15:12:10Z</time></trkpt><trkpt lat="42.44001776658067" lon="-8.06942600652981"><ele>411.0</ele><time>2026-03-28T15:12:11Z</time></trkpt><trkpt lat="42.439868044049675" lon="-8.06946227427116"><ele>411.0</ele><time>2026-03-28T15:12:12Z</time></trkpt><trkpt lat="42.43971907452105" lon="-8.069515410606085"><ele>411.0</ele><time>2026-03-28T15:12:13Z</time></trkpt><trkpt lat="42.439555809891004" lon="-8.069574042267636"><ele>410.33333333333337</ele><time>2026-03-28T15:12:14Z</time></trkpt><trkpt lat="42.4394035479251" lon="-8.069635950940869"><ele>409.6666666666667</ele><time>2026-03-28T15:12:15Z</time></trkpt><trkpt lat="42.439272847992754" lon="-8.069720979979468"><ele>409.0</ele><time>2026-03-28T15:12:16Z</time></trkpt><trkpt lat="42.43916107245436" lon="-8.069862807858424"><ele>408.6666666666667</ele><time>2026-03-28T15:12:17Z</time></trkpt><trkpt lat="42.439058137093625" lon="-8.070026338859387"><ele>408.33333333333337</ele><time>2026-03-28T15:12:18Z</time></trkpt><trkpt lat="42.438949491734455" lon="-8.07017959719567"><ele>408.0</ele><time>2026-03-28T15:12:19Z</time></trkpt><trkpt lat="42.43883934993209" lon="-8.070345219727551"><ele>409.66666666666663</ele><time>2026-03-28T15:12:20Z</time></trkpt><trkpt lat="42.438713793229105" lon="-8.070488414281467"><ele>411.3333333333333</ele><time>2026-03-28T15:12:21Z</time></trkpt><trkpt lat="42.43857193873481" lon="-8.070605401093966"><ele>413.0</ele><time>2026-03-28T15:12:22Z</time></trkpt><trkpt lat="42.43844223260673" lon="-8.07073098346812"><ele>413.0</ele><time>2026-03-28T15:12:23Z</time></trkpt><trkpt lat="42.43825263943741" lon="-8.070723392036108"><ele>413.0</ele><time>2026-03-28T15:12:24Z</time></trkpt><trkpt lat="42.43808368947539" lon="-8.070772222746607"><ele>413.0</ele><time>2026-03-28T15:12:25Z</time></trkpt><trkpt lat="42.437938252261866" lon="-8.070849156648379"><ele>414.3333333333333</ele><time>2026-03-28T15:12:26Z</time></trkpt><trkpt lat="42.437780090031346" lon="-8.070922459153568"><ele>415.66666666666663</ele><time>2026-03-28T15:12:27Z</time></trkpt><trkpt lat="42.43761741088367" lon="-8.070962783049957"><ele>417.0</ele><time>2026-03-28T15:12:28Z</time></trkpt><trkpt lat="42.437457512983904" lon="-8.07099916528625"><ele>417.0</ele><time>2026-03-28T15:12:29Z</time></trkpt><trkpt lat="42.43733065606054" lon="-8.071080644121723"><ele>417.0</ele><time>2026-03-28T15:12:30Z</time></trkpt><trkpt lat="42.4372205761077" lon="-8.071159676995853"><ele>417.0</ele><time>2026-03-28T15:12:31Z</time></trkpt><trkpt lat="42.437125391679395" lon="-8.071229796310101"><ele>417.0</ele><time>2026-03-28T15:12:32Z</time></trkpt><trkpt lat="42.43703046778899" lon="-8.071305127483347"><ele>416.5</ele><time>2026-03-28T15:12:33Z</time></trkpt><trkpt lat="42.436926140056926" lon="-8.071365123734815"><ele>416.0</ele><time>2026-03-28T15:12:34Z</time></trkpt><trkpt lat="42.436813975910034" lon="-8.071399917739562"><ele>415.5</ele><time>2026-03-28T15:12:35Z</time></trkpt><trkpt lat="42.436675680928694" lon="-8.071364666744282"><ele>415.0</ele><time>2026-03-28T15:12:36Z</time></trkpt><trkpt lat="42.43653828981122" lon="-8.071349499282439"><ele>415.0</ele><time>2026-03-28T15:12:37Z</time></trkpt><trkpt lat="42.43639978614221" lon="-8.071318789492674"><ele>415.0</ele><time>2026-03-28T15:12:38Z</time></trkpt><trkpt lat="42.436272876886214" lon="-8.071292938406966"><ele>415.0</ele><time>2026-03-28T15:12:39Z</time></trkpt><trkpt lat="42.436166631460516" lon="-8.07127118621021"><ele>415.0</ele><time>2026-03-28T15:12:40Z</time></trkpt><trkpt lat="42.43607364720501" lon="-8.071246328842653"><ele>414.50000000000006</ele><time>2026-03-28T15:12:41Z</time></trkpt><trkpt lat="42.43600502756292" lon="-8.07122480042969"><ele>414.0</ele><time>2026-03-28T15:12:42Z</time></trkpt><trkpt lat="42.435907513344034" lon="-8.071185538724336"><ele>413.5</ele><time>2026-03-28T15:12:44Z</time></trkpt><trkpt lat="42.435837826140606" lon="-8.07119222454866"><ele>413.0</ele><time>2026-03-28T15:12:46Z</time></trkpt><trkpt lat="42.435793929011574" lon="-8.071329963643999"><ele>412.50000000000006</ele><time>2026-03-28T15:12:47Z</time></trkpt><trkpt lat="42.43576772848663" lon="-8.071415038541126"><ele>412.0</ele><time>2026-03-28T15:12:48Z</time></trkpt><trkpt lat="42.435733533465985" lon="-8.07149328259792"><ele>412.0</ele><time>2026-03-28T15:12:49Z</time></trkpt><trkpt lat="42.43569524360523" lon="-8.071561296032247"><ele>412.0</ele><time>2026-03-28T15:12:50Z</time></trkpt><trkpt lat="42.4356546184215" lon="-8.071643074480935"><ele>412.0</ele><time>2026-03-28T15:12:51Z</time></trkpt><trkpt lat="42.435606168697916" lon="-8.071777234009783"><ele>412.0</ele><time>2026-03-28T15:12:52Z</time></trkpt><trkpt lat="42.43554594486872" lon="-8.071881249303718"><ele>412.0</ele><time>2026-03-28T15:12:53Z</time></trkpt><trkpt lat="42.435493594359116" lon="-8.072015358911727"><ele>412.0</ele><time>2026-03-28T15:12:54Z</time></trkpt><trkpt lat="42.43542888933168" lon="-8.072170414601452"><ele>412.0</ele><time>2026-03-28T15:12:55Z</time></trkpt><trkpt lat="42.43536029774719" lon="-8.07233484484318"><ele>412.0</ele><time>2026-03-28T15:12:56Z</time></trkpt><trkpt lat="42.435288344172946" lon="-8.07250502723128"><ele>412.0</ele><time>2026-03-28T15:12:57Z</time></trkpt><trkpt lat="42.4352242000943" lon="-8.072668906989868"><ele>412.0</ele><time>2026-03-28T15:12:58Z</time></trkpt><trkpt lat="42.435163743414904" lon="-8.072829046441061"><ele>412.0</ele><time>2026-03-28T15:12:59Z</time></trkpt><trkpt lat="42.43510084950007" lon="-8.072992400050545"><ele>412.0</ele><time>2026-03-28T15:13:00Z</time></trkpt><trkpt lat="42.435044670989996" lon="-8.073143840568033"><ele>412.0</ele><time>2026-03-28T15:13:01Z</time></trkpt><trkpt lat="42.434985796444195" lon="-8.073285231627462"><ele>412.75</ele><time>2026-03-28T15:13:02Z</time></trkpt><trkpt lat="42.43493040435696" lon="-8.073433505093872"><ele>413.5</ele><time>2026-03-28T15:13:03Z</time></trkpt><trkpt lat="42.4348732072965" lon="-8.073574255873265"><ele>414.25</ele><time>2026-03-28T15:13:04Z</time></trkpt><trkpt lat="42.43480534477789" lon="-8.07370546814639"><ele>415.0</ele><time>2026-03-28T15:13:05Z</time></trkpt><trkpt lat="42.434741305362095" lon="-8.073832095372552"><ele>415.0</ele><time>2026-03-28T15:13:06Z</time></trkpt><trkpt lat="42.43468815867022" lon="-8.073963321364376"><ele>415.0</ele><time>2026-03-28T15:13:07Z</time></trkpt><trkpt lat="42.43462997226191" lon="-8.074099572206862"><ele>415.0</ele><time>2026-03-28T15:13:08Z</time></trkpt><trkpt lat="42.434569009228476" lon="-8.07422145423836"><ele>415.0</ele><time>2026-03-28T15:13:09Z</time></trkpt><trkpt lat="42.434504425297945" lon="-8.074338907697282"><ele>415.0</ele><time>2026-03-28T15:13:10Z</time></trkpt><trkpt lat="42.43442627037228" lon="-8.074444790452656"><ele>414.1666666666667</ele><time>2026-03-28T15:13:11Z</time></trkpt><trkpt lat="42.434356860118065" lon="-8.074545730061931"><ele>413.33333333333337</ele><time>2026-03-28T15:13:12Z</time></trkpt><trkpt lat="42.43428265226067" lon="-8.074622029391579"><ele>412.5</ele><time>2026-03-28T15:13:13Z</time></trkpt><trkpt lat="42.43420977025086" lon="-8.074687459626967"><ele>411.66666666666663</ele><time>2026-03-28T15:13:14Z</time></trkpt><trkpt lat="42.434143174395274" lon="-8.074728097320527"><ele>410.8333333333333</ele><time>2026-03-28T15:13:15Z</time></trkpt><trkpt lat="42.43408821447666" lon="-8.074772300287846"><ele>410.0</ele><time>2026-03-28T15:13:16Z</time></trkpt><trkpt lat="42.43400949495234" lon="-8.074878155382716"><ele>409.6</ele><time>2026-03-28T15:13:18Z</time></trkpt><trkpt lat="42.43405961289142" lon="-8.075052153151795"><ele>409.2</ele><time>2026-03-28T15:13:20.001Z</time></trkpt><trkpt lat="42.434097051549976" lon="-8.075137895103568"><ele>408.79999999999995</ele><time>2026-03-28T15:13:21.001Z</time></trkpt><trkpt lat="42.434048631652765" lon="-8.075224927212993"><ele>408.4</ele><time>2026-03-28T15:13:22.001Z</time></trkpt><trkpt lat="42.43395363986124" lon="-8.07526041131074"><ele>408.0</ele><time>2026-03-28T15:13:25.001Z</time></trkpt><trkpt lat="42.433943117890635" lon="-8.075355777720256"><ele>408.0</ele><time>2026-03-28T15:13:26.001Z</time></trkpt><trkpt lat="42.433884406879955" lon="-8.075402559792552"><ele>408.0</ele><time>2026-03-28T15:13:29.001Z</time></trkpt><trkpt lat="42.43395187377464" lon="-8.075549222668101"><ele>408.0</ele><time>2026-03-28T15:13:30.001Z</time></trkpt><trkpt lat="42.434010453902566" lon="-8.075665442026759"><ele>408.0</ele><time>2026-03-28T15:13:31.001Z</time></trkpt><trkpt lat="42.43407226752094" lon="-8.075796175522155"><ele>408.0</ele><time>2026-03-28T15:13:32.001Z</time></trkpt><trkpt lat="42.43413108244689" lon="-8.075933619548646"><ele>408.0</ele><time>2026-03-28T15:13:33.001Z</time></trkpt><trkpt lat="42.434188104305974" lon="-8.076064550843821"><ele>408.0</ele><time>2026-03-28T15:13:34.001Z</time></trkpt><trkpt lat="42.434236910870546" lon="-8.076191552444909"><ele>408.0</ele><time>2026-03-28T15:13:35.001Z</time></trkpt><trkpt lat="42.43428406935144" lon="-8.076315227064566"><ele>408.0</ele><time>2026-03-28T15:13:36.001Z</time></trkpt><trkpt lat="42.43433320697076" lon="-8.076433276230123"><ele>408.0</ele><time>2026-03-28T15:13:37.001Z</time></trkpt><trkpt lat="42.43439292825075" lon="-8.076539933137553"><ele>407.79999999999995</ele><time>2026-03-28T15:13:38.001Z</time></trkpt><trkpt lat="42.43444217527444" lon="-8.07664947155309"><ele>407.6</ele><time>2026-03-28T15:13:39.001Z</time></trkpt><trkpt lat="42.43449269506872" lon="-8.07675771704557"><ele>407.4</ele><time>2026-03-28T15:13:40.001Z</time></trkpt><trkpt lat="42.434545427495586" lon="-8.076852108559017"><ele>407.20000000000005</ele><time>2026-03-28T15:13:41.001Z</time></trkpt><trkpt lat="42.43459294979441" lon="-8.076954273052518"><ele>407.0</ele><time>2026-03-28T15:13:42.001Z</time></trkpt><trkpt lat="42.43464489269292" lon="-8.077050004619101"><ele>406.49999999999994</ele><time>2026-03-28T15:13:43.001Z</time></trkpt><trkpt lat="42.434698191482795" lon="-8.077149818209822"><ele>406.0</ele><time>2026-03-28T15:13:44.001Z</time></trkpt><trkpt lat="42.43475426827304" lon="-8.07724646815086"><ele>405.5</ele><time>2026-03-28T15:13:45Z</time></trkpt><trkpt lat="42.43481441661447" lon="-8.077334883756297"><ele>405.0</ele><time>2026-03-28T15:13:46Z</time></trkpt><trkpt lat="42.43487227088785" lon="-8.077413299852603"><ele>404.49999999999994</ele><time>2026-03-28T15:13:47Z</time></trkpt><trkpt lat="42.434923403888234" lon="-8.077490858473583"><ele>404.0</ele><time>2026-03-28T15:13:48Z</time></trkpt><trkpt lat="42.434964708218736" lon="-8.077562969599741"><ele>404.0</ele><time>2026-03-28T15:13:49Z</time></trkpt><trkpt lat="42.43499176138227" lon="-8.077656642350634"><ele>404.0</ele><time>2026-03-28T15:13:50Z</time></trkpt><trkpt lat="42.43499910378593" lon="-8.077746235054473"><ele>404.0</ele><time>2026-03-28T15:13:51Z</time></trkpt><trkpt lat="42.43495610707046" lon="-8.077901513941342"><ele>404.0</ele><time>2026-03-28T15:13:53Z</time></trkpt><trkpt lat="42.4348456814893" lon="-8.077939720579224"><ele>404.0</ele><time>2026-03-28T15:13:55Z</time></trkpt><trkpt lat="42.43473401835857" lon="-8.077871789151063"><ele>403.99999999999994</ele><time>2026-03-28T15:13:57Z</time></trkpt><trkpt lat="42.434673753632865" lon="-8.077809639480071"><ele>404.0</ele><time>2026-03-28T15:13:58Z</time></trkpt><trkpt lat="42.4346021027563" lon="-8.077781503577103"><ele>404.0</ele><time>2026-03-28T15:13:59Z</time></trkpt><trkpt lat="42.43451365447138" lon="-8.077776929695839"><ele>404.0</ele><time>2026-03-28T15:14:00Z</time></trkpt><trkpt lat="42.4344184573046" lon="-8.077773504772615"><ele>403.99999999999994</ele><time>2026-03-28T15:14:01Z</time></trkpt><trkpt lat="42.43433671906025" lon="-8.077777448057658"><ele>404.0</ele><time>2026-03-28T15:14:02Z</time></trkpt><trkpt lat="42.43427918740153" lon="-8.077820843424792"><ele>404.4</ele><time>2026-03-28T15:14:03Z</time></trkpt><trkpt lat="42.43420156276226" lon="-8.077849022561622"><ele>404.79999999999995</ele><time>2026-03-28T15:14:04Z</time></trkpt><trkpt lat="42.43410730964266" lon="-8.077848494291194"><ele>405.20000000000005</ele><time>2026-03-28T15:14:05Z</time></trkpt><trkpt lat="42.43400787468517" lon="-8.077843889710637"><ele>405.6</ele><time>2026-03-28T15:14:06Z</time></trkpt><trkpt lat="42.43391403156174" lon="-8.077851465245386"><ele>406.0</ele><time>2026-03-28T15:14:07Z</time></trkpt><trkpt lat="42.433809158310396" lon="-8.077840767082865"><ele>405.6</ele><time>2026-03-28T15:14:08Z</time></trkpt><trkpt lat="42.43369088789137" lon="-8.077856323924607"><ele>405.20000000000005</ele><time>2026-03-28T15:14:09Z</time></trkpt><trkpt lat="42.43358211563235" lon="-8.07784562244494"><ele>404.79999999999995</ele><time>2026-03-28T15:14:10Z</time></trkpt><trkpt lat="42.43346983795967" lon="-8.077839702830545"><ele>404.4</ele><time>2026-03-28T15:14:11Z</time></trkpt><trkpt lat="42.433365290714626" lon="-8.077833045382276"><ele>404.0</ele><time>2026-03-28T15:14:12Z</time></trkpt><trkpt lat="42.43325969893416" lon="-8.077823577378954"><ele>404.0</ele><time>2026-03-28T15:14:13Z</time></trkpt><trkpt lat="42.433159240448155" lon="-8.077818845048508"><ele>404.0</ele><time>2026-03-28T15:14:14Z</time></trkpt><trkpt lat="42.43305565964229" lon="-8.077813716422815"><ele>404.0</ele><time>2026-03-28T15:14:15Z</time></trkpt><trkpt lat="42.432960882273534" lon="-8.07780303760506"><ele>404.0</ele><time>2026-03-28T15:14:16Z</time></trkpt><trkpt lat="42.43286696478446" lon="-8.077791754022645"><ele>404.0</ele><time>2026-03-28T15:14:17Z</time></trkpt><trkpt lat="42.432775285401256" lon="-8.077799815225829"><ele>404.66666666666663</ele><time>2026-03-28T15:14:18Z</time></trkpt><trkpt lat="42.43269471028499" lon="-8.077793463451508"><ele>405.3333333333333</ele><time>2026-03-28T15:14:19Z</time></trkpt><trkpt lat="42.43260050769501" lon="-8.077800613238717"><ele>406.0</ele><time>2026-03-28T15:14:20Z</time></trkpt><trkpt lat="42.43251053888149" lon="-8.077796616286687"><ele>406.66666666666663</ele><time>2026-03-28T15:14:21Z</time></trkpt><trkpt lat="42.43241957715728" lon="-8.077784650831278"><ele>407.3333333333333</ele><time>2026-03-28T15:14:22Z</time></trkpt><trkpt lat="42.432341641533114" lon="-8.077786971594474"><ele>408.0</ele><time>2026-03-28T15:14:23Z</time></trkpt><trkpt lat="42.43225096927072" lon="-8.077754440756092"><ele>408.0</ele><time>2026-03-28T15:14:24Z</time></trkpt><trkpt lat="42.43217532235077" lon="-8.077756206920254"><ele>408.0</ele><time>2026-03-28T15:14:25Z</time></trkpt><trkpt lat="42.43209338456656" lon="-8.077756768178837"><ele>408.0</ele><time>2026-03-28T15:14:26Z</time></trkpt><trkpt lat="42.43201072844411" lon="-8.077762285278585"><ele>408.0</ele><time>2026-03-28T15:14:27Z</time></trkpt><trkpt lat="42.431934164761714" lon="-8.077767256365235"><ele>408.0</ele><time>2026-03-28T15:14:28Z</time></trkpt><trkpt lat="42.43185878832087" lon="-8.077759841734963"><ele>408.0</ele><time>2026-03-28T15:14:29Z</time></trkpt><trkpt lat="42.4317873176713" lon="-8.077750300848034"><ele>408.0</ele><time>2026-03-28T15:14:30Z</time></trkpt><trkpt lat="42.43172112886581" lon="-8.077746515446789"><ele>408.0</ele><time>2026-03-28T15:14:31Z</time></trkpt><trkpt lat="42.4316443669839" lon="-8.077722406928332"><ele>408.0</ele><time>2026-03-28T15:14:32Z</time></trkpt><trkpt lat="42.43157003544017" lon="-8.077712038967288"><ele>408.0</ele><time>2026-03-28T15:14:33Z</time></trkpt><trkpt lat="42.4314520995622" lon="-8.077710432152251"><ele>408.0</ele><time>2026-03-28T15:14:35Z</time></trkpt><trkpt lat="42.43135327766755" lon="-8.077751950913925"><ele>408.0</ele><time>2026-03-28T15:14:37Z</time></trkpt><trkpt lat="42.43126207569174" lon="-8.077777161008147"><ele>408.0</ele><time>2026-03-28T15:14:39Z</time></trkpt><trkpt lat="42.43119235382456" lon="-8.077730485698568"><ele>408.0</ele><time>2026-03-28T15:14:41Z</time></trkpt><trkpt lat="42.43119501230433" lon="-8.077635180789835"><ele>408.0</ele><time>2026-03-28T15:14:42Z</time></trkpt><trkpt lat="42.43119256301969" lon="-8.077531025519525"><ele>408.0</ele><time>2026-03-28T15:14:44Z</time></trkpt><trkpt lat="42.43114112277616" lon="-8.077429569383945"><ele>408.0</ele><time>2026-03-28T15:14:47Z</time></trkpt><trkpt lat="42.43110205860768" lon="-8.077352269913723"><ele>408.0</ele><time>2026-03-28T15:14:49Z</time></trkpt><trkpt lat="42.43103343304711" lon="-8.077246926418919"><ele>407.59999999999997</ele><time>2026-03-28T15:14:52Z</time></trkpt><trkpt lat="42.43100687491266" lon="-8.077121851921225"><ele>407.2</ele><time>2026-03-28T15:14:54Z</time></trkpt><trkpt lat="42.43098974592257" lon="-8.076993474209928"><ele>406.8</ele><time>2026-03-28T15:14:56Z</time></trkpt><trkpt lat="42.430966561854326" lon="-8.076852014105045"><ele>406.4</ele><time>2026-03-28T15:14:58Z</time></trkpt><trkpt lat="42.430942306877625" lon="-8.076711137433234"><ele>406.0</ele><time>2026-03-28T15:15:00Z</time></trkpt><trkpt lat="42.43091114076794" lon="-8.07659134233575"><ele>405.6666666666667</ele><time>2026-03-28T15:15:02Z</time></trkpt><trkpt lat="42.430877623792234" lon="-8.07647485387601"><ele>405.33333333333337</ele><time>2026-03-28T15:15:04Z</time></trkpt><trkpt lat="42.430845094458554" lon="-8.076350704196052"><ele>405.0</ele><time>2026-03-28T15:15:06Z</time></trkpt><trkpt lat="42.43082366354024" lon="-8.076261977735566"><ele>404.66666666666663</ele><time>2026-03-28T15:15:07Z</time></trkpt><trkpt lat="42.43080803761804" lon="-8.0761615588792"><ele>404.3333333333333</ele><time>2026-03-28T15:15:08Z</time></trkpt><trkpt lat="42.430782050030345" lon="-8.076056381666692"><ele>404.0</ele><time>2026-03-28T15:15:09Z</time></trkpt><trkpt lat="42.430758633686736" lon="-8.075954221921782"><ele>403.99999999999994</ele><time>2026-03-28T15:15:10Z</time></trkpt><trkpt lat="42.430747738386074" lon="-8.075847836189912"><ele>404.0</ele><time>2026-03-28T15:15:11Z</time></trkpt><trkpt lat="42.430719824335355" lon="-8.07575824710529"><ele>404.0</ele><time>2026-03-28T15:15:12Z</time></trkpt><trkpt lat="42.43069900245719" lon="-8.075673742779559"><ele>404.0</ele><time>2026-03-28T15:15:13Z</time></trkpt><trkpt lat="42.430676762990984" lon="-8.075590803260258"><ele>403.99999999999994</ele><time>2026-03-28T15:15:14Z</time></trkpt><trkpt lat="42.4306442085026" lon="-8.075443154281364"><ele>404.0</ele><time>2026-03-28T15:15:16Z</time></trkpt><trkpt lat="42.43056925138813" lon="-8.075342686270277"><ele>403.2</ele><time>2026-03-28T15:15:18Z</time></trkpt><trkpt lat="42.43044972834726" lon="-8.075364626451195"><ele>402.4</ele><time>2026-03-28T15:15:20Z</time></trkpt><trkpt lat="42.430360415751984" lon="-8.075390656035642"><ele>401.6</ele><time>2026-03-28T15:15:21Z</time></trkpt><trkpt lat="42.430269058810964" lon="-8.075413023725215"><ele>400.8</ele><time>2026-03-28T15:15:22Z</time></trkpt><trkpt lat="42.43018406889283" lon="-8.075428249998115"><ele>400.0</ele><time>2026-03-28T15:15:24Z</time></trkpt><trkpt lat="42.4301328133391" lon="-8.075198795133648"><ele>400.0</ele><time>2026-03-28T15:15:27.001Z</time></trkpt><trkpt lat="42.4301312751181" lon="-8.075104793495482"><ele>400.0</ele><time>2026-03-28T15:15:28.001Z</time></trkpt><trkpt lat="42.43010293732439" lon="-8.07497369532913"><ele>400.0</ele><time>2026-03-28T15:15:30.001Z</time></trkpt><trkpt lat="42.43023386104453" lon="-8.074906014935456"><ele>400.0</ele><time>2026-03-28T15:15:33.001Z</time></trkpt><trkpt lat="42.43033110430643" lon="-8.074877661815414"><ele>400.0</ele><time>2026-03-28T15:15:35.001Z</time></trkpt><trkpt lat="42.43043054880951" lon="-8.074849358535388"><ele>400.2</ele><time>2026-03-28T15:15:37.001Z</time></trkpt><trkpt lat="42.430505754175115" lon="-8.074797965872138"><ele>400.4</ele><time>2026-03-28T15:15:40.001Z</time></trkpt><trkpt lat="42.43046342153353" lon="-8.074602927303086"><ele>400.6</ele><time>2026-03-28T15:15:41.001Z</time></trkpt><trkpt lat="42.43042064984906" lon="-8.07447345643413"><ele>400.8</ele><time>2026-03-28T15:15:42.001Z</time></trkpt><trkpt lat="42.430390220539614" lon="-8.074343741515108"><ele>401.0</ele><time>2026-03-28T15:15:43.001Z</time></trkpt><trkpt lat="42.430361874405314" lon="-8.074221030954652"><ele>400.20000000000005</ele><time>2026-03-28T15:15:44.001Z</time></trkpt><trkpt lat="42.43032830956891" lon="-8.07410799904764"><ele>399.40000000000003</ele><time>2026-03-28T15:15:45.001Z</time></trkpt><trkpt lat="42.43031047519881" lon="-8.073997263432334"><ele>398.6</ele><time>2026-03-28T15:15:46.001Z</time></trkpt><trkpt lat="42.43029833149986" lon="-8.073887543569127"><ele>397.8</ele><time>2026-03-28T15:15:47Z</time></trkpt><trkpt lat="42.43036554585524" lon="-8.073674476184966"><ele>397.0</ele><time>2026-03-28T15:15:49Z</time></trkpt><trkpt lat="42.430438791527436" lon="-8.073578787099866"><ele>397.0</ele><time>2026-03-28T15:15:50Z</time></trkpt><trkpt lat="42.43051807623087" lon="-8.073486058695774"><ele>397.0</ele><time>2026-03-28T15:15:51Z</time></trkpt><trkpt lat="42.43058959305667" lon="-8.073380569870155"><ele>397.0</ele><time>2026-03-28T15:15:52Z</time></trkpt><trkpt lat="42.430652945109685" lon="-8.073272888892149"><ele>397.0</ele><time>2026-03-28T15:15:53Z</time></trkpt><trkpt lat="42.43071587148064" lon="-8.073164237974195"><ele>397.0</ele><time>2026-03-28T15:15:54Z</time></trkpt><trkpt lat="42.43077943351511" lon="-8.073067553220312"><ele>396.20000000000005</ele><time>2026-03-28T15:15:55Z</time></trkpt><trkpt lat="42.43083909275666" lon="-8.072968051041075"><ele>395.4</ele><time>2026-03-28T15:15:56Z</time></trkpt><trkpt lat="42.430904502080374" lon="-8.072877625203418"><ele>394.6</ele><time>2026-03-28T15:15:57Z</time></trkpt><trkpt lat="42.430960989739376" lon="-8.07279037478881"><ele>393.79999999999995</ele><time>2026-03-28T15:15:58Z</time></trkpt><trkpt lat="42.43102821548232" lon="-8.07268566971346"><ele>393.0</ele><time>2026-03-28T15:15:59Z</time></trkpt><trkpt lat="42.43107982592299" lon="-8.072601399714992"><ele>393.0</ele><time>2026-03-28T15:16:00Z</time></trkpt><trkpt lat="42.43113686184727" lon="-8.072511947187191"><ele>393.0</ele><time>2026-03-28T15:16:01Z</time></trkpt><trkpt lat="42.43117790615342" lon="-8.072429891057496"><ele>393.0</ele><time>2026-03-28T15:16:02Z</time></trkpt><trkpt lat="42.43124263744841" lon="-8.072356885047927"><ele>393.0</ele><time>2026-03-28T15:16:03Z</time></trkpt><trkpt lat="42.43129644757492" lon="-8.072270308010644"><ele>393.0</ele><time>2026-03-28T15:16:04Z</time></trkpt><trkpt lat="42.43133197608195" lon="-8.072179343840308"><ele>393.0</ele><time>2026-03-28T15:16:05Z</time></trkpt><trkpt lat="42.43138711422931" lon="-8.07208822413277"><ele>393.3333333333333</ele><time>2026-03-28T15:16:06Z</time></trkpt><trkpt lat="42.431436816605505" lon="-8.072006087429042"><ele>393.66666666666663</ele><time>2026-03-28T15:16:07Z</time></trkpt><trkpt lat="42.43148859145956" lon="-8.071920525812073"><ele>394.0</ele><time>2026-03-28T15:16:08Z</time></trkpt><trkpt lat="42.431542365942406" lon="-8.07183165963968"><ele>394.3333333333333</ele><time>2026-03-28T15:16:09Z</time></trkpt><trkpt lat="42.43159124215927" lon="-8.071750889080576"><ele>394.66666666666663</ele><time>2026-03-28T15:16:10Z</time></trkpt><trkpt lat="42.43164296168205" lon="-8.07166518483846"><ele>395.0</ele><time>2026-03-28T15:16:11Z</time></trkpt><trkpt lat="42.43169432251926" lon="-8.071579734307395"><ele>395.16666666666663</ele><time>2026-03-28T15:16:12Z</time></trkpt><trkpt lat="42.431740739801285" lon="-8.071502508535929"><ele>395.3333333333333</ele><time>2026-03-28T15:16:13Z</time></trkpt><trkpt lat="42.43179749936088" lon="-8.071428371175356"><ele>395.5</ele><time>2026-03-28T15:16:14Z</time></trkpt><trkpt lat="42.43183620173697" lon="-8.071356134270376"><ele>395.66666666666663</ele><time>2026-03-28T15:16:15Z</time></trkpt><trkpt lat="42.43189369777792" lon="-8.071242478355982"><ele>395.8333333333333</ele><time>2026-03-28T15:16:17Z</time></trkpt><trkpt lat="42.43195864865062" lon="-8.07120558165024"><ele>396.0</ele><time>2026-03-28T15:16:20Z</time></trkpt><trkpt lat="42.4320709761193" lon="-8.071399051567084"><ele>396.0</ele><time>2026-03-28T15:16:21Z</time></trkpt><trkpt lat="42.432100411410595" lon="-8.071501568612284"><ele>396.0</ele><time>2026-03-28T15:16:22Z</time></trkpt><trkpt lat="42.43215787544358" lon="-8.071621884927778"><ele>396.0</ele><time>2026-03-28T15:16:23Z</time></trkpt><trkpt lat="42.432208628733044" lon="-8.07173807685815"><ele>396.0</ele><time>2026-03-28T15:16:24Z</time></trkpt><trkpt lat="42.43227108488176" lon="-8.071887584245928"><ele>396.0</ele><time>2026-03-28T15:16:25Z</time></trkpt><trkpt lat="42.43233706505228" lon="-8.072036184418579"><ele>396.5</ele><time>2026-03-28T15:16:26Z</time></trkpt><trkpt lat="42.432409107207256" lon="-8.072192990606556"><ele>397.0</ele><time>2026-03-28T15:16:27Z</time></trkpt><trkpt lat="42.43247970864914" lon="-8.072353539512898"><ele>397.5</ele><time>2026-03-28T15:16:28Z</time></trkpt><trkpt lat="42.43254980340501" lon="-8.072511808233827"><ele>398.0</ele><time>2026-03-28T15:16:29Z</time></trkpt><trkpt lat="42.432614569851474" lon="-8.072651106650763"><ele>398.3333333333333</ele><time>2026-03-28T15:16:30Z</time></trkpt><trkpt lat="42.43267536409595" lon="-8.072775854055152"><ele>398.66666666666663</ele><time>2026-03-28T15:16:31Z</time></trkpt><trkpt lat="42.43271989390444" lon="-8.072893982868912"><ele>399.0</ele><time>2026-03-28T15:16:32Z</time></trkpt><trkpt lat="42.43277042544018" lon="-8.072998082417765"><ele>399.33333333333337</ele><time>2026-03-28T15:16:33Z</time></trkpt><trkpt lat="42.43281480439802" lon="-8.073092131447565"><ele>399.6666666666667</ele><time>2026-03-28T15:16:34Z</time></trkpt><trkpt lat="42.43284545000488" lon="-8.073169368466063"><ele>400.0</ele><time>2026-03-28T15:16:35Z</time></trkpt><trkpt lat="42.43273069292687" lon="-8.073259750631474"><ele>400.33333333333337</ele><time>2026-03-28T15:16:37Z</time></trkpt><trkpt lat="42.43264970642533" lon="-8.073342930801399"><ele>400.6666666666667</ele><time>2026-03-28T15:16:39Z</time></trkpt><trkpt lat="42.43257487987071" lon="-8.073395572142728"><ele>401.0</ele><time>2026-03-28T15:16:40Z</time></trkpt><trkpt lat="42.43250367759061" lon="-8.073444633352793"><ele>401.33333333333337</ele><time>2026-03-28T15:16:41Z</time></trkpt><trkpt lat="42.432449795745335" lon="-8.073499025794396"><ele>401.6666666666667</ele><time>2026-03-28T15:16:42Z</time></trkpt><trkpt lat="42.432353750008396" lon="-8.07355034558961"><ele>402.0</ele><time>2026-03-28T15:16:43Z</time></trkpt><trkpt lat="42.432277566384236" lon="-8.073599982657006"><ele>402.0</ele><time>2026-03-28T15:16:44Z</time></trkpt><trkpt lat="42.432210923186645" lon="-8.073666989904812"><ele>402.0</ele><time>2026-03-28T15:16:45Z</time></trkpt><trkpt lat="42.432172146538285" lon="-8.073738018480507"><ele>402.0</ele><time>2026-03-28T15:16:46Z</time></trkpt><trkpt lat="42.43210794187374" lon="-8.073788120873596"><ele>402.0</ele><time>2026-03-28T15:16:47Z</time></trkpt><trkpt lat="42.432040361058355" lon="-8.073829276200915"><ele>402.0</ele><time>2026-03-28T15:16:48Z</time></trkpt><trkpt lat="42.431974793377" lon="-8.073851086287158"><ele>402.0</ele><time>2026-03-28T15:16:49Z</time></trkpt><trkpt lat="42.43189325938777" lon="-8.07393581381638"><ele>402.0</ele><time>2026-03-28T15:16:51Z</time></trkpt><trkpt lat="42.43179366865616" lon="-8.07401116892995"><ele>402.0</ele><time>2026-03-28T15:16:53Z</time></trkpt><trkpt lat="42.43172216217839" lon="-8.074068267413615"><ele>402.0</ele><time>2026-03-28T15:16:55Z</time></trkpt><trkpt lat="42.43166513974637" lon="-8.074133181584793"><ele>402.0</ele><time>2026-03-28T15:16:57Z</time></trkpt><trkpt lat="42.4315996814019" lon="-8.074195664310768"><ele>402.0</ele><time>2026-03-28T15:16:59Z</time></trkpt><trkpt lat="42.43151337275897" lon="-8.074270926896448"><ele>402.0</ele><time>2026-03-28T15:17:01Z</time></trkpt><trkpt lat="42.43145586897939" lon="-8.074312394217634"><ele>402.0</ele><time>2026-03-28T15:17:02Z</time></trkpt><trkpt lat="42.43139208496052" lon="-8.074361215937408"><ele>402.0</ele><time>2026-03-28T15:17:03Z</time></trkpt><trkpt lat="42.43132832681997" lon="-8.074404425862294"><ele>402.0</ele><time>2026-03-28T15:17:04Z</time></trkpt><trkpt lat="42.43126553562106" lon="-8.074445437700433"><ele>402.0</ele><time>2026-03-28T15:17:05Z</time></trkpt><trkpt lat="42.431205413153506" lon="-8.074474502003921"><ele>402.0</ele><time>2026-03-28T15:17:06Z</time></trkpt><trkpt lat="42.4311384320513" lon="-8.074521501691478"><ele>402.0</ele><time>2026-03-28T15:17:07Z</time></trkpt><trkpt lat="42.43107407975841" lon="-8.074547710640589"><ele>401.85714285714283</ele><time>2026-03-28T15:17:08Z</time></trkpt><trkpt lat="42.431005011331436" lon="-8.07457487891341"><ele>401.7142857142857</ele><time>2026-03-28T15:17:09Z</time></trkpt><trkpt lat="42.430942296389254" lon="-8.074588682425755"><ele>401.57142857142856</ele><time>2026-03-28T15:17:10Z</time></trkpt><trkpt lat="42.43087817324084" lon="-8.074623134771715"><ele>401.42857142857144</ele><time>2026-03-28T15:17:11Z</time></trkpt><trkpt lat="42.43081277026287" lon="-8.074669702091091"><ele>401.28571428571433</ele><time>2026-03-28T15:17:12Z</time></trkpt><trkpt lat="42.430746133624595" lon="-8.074699368281411"><ele>401.14285714285717</ele><time>2026-03-28T15:17:13Z</time></trkpt><trkpt lat="42.430682137901" lon="-8.07472745942426"><ele>401.0</ele><time>2026-03-28T15:17:14Z</time></trkpt><trkpt lat="42.43062079788741" lon="-8.074753976149342"><ele>401.0</ele><time>2026-03-28T15:17:15Z</time></trkpt><trkpt lat="42.43054799671536" lon="-8.074760656380331"><ele>401.0</ele><time>2026-03-28T15:17:17Z</time></trkpt><trkpt lat="42.430434309852096" lon="-8.074592947232569"><ele>401.0</ele><time>2026-03-28T15:17:30Z</time></trkpt><trkpt lat="42.43041802365754" lon="-8.074470904053644"><ele>401.0</ele><time>2026-03-28T15:17:31.001Z</time></trkpt><trkpt lat="42.430393025291515" lon="-8.074321431949695"><ele>401.0</ele><time>2026-03-28T15:17:32.001Z</time></trkpt><trkpt lat="42.430357788253275" lon="-8.074186962766639"><ele>400.20000000000005</ele><time>2026-03-28T15:17:33.001Z</time></trkpt><trkpt lat="42.43032931170341" lon="-8.074056277054007"><ele>399.40000000000003</ele><time>2026-03-28T15:17:34.001Z</time></trkpt><trkpt lat="42.430314863905984" lon="-8.073943529566757"><ele>398.6</ele><time>2026-03-28T15:17:35.001Z</time></trkpt><trkpt lat="42.43029644647772" lon="-8.073851462895531"><ele>397.8</ele><time>2026-03-28T15:17:36.001Z</time></trkpt><trkpt lat="42.43027473489792" lon="-8.073750968543889"><ele>397.0</ele><time>2026-03-28T15:17:37.001Z</time></trkpt><trkpt lat="42.430431827441986" lon="-8.073592483622411"><ele>397.0</ele><time>2026-03-28T15:17:38.001Z</time></trkpt><trkpt lat="42.43052303872435" lon="-8.07347380683114"><ele>397.0</ele><time>2026-03-28T15:17:39.001Z</time></trkpt><trkpt lat="42.430612557414065" lon="-8.073352681905119"><ele>397.0</ele><time>2026-03-28T15:17:40.001Z</time></trkpt><trkpt lat="42.43069637101153" lon="-8.073222380870424"><ele>397.0</ele><time>2026-03-28T15:17:41.001Z</time></trkpt><trkpt lat="42.43077289300406" lon="-8.073089383734876"><ele>396.0</ele><time>2026-03-28T15:17:42.001Z</time></trkpt><trkpt lat="42.43085465753038" lon="-8.072953571534109"><ele>395.0</ele><time>2026-03-28T15:17:43.001Z</time></trkpt><trkpt lat="42.43093176058429" lon="-8.072826568306517"><ele>394.0</ele><time>2026-03-28T15:17:44.001Z</time></trkpt><trkpt lat="42.431002679272474" lon="-8.072709944852084"><ele>393.0</ele><time>2026-03-28T15:17:45.001Z</time></trkpt><trkpt lat="42.43107165995421" lon="-8.072599825418253"><ele>393.0</ele><time>2026-03-28T15:17:46.001Z</time></trkpt><trkpt lat="42.43113097565877" lon="-8.072497753628866"><ele>393.0</ele><time>2026-03-28T15:17:47Z</time></trkpt><trkpt lat="42.431193798590755" lon="-8.072409201887785"><ele>393.0</ele><time>2026-03-28T15:17:48Z</time></trkpt><trkpt lat="42.43125882554053" lon="-8.07233126787294"><ele>393.0</ele><time>2026-03-28T15:17:49Z</time></trkpt><trkpt lat="42.43131525525682" lon="-8.072228954391145"><ele>393.0</ele><time>2026-03-28T15:17:50Z</time></trkpt><trkpt lat="42.43137152368128" lon="-8.072143113693988"><ele>393.3333333333333</ele><time>2026-03-28T15:17:51Z</time></trkpt><trkpt lat="42.431412032118615" lon="-8.07206834113791"><ele>393.66666666666663</ele><time>2026-03-28T15:17:52Z</time></trkpt><trkpt lat="42.431490683028066" lon="-8.07194490472062"><ele>394.0</ele><time>2026-03-28T15:17:54Z</time></trkpt><trkpt lat="42.43153149583532" lon="-8.071868198143896"><ele>394.3333333333333</ele><time>2026-03-28T15:17:55Z</time></trkpt><trkpt lat="42.43158343814722" lon="-8.071792501874379"><ele>394.66666666666663</ele><time>2026-03-28T15:17:56Z</time></trkpt><trkpt lat="42.4316322983547" lon="-8.071677783684132"><ele>395.0</ele><time>2026-03-28T15:17:57Z</time></trkpt><trkpt lat="42.43168909501886" lon="-8.071553028419387"><ele>395.2</ele><time>2026-03-28T15:17:58Z</time></trkpt><trkpt lat="42.431756827109815" lon="-8.071449849512067"><ele>395.4</ele><time>2026-03-28T15:17:59Z</time></trkpt><trkpt lat="42.43181568770781" lon="-8.071367739540616"><ele>395.6</ele><time>2026-03-28T15:18:00Z</time></trkpt><trkpt lat="42.43187345828692" lon="-8.071281912049523"><ele>395.8</ele><time>2026-03-28T15:18:02Z</time></trkpt><trkpt lat="42.43193681845405" lon="-8.071207000914542"><ele>396.0</ele><time>2026-03-28T15:18:07Z</time></trkpt><trkpt lat="42.432033606230654" lon="-8.07133786514672"><ele>396.0</ele><time>2026-03-28T15:18:08Z</time></trkpt><trkpt lat="42.432060731813" lon="-8.071419496055984"><ele>396.0</ele><time>2026-03-28T15:18:09Z</time></trkpt><trkpt lat="42.43211745718743" lon="-8.071528407649023"><ele>396.0</ele><time>2026-03-28T15:18:11Z</time></trkpt><trkpt lat="42.432175599373245" lon="-8.071679032119924"><ele>396.0</ele><time>2026-03-28T15:18:13Z</time></trkpt><trkpt lat="42.43221086998043" lon="-8.071765491466346"><ele>396.0</ele><time>2026-03-28T15:18:14Z</time></trkpt><trkpt lat="42.432256037184665" lon="-8.071867062708252"><ele>396.4</ele><time>2026-03-28T15:18:15Z</time></trkpt><trkpt lat="42.43230427838871" lon="-8.07197519448355"><ele>396.8</ele><time>2026-03-28T15:18:16Z</time></trkpt><trkpt lat="42.43236032293292" lon="-8.072091152373757"><ele>397.2</ele><time>2026-03-28T15:18:17Z</time></trkpt><trkpt lat="42.43240952240377" lon="-8.072193519516803"><ele>397.59999999999997</ele><time>2026-03-28T15:18:18Z</time></trkpt><trkpt lat="42.43244733501556" lon="-8.072296280080788"><ele>398.0</ele><time>2026-03-28T15:18:19Z</time></trkpt><trkpt lat="42.43249929576643" lon="-8.07240260069568"><ele>398.4</ele><time>2026-03-28T15:18:20Z</time></trkpt><trkpt lat="42.432553185796905" lon="-8.072518119552505"><ele>398.79999999999995</ele><time>2026-03-28T15:18:21Z</time></trkpt><trkpt lat="42.43260482054745" lon="-8.072638565265237"><ele>399.2</ele><time>2026-03-28T15:18:22Z</time></trkpt><trkpt lat="42.4326608142652" lon="-8.072754739378961"><ele>399.6</ele><time>2026-03-28T15:18:23Z</time></trkpt><trkpt lat="42.43271068974725" lon="-8.072870385266235"><ele>400.0</ele><time>2026-03-28T15:18:24Z</time></trkpt><trkpt lat="42.432756670140904" lon="-8.072977827996105"><ele>400.0</ele><time>2026-03-28T15:18:25Z</time></trkpt><trkpt lat="42.43280517566773" lon="-8.07306425113569"><ele>400.0</ele><time>2026-03-28T15:18:26Z</time></trkpt><trkpt lat="42.432862407809324" lon="-8.073182247264972"><ele>400.0</ele><time>2026-03-28T15:18:28Z</time></trkpt><trkpt lat="42.432733782993466" lon="-8.073257052323568"><ele>400.0</ele><time>2026-03-28T15:18:30Z</time></trkpt><trkpt lat="42.432661638300885" lon="-8.073337505954195"><ele>400.0</ele><time>2026-03-28T15:18:31Z</time></trkpt><trkpt lat="42.432565284249016" lon="-8.073400657101764"><ele>400.33333333333337</ele><time>2026-03-28T15:18:32Z</time></trkpt><trkpt lat="42.432491524675754" lon="-8.073462385896587"><ele>400.6666666666667</ele><time>2026-03-28T15:18:33Z</time></trkpt><trkpt lat="42.432414071661235" lon="-8.073537704724405"><ele>401.0</ele><time>2026-03-28T15:18:34Z</time></trkpt><trkpt lat="42.43234171663581" lon="-8.073603005632538"><ele>401.33333333333337</ele><time>2026-03-28T15:18:35Z</time></trkpt><trkpt lat="42.43227556975147" lon="-8.073659661569323"><ele>401.6666666666667</ele><time>2026-03-28T15:18:36Z</time></trkpt><trkpt lat="42.43220860226052" lon="-8.073693372102651"><ele>402.0</ele><time>2026-03-28T15:18:37Z</time></trkpt><trkpt lat="42.4322742028364" lon="-8.07390055430133"><ele>402.0</ele><time>2026-03-28T15:18:41Z</time></trkpt><trkpt lat="42.43233766137899" lon="-8.073975372576061"><ele>402.0</ele><time>2026-03-28T15:18:42Z</time></trkpt><trkpt lat="42.43240061012027" lon="-8.074059702364167"><ele>402.0</ele><time>2026-03-28T15:18:43Z</time></trkpt><trkpt lat="42.432468348675165" lon="-8.074160876225477"><ele>402.0</ele><time>2026-03-28T15:18:44Z</time></trkpt><trkpt lat="42.43253255936912" lon="-8.074261803675597"><ele>402.0</ele><time>2026-03-28T15:18:45Z</time></trkpt><trkpt lat="42.43260258363749" lon="-8.074355104572902"><ele>403.0</ele><time>2026-03-28T15:18:46Z</time></trkpt><trkpt lat="42.43268354964985" lon="-8.07446705040857"><ele>404.0</ele><time>2026-03-28T15:18:47Z</time></trkpt><trkpt lat="42.432764793723976" lon="-8.074581716613597"><ele>405.0</ele><time>2026-03-28T15:18:48Z</time></trkpt><trkpt lat="42.43284570313185" lon="-8.074709219164916"><ele>406.0</ele><time>2026-03-28T15:18:49Z</time></trkpt><trkpt lat="42.4329294834274" lon="-8.074816711925742"><ele>406.4</ele><time>2026-03-28T15:18:50Z</time></trkpt><trkpt lat="42.4330040488969" lon="-8.074925686946784"><ele>406.8</ele><time>2026-03-28T15:18:51Z</time></trkpt><trkpt lat="42.433055733751424" lon="-8.07501775551261"><ele>407.2</ele><time>2026-03-28T15:18:52Z</time></trkpt><trkpt lat="42.433103596185404" lon="-8.075113504274164"><ele>407.59999999999997</ele><time>2026-03-28T15:18:53Z</time></trkpt><trkpt lat="42.43313269090414" lon="-8.075210481110089"><ele>408.0</ele><time>2026-03-28T15:18:55Z</time></trkpt><trkpt lat="42.43288986360391" lon="-8.075435316434367"><ele>408.59999999999997</ele><time>2026-03-28T15:18:59Z</time></trkpt><trkpt lat="42.43281463456507" lon="-8.07548814740005"><ele>409.2</ele><time>2026-03-28T15:19:00Z</time></trkpt><trkpt lat="42.432725829528856" lon="-8.075560733525409"><ele>409.8</ele><time>2026-03-28T15:19:01Z</time></trkpt><trkpt lat="42.432655812482466" lon="-8.07560888172671"><ele>410.4</ele><time>2026-03-28T15:19:02Z</time></trkpt><trkpt lat="42.43258812463275" lon="-8.075671130273072"><ele>411.0</ele><time>2026-03-28T15:19:03Z</time></trkpt><trkpt lat="42.432488535976084" lon="-8.075778780556172"><ele>411.0</ele><time>2026-03-28T15:19:05Z</time></trkpt><trkpt lat="42.432458350096674" lon="-8.075854416541176"><ele>411.0</ele><time>2026-03-28T15:19:06Z</time></trkpt><trkpt lat="42.432397071567486" lon="-8.075890106467012"><ele>411.0</ele><time>2026-03-28T15:19:07Z</time></trkpt><trkpt lat="42.43231251577261" lon="-8.075914281746185"><ele>411.0</ele><time>2026-03-28T15:19:09.999Z</time></trkpt><trkpt lat="42.432238577273665" lon="-8.075860465689223"><ele>411.0</ele><time>2026-03-28T15:19:11.999Z</time></trkpt><trkpt lat="42.432222844615254" lon="-8.075768482452661"><ele>411.0</ele><time>2026-03-28T15:19:13.999Z</time></trkpt><trkpt lat="42.43226827576608" lon="-8.075707686977381"><ele>411.0</ele><time>2026-03-28T15:19:15.999Z</time></trkpt><trkpt lat="42.43227647551587" lon="-8.075792765040799"><ele>412.0</ele><time>2026-03-28T15:19:26.999Z</time></trkpt></trkseg><trkseg><trkpt lat="42.432215559168235" lon="-8.075874446761182"><ele>412.0</ele><time>2026-03-28T15:30:22Z</time></trkpt><trkpt lat="42.43225127614258" lon="-8.076000146223079"><ele>412.0</ele><time>2026-03-28T15:30:28Z</time></trkpt><trkpt lat="42.432298992277175" lon="-8.076074038926546"><ele>412.0</ele><time>2026-03-28T15:30:29Z</time></trkpt><trkpt lat="42.432351708218754" lon="-8.0761426875073"><ele>412.0</ele><time>2026-03-28T15:30:30Z</time></trkpt><trkpt lat="42.432380593438594" lon="-8.07627767184968"><ele>412.0</ele><time>2026-03-28T15:30:32Z</time></trkpt><trkpt lat="42.43243012681117" lon="-8.076398235839"><ele>412.0</ele><time>2026-03-28T15:30:34Z</time></trkpt><trkpt lat="42.4324843516292" lon="-8.076520868199587"><ele>412.0</ele><time>2026-03-28T15:30:36Z</time></trkpt><trkpt lat="42.43251363621331" lon="-8.076633987789073"><ele>412.0</ele><time>2026-03-28T15:30:38Z</time></trkpt><trkpt lat="42.4325450369357" lon="-8.076741666893916"><ele>412.0</ele><time>2026-03-28T15:30:40Z</time></trkpt><trkpt lat="42.432558475401535" lon="-8.076839683602667"><ele>412.0</ele><time>2026-03-28T15:30:42Z</time></trkpt><trkpt lat="42.432591847351226" lon="-8.076973277419459"><ele>412.00000000000006</ele><time>2026-03-28T15:30:44Z</time></trkpt><trkpt lat="42.43261141314901" lon="-8.077097828292757"><ele>412.0</ele><time>2026-03-28T15:30:46Z</time></trkpt><trkpt lat="42.43263310400557" lon="-8.077229835970268"><ele>412.0</ele><time>2026-03-28T15:30:47.999Z</time></trkpt><trkpt lat="42.432657089082106" lon="-8.077349094280839"><ele>412.0</ele><time>2026-03-28T15:30:49.999Z</time></trkpt><trkpt lat="42.432672440412695" lon="-8.077459045584508"><ele>412.00000000000006</ele><time>2026-03-28T15:30:51.999Z</time></trkpt><trkpt lat="42.43269451767186" lon="-8.07755116801406"><ele>412.0</ele><time>2026-03-28T15:30:53.999Z</time></trkpt><trkpt lat="42.43271075080576" lon="-8.077649582271937"><ele>411.20000000000005</ele><time>2026-03-28T15:30:56.999Z</time></trkpt><trkpt lat="42.432721258976855" lon="-8.077747163373688"><ele>410.4</ele><time>2026-03-28T15:31:03.999Z</time></trkpt><trkpt lat="42.43286501374992" lon="-8.077725833602567"><ele>409.6</ele><time>2026-03-28T15:31:05.999Z</time></trkpt><trkpt lat="42.4329560727481" lon="-8.077726132641319"><ele>408.79999999999995</ele><time>2026-03-28T15:31:06.999Z</time></trkpt><trkpt lat="42.4330624779869" lon="-8.077727316742875"><ele>408.0</ele><time>2026-03-28T15:31:07.999Z</time></trkpt><trkpt lat="42.43318019739089" lon="-8.077728567686366"><ele>407.0</ele><time>2026-03-28T15:31:08.999Z</time></trkpt><trkpt lat="42.43330507129427" lon="-8.07774534310424"><ele>406.0</ele><time>2026-03-28T15:31:09.999Z</time></trkpt><trkpt lat="42.43343578793683" lon="-8.07775778968124"><ele>405.0</ele><time>2026-03-28T15:31:10.999Z</time></trkpt><trkpt lat="42.4335389840165" lon="-8.077753671184619"><ele>404.0</ele><time>2026-03-28T15:31:11.999Z</time></trkpt><trkpt lat="42.433655857090216" lon="-8.077749115065883"><ele>404.0</ele><time>2026-03-28T15:31:12.999Z</time></trkpt><trkpt lat="42.433753530897064" lon="-8.077742718921192"><ele>404.0</ele><time>2026-03-28T15:31:13.999Z</time></trkpt><trkpt lat="42.43387964551825" lon="-8.077742718922627"><ele>404.0</ele><time>2026-03-28T15:31:14.999Z</time></trkpt><trkpt lat="42.43400005815171" lon="-8.07774271892535"><ele>404.0</ele><time>2026-03-28T15:31:15.999Z</time></trkpt><trkpt lat="42.43410237234897" lon="-8.077745879705056"><ele>404.0</ele><time>2026-03-28T15:31:16.999Z</time></trkpt><trkpt lat="42.4341971552806" lon="-8.077750541153982"><ele>403.99999999999994</ele><time>2026-03-28T15:31:17.999Z</time></trkpt><trkpt lat="42.43427448336806" lon="-8.077751625254828"><ele>404.0</ele><time>2026-03-28T15:31:18.999Z</time></trkpt><trkpt lat="42.43435838735905" lon="-8.077750201007019"><ele>404.0</ele><time>2026-03-28T15:31:19.999Z</time></trkpt><trkpt lat="42.434450947097524" lon="-8.077759321259752"><ele>404.0</ele><time>2026-03-28T15:31:20.999Z</time></trkpt><trkpt lat="42.43452845388914" lon="-8.0777274660718"><ele>403.99999999999994</ele><time>2026-03-28T15:31:21.999Z</time></trkpt><trkpt lat="42.434599345860406" lon="-8.077707120384733"><ele>404.0</ele><time>2026-03-28T15:31:22.999Z</time></trkpt><trkpt lat="42.43466527224232" lon="-8.077692124162567"><ele>403.99999999999994</ele><time>2026-03-28T15:31:23.999Z</time></trkpt><trkpt lat="42.43472187913225" lon="-8.077637219522957"><ele>404.0</ele><time>2026-03-28T15:31:24.999Z</time></trkpt><trkpt lat="42.43481307285851" lon="-8.07751215676437"><ele>404.0</ele><time>2026-03-28T15:31:26.999Z</time></trkpt><trkpt lat="42.43488419975339" lon="-8.077492649419067"><ele>404.0</ele><time>2026-03-28T15:31:27.999Z</time></trkpt><trkpt lat="42.434955572553235" lon="-8.077528419261954"><ele>403.99999999999994</ele><time>2026-03-28T15:31:28.999Z</time></trkpt><trkpt lat="42.43501265485469" lon="-8.077611271549264"><ele>404.0</ele><time>2026-03-28T15:31:29.999Z</time></trkpt><trkpt lat="42.4350331187931" lon="-8.077717293046877"><ele>404.0</ele><time>2026-03-28T15:31:30.999Z</time></trkpt><trkpt lat="42.435013875600305" lon="-8.077825282042317"><ele>404.0</ele><time>2026-03-28T15:31:31.999Z</time></trkpt><trkpt lat="42.434963194344604" lon="-8.077909271442433"><ele>404.0</ele><time>2026-03-28T15:31:32.999Z</time></trkpt><trkpt lat="42.434916895097615" lon="-8.077971486386566"><ele>404.0</ele><time>2026-03-28T15:31:33.999Z</time></trkpt><trkpt lat="42.43484821647697" lon="-8.078080336744653"><ele>404.0</ele><time>2026-03-28T15:31:35.999Z</time></trkpt><trkpt lat="42.43476748398384" lon="-8.07797827553026"><ele>404.0</ele><time>2026-03-28T15:31:37.999Z</time></trkpt></trkseg><trkseg><trkpt lat="42.434390875780515" lon="-8.077734964293585"><ele>406.0</ele><time>2026-03-28T15:46:20.415Z</time></trkpt><trkpt lat="42.434275136224734" lon="-8.077705371404722"><ele>406.0</ele><time>2026-03-28T15:46:20.993Z</time></trkpt><trkpt lat="42.43413011308565" lon="-8.077706267766114"><ele>406.0</ele><time>2026-03-28T15:46:21.993Z</time></trkpt><trkpt lat="42.433982947858276" lon="-8.077733296770537"><ele>406.0</ele><time>2026-03-28T15:46:22.993Z</time></trkpt><trkpt lat="42.433665222527864" lon="-8.0777342990116"><ele>405.33333333333337</ele><time>2026-03-28T15:46:24.003Z</time></trkpt><trkpt lat="42.43349871602136" lon="-8.077733041726125"><ele>404.66666666666663</ele><time>2026-03-28T15:46:25.003Z</time></trkpt><trkpt lat="42.43331972047913" lon="-8.077741423629297"><ele>404.0</ele><time>2026-03-28T15:46:26.003Z</time></trkpt><trkpt lat="42.43316486481804" lon="-8.0777498893515"><ele>404.0</ele><time>2026-03-28T15:46:27.003Z</time></trkpt><trkpt lat="42.43303142491955" lon="-8.077713679529799"><ele>404.0</ele><time>2026-03-28T15:46:28.003Z</time></trkpt><trkpt lat="42.432901966425064" lon="-8.077737567953838"><ele>404.0</ele><time>2026-03-28T15:46:29.002Z</time></trkpt><trkpt lat="42.432775902601364" lon="-8.07772792876519"><ele>404.0</ele><time>2026-03-28T15:46:30.002Z</time></trkpt><trkpt lat="42.43265108357691" lon="-8.077723792404644"><ele>405.0</ele><time>2026-03-28T15:46:31.002Z</time></trkpt><trkpt lat="42.43251816929878" lon="-8.077721683883995"><ele>406.0</ele><time>2026-03-28T15:46:32.002Z</time></trkpt><trkpt lat="42.43239212848208" lon="-8.077725724578212"><ele>407.0</ele><time>2026-03-28T15:46:33.002Z</time></trkpt><trkpt lat="42.43226492358897" lon="-8.077723017283525"><ele>408.0</ele><time>2026-03-28T15:46:34.002Z</time></trkpt><trkpt lat="42.43214291334774" lon="-8.077723514419729"><ele>409.0</ele><time>2026-03-28T15:46:35.002Z</time></trkpt><trkpt lat="42.43201748169919" lon="-8.077724857701265"><ele>410.0</ele><time>2026-03-28T15:46:36.002Z</time></trkpt><trkpt lat="42.43190127287561" lon="-8.077728792297709"><ele>411.0</ele><time>2026-03-28T15:46:37.001Z</time></trkpt><trkpt lat="42.431784680141845" lon="-8.077730610974204"><ele>412.0</ele><time>2026-03-28T15:46:38.001Z</time></trkpt><trkpt lat="42.431690648901345" lon="-8.07774066925801"><ele>412.0</ele><time>2026-03-28T15:46:39.001Z</time></trkpt><trkpt lat="42.431599388305" lon="-8.077729524539565"><ele>412.0</ele><time>2026-03-28T15:46:40.001Z</time></trkpt><trkpt lat="42.43149524068091" lon="-8.07769987772898"><ele>412.0</ele><time>2026-03-28T15:46:41.001Z</time></trkpt><trkpt lat="42.43141338227315" lon="-8.077685949423879"><ele>412.0</ele><time>2026-03-28T15:46:42.001Z</time></trkpt><trkpt lat="42.43133796272683" lon="-8.07777445940947"><ele>412.0</ele><time>2026-03-28T15:46:43.001Z</time></trkpt><trkpt lat="42.43122886441199" lon="-8.07781556629457"><ele>411.0</ele><time>2026-03-28T15:46:45.001Z</time></trkpt><trkpt lat="42.431122306128174" lon="-8.077664782694908"><ele>410.0</ele><time>2026-03-28T15:46:47.001Z</time></trkpt><trkpt lat="42.43111532157787" lon="-8.07747246341556"><ele>409.0</ele><time>2026-03-28T15:46:48.001Z</time></trkpt><trkpt lat="42.43109235895867" lon="-8.077350098870797"><ele>408.0</ele><time>2026-03-28T15:46:49Z</time></trkpt><trkpt lat="42.43103125571558" lon="-8.0772208773"><ele>407.5</ele><time>2026-03-28T15:46:50Z</time></trkpt><trkpt lat="42.430974612696424" lon="-8.077089635856627"><ele>407.0</ele><time>2026-03-28T15:46:51Z</time></trkpt><trkpt lat="42.43095412704188" lon="-8.076917979111553"><ele>406.5</ele><time>2026-03-28T15:46:52Z</time></trkpt><trkpt lat="42.43093324424408" lon="-8.076751536981684"><ele>406.0</ele><time>2026-03-28T15:46:53Z</time></trkpt><trkpt lat="42.43091009059809" lon="-8.076583077400723"><ele>405.6</ele><time>2026-03-28T15:46:54Z</time></trkpt><trkpt lat="42.43086720817224" lon="-8.076443185645521"><ele>405.20000000000005</ele><time>2026-03-28T15:46:55Z</time></trkpt><trkpt lat="42.43084222087395" lon="-8.076328230426931"><ele>404.79999999999995</ele><time>2026-03-28T15:46:56Z</time></trkpt><trkpt lat="42.430820298233996" lon="-8.076227374328269"><ele>404.4</ele><time>2026-03-28T15:46:57Z</time></trkpt><trkpt lat="42.43076142796716" lon="-8.076157462809165"><ele>404.0</ele><time>2026-03-28T15:46:59Z</time></trkpt><trkpt lat="42.430664323373136" lon="-8.076337620199833"><ele>404.0</ele><time>2026-03-28T15:47:01Z</time></trkpt><trkpt lat="42.430624729630104" lon="-8.076454221315199"><ele>404.0</ele><time>2026-03-28T15:47:02Z</time></trkpt><trkpt lat="42.43055973007185" lon="-8.076546438786917"><ele>404.0</ele><time>2026-03-28T15:47:03Z</time></trkpt><trkpt lat="42.43051859556278" lon="-8.07665979561029"><ele>404.0</ele><time>2026-03-28T15:47:04Z</time></trkpt><trkpt lat="42.43047731406113" lon="-8.076756127065652"><ele>404.0</ele><time>2026-03-28T15:47:06Z</time></trkpt><trkpt lat="42.43039667453192" lon="-8.076560581605774"><ele>403.3333333333333</ele><time>2026-03-28T15:47:09Z</time></trkpt><trkpt lat="42.430373292091545" lon="-8.076438750258234"><ele>402.66666666666663</ele><time>2026-03-28T15:47:10Z</time></trkpt><trkpt lat="42.43033984216955" lon="-8.076324157101919"><ele>402.0</ele><time>2026-03-28T15:47:11Z</time></trkpt><trkpt lat="42.43034064108585" lon="-8.07620576940797"><ele>401.33333333333337</ele><time>2026-03-28T15:47:12Z</time></trkpt><trkpt lat="42.430335180075815" lon="-8.076091358855567"><ele>400.6666666666667</ele><time>2026-03-28T15:47:13Z</time></trkpt><trkpt lat="42.43030904154882" lon="-8.075978504576266"><ele>400.0</ele><time>2026-03-28T15:47:14Z</time></trkpt><trkpt lat="42.430293561598276" lon="-8.075883595145779"><ele>400.00000000000006</ele><time>2026-03-28T15:47:14.999Z</time></trkpt><trkpt lat="42.43026941425699" lon="-8.075794905357041"><ele>400.0</ele><time>2026-03-28T15:47:15.999Z</time></trkpt><trkpt lat="42.430234656171166" lon="-8.075703153757718"><ele>400.0</ele><time>2026-03-28T15:47:16.999Z</time></trkpt><trkpt lat="42.43022993448784" lon="-8.075608182440844"><ele>400.0</ele><time>2026-03-28T15:47:17.999Z</time></trkpt><trkpt lat="42.430183671750974" lon="-8.075468497751865"><ele>400.00000000000006</ele><time>2026-03-28T15:47:19.999Z</time></trkpt><trkpt lat="42.43018443075894" lon="-8.075335914681732"><ele>400.0</ele><time>2026-03-28T15:47:21.999Z</time></trkpt><trkpt lat="42.4301670673621" lon="-8.075209377032204"><ele>400.00000000000006</ele><time>2026-03-28T15:47:23.999Z</time></trkpt><trkpt lat="42.43013672534715" lon="-8.075090533779225"><ele>400.0</ele><time>2026-03-28T15:47:25.999Z</time></trkpt><trkpt lat="42.43012078510373" lon="-8.074977868967803"><ele>400.0</ele><time>2026-03-28T15:47:27.999Z</time></trkpt><trkpt lat="42.43020367009151" lon="-8.074940060986894"><ele>400.0</ele><time>2026-03-28T15:47:30.999Z</time></trkpt><trkpt lat="42.43028154078278" lon="-8.074915872865922"><ele>400.00000000000006</ele><time>2026-03-28T15:47:32.999Z</time></trkpt><trkpt lat="42.430217243511855" lon="-8.074915186045645"><ele>400.0</ele><time>2026-03-28T15:48:13.998Z</time></trkpt><trkpt lat="42.43060444258648" lon="-8.074798771034624"><ele>401.0</ele><time>2026-03-28T15:50:39.991Z</time></trkpt></trkseg></trk></gpx>